[[{"header":{"parameterUnit":"m.s-1","parameterCategory":1,"la1":30.6,"la2":28.766,"lo1":-90.7593,"lo2":-88.6598,"dy":0.0162,"dx":0.0183,"nx":116,"ny":114,"refTime":"2023-04-06T06:00:00:Z","depth":0,"parameterNumber":2,"parameterNumberName":"U-component_of_WINDS"},"data":[0.0,0.0,0.0,0.0,0.0,0.0,0.0,0.0,0.0,0.0,0.0,0.0,0.0,0.0,0.0,0.0,0.0,0.0,0.0,0.0,0.0,0.0,0.0,0.0,0.0,0.0,0.0,0.0,0.0,0.0,0.0,0.0,0.0,0.0,0.0,0.0,0.0,0.0,0.0,0.0,0.0,0.0,0.0,0.0,0.0,0.0,0.0,0.0,0.0,0.0,0.0,0.0,0.0,0.0,0.0,0.0,0.0,0.0,0.0,0.0,0.0,0.0,0.0,0.0,0.0,0.0,0.0,0.0,0.0,0.0,0.0,0.0,0.0,0.0,0.0,0.0,0.0,0.0,0.0,0.0,0.0,0.0,0.0,0.0,0.0,0.0,0.0,0.0,0.0,0.0,0.0,0.0,0.0,0.0,0.0,0.0,0.0,0.0,0.0,0.0,0.0,0.0,0.0,0.0,0.0,0.0,0.0,0.0,0.0,0.0,0.0,0.0,0.0,0.0,0.0,0.0,0.0,0.0,0.0,0.0,0.0,0.0,0.0,0.0,0.0,0.0,0.0,0.0,0.0,0.0,0.0,0.0,0.0,0.0,0.0,0.0,0.0,0.0,0.0,0.0,0.0,0.0,0.0,0.0,0.0,0.0,0.0,0.0,0.0,0.0,0.0,0.0,0.0,0.0,0.0,0.0,0.0,0.0,0.0,0.0,0.0,0.0,0.0,0.0,0.0,0.0,0.0,0.0,0.0,0.0,0.0,0.0,0.0,0.0,0.0,0.0,0.0,0.0,0.0,0.0,0.0,0.0,0.0,0.0,0.0,0.0,0.0,0.0,0.0,0.0,0.0,0.0,0.0,0.0,0.0,0.0,0.0,0.0,0.0,0.0,0.0,0.0,0.0,0.0,0.0,0.0,0.0,0.0,0.0,0.0,0.0,0.0,0.0,0.0,0.0,0.0,0.0,0.0,0.0,0.0,0.0,0.0,0.0,0.0,0.0,0.0,0.0,0.0,0.0,0.0,0.0,0.0,0.0,0.0,0.0,0.0,0.0,0.0,0.0,0.0,0.0,0.0,0.0,0.0,0.0,0.0,0.0,0.0,0.0,0.0,0.0,0.0,0.0,0.0,0.0,0.0,0.0,0.0,0.0,0.0,0.0,0.0,0.0,0.0,0.0,0.0,0.0,0.0,0.0,0.0,0.0,0.0,0.0,0.0,0.0,0.0,0.0,0.0,0.0,0.0,0.0,0.0,0.0,0.0,0.0,0.0,0.0,0.0,0.0,0.0,0.0,0.0,0.0,0.0,0.0,0.0,0.0,0.0,0.0,0.0,0.0,0.0,0.0,0.0,0.0,0.0,0.0,0.0,0.0,0.0,0.0,0.0,0.0,0.0,0.0,0.0,0.0,0.0,0.0,0.0,0.0,0.0,0.0,0.0,0.0,0.0,0.0,0.0,0.0,0.0,0.0,0.0,0.0,0.0,0.0,0.0,0.0,0.0,0.0,0.0,0.0,0.0,0.0,0.0,0.0,0.0,0.0,0.0,0.0,0.0,0.0,0.0,0.0,0.0,0.0,0.0,0.0,0.0,0.0,0.0,0.0,0.0,0.0,0.0,0.0,0.0,0.0,0.0,0.0,0.0,0.0,0.0,0.0,0.0,0.0,0.0,0.0,0.0,0.0,0.0,0.0,0.0,0.0,0.0,0.0,0.0,0.0,0.0,0.0,0.0,0.0,0.0,0.0,0.0,0.0,0.0,0.0,0.0,0.0,0.0,0.0,0.0,0.0,0.0,0.0,0.0,0.0,0.0,0.0,0.0,0.0,0.0,0.0,0.0,0.0,0.0,0.0,0.0,0.0,0.0,0.0,0.0,0.0,0.0,0.0,0.0,0.0,0.0,0.0,0.0,0.0,0.0,0.0,0.0,0.0,0.0,0.0,0.0,0.0,0.0,0.0,0.0,0.0,0.0,0.0,0.0,0.0,0.0,0.0,0.0,0.0,0.0,0.0,0.0,0.0,0.0,0.0,0.0,0.0,0.0,0.0,0.0,0.0,0.0,0.0,0.0,0.0,0.0,0.0,0.0,0.0,0.0,0.0,0.0,0.0,0.0,0.0,0.0,0.0,0.0,0.0,0.0,0.0,0.0,0.0,0.0,0.0,0.0,0.0,0.0,0.0,0.0,0.0,0.0,0.0,0.0,0.0,0.0,0.0,0.0,0.0,0.0,0.0,0.0,0.0,0.0,0.0,0.0,0.0,0.0,0.0,0.0,0.0,0.0,0.0,0.0,0.0,0.0,0.0,0.0,0.0,0.0,0.0,0.0,0.0,0.0,0.0,0.0,0.0,0.0,0.0,0.0,0.0,0.0,0.0,0.0,0.0,0.0,0.0,0.0,0.0,0.0,0.0,0.0,0.0,0.0,0.0,0.0,0.0,0.0,0.0,0.0,0.0,0.0,0.0,0.0,0.0,0.0,0.0,0.0,0.0,0.0,0.0,0.0,0.0,0.0,0.0,0.0,0.0,0.0,0.0,0.0,0.0,0.0,0.0,0.0,0.0,0.0,0.0,0.0,0.0,0.0,0.0,0.0,0.0,0.0,0.0,0.0,0.0,0.0,0.0,0.0,0.0,0.0,0.0,0.0,0.0,0.0,0.0,0.0,0.0,0.0,0.0,0.0,0.0,0.0,0.0,0.0,0.0,0.0,0.0,0.0,0.0,0.0,0.0,0.0,0.0,0.0,0.0,0.0,0.0,0.0,0.0,0.0,0.0,0.0,0.0,0.0,0.0,0.0,0.0,0.0,0.0,0.0,0.0,0.0,0.0,0.0,0.0,0.0,0.0,0.0,0.0,0.0,0.0,0.0,0.0,0.0,0.0,0.0,0.0,0.0,0.0,0.0,0.0,0.0,0.0,0.0,0.0,0.0,0.0,0.0,0.0,0.0,0.0,0.0,0.0,0.0,0.0,0.0,0.0,0.0,0.0,0.0,0.0,0.0,0.0,0.0,0.0,0.0,0.0,0.0,0.0,0.0,0.0,0.0,0.0,0.0,0.0,0.0,0.0,0.0,0.0,0.0,0.0,0.0,0.0,0.0,0.0,0.0,0.0,0.0,0.0,0.0,0.0,0.0,0.0,0.0,0.0,0.0,0.0,0.0,0.0,0.0,0.0,0.0,0.0,0.0,0.0,0.0,0.0,0.0,0.0,0.0,0.0,0.0,0.0,0.0,0.0,0.0,0.0,0.0,0.0,0.0,0.0,0.0,0.0,0.0,0.0,0.0,0.0,0.0,0.0,0.0,0.0,0.0,0.0,0.0,0.0,0.0,0.0,0.0,0.0,0.0,0.0,0.0,0.0,0.0,0.0,0.0,0.0,0.0,0.0,0.0,0.0,0.0,0.0,0.0,0.0,0.0,0.0,0.0,0.0,0.0,0.0,0.0,0.0,0.0,0.0,0.0,0.0,0.0,0.0,0.0,0.0,0.0,0.0,0.0,0.0,0.0,0.0,0.0,0.0,0.0,0.0,0.0,0.0,0.0,0.0,0.0,0.0,0.0,0.0,0.0,0.0,0.0,0.0,0.0,0.0,0.0,0.0,0.0,0.0,0.0,0.0,0.0,0.0,0.0,0.0,0.0,0.0,0.0,0.0,0.0,0.0,0.0,0.0,0.0,0.0,0.0,0.0,0.0,0.0,0.0,0.0,0.0,0.0,0.0,0.0,0.0,0.0,0.0,0.0,0.0,0.0,0.0,0.0,0.0,0.0,0.0,0.0,0.0,0.0,0.0,0.0,0.0,0.0,0.0,0.0,0.0,0.0,0.0,0.0,0.0,0.0,0.0,0.0,0.0,0.0,0.0,0.0,0.0,0.0,0.0,0.0,0.0,0.0,0.0,0.0,0.0,0.0,0.0,0.0,0.0,0.0,0.0,0.0,0.0,0.0,0.0,0.0,0.0,0.0,0.0,0.0,0.0,0.0,0.0,0.0,0.0,0.0,0.0,0.0,0.0,0.0,0.0,0.0,0.0,0.0,0.0,0.0,0.0,0.0,0.0,0.0,0.0,0.0,0.0,0.0,0.0,0.0,0.0,0.0,0.0,0.0,0.0,0.0,0.0,0.0,0.0,0.0,0.0,0.0,0.0,0.0,0.0,0.0,0.0,0.0,0.0,0.0,0.0,0.0,0.0,0.0,0.0,0.0,0.0,0.0,0.0,0.0,0.0,0.0,0.0,0.0,0.0,0.0,0.0,0.0,0.0,0.0,0.0,0.0,0.0,0.0,0.0,0.0,0.0,0.0,0.0,0.0,0.0,0.0,0.0,0.0,0.0,0.0,0.0,0.0,0.0,0.0,0.0,0.0,0.0,0.0,0.0,0.0,0.0,0.0,0.0,0.0,0.0,0.0,0.0,0.0,0.0,0.0,0.0,0.0,0.0,0.0,0.0,0.0,0.0,0.0,0.0,0.0,0.0,0.0,0.0,0.0,0.0,0.0,0.0,0.0,0.0,0.0,0.0,0.0,0.0,0.0,0.0,0.0,0.0,0.0,0.0,0.0,0.0,0.0,0.0,0.0,0.0,0.0,0.0,0.0,0.0,0.0,0.0,0.0,0.0,0.0,0.0,0.0,0.0,0.0,0.0,0.0,0.0,0.0,0.0,0.0,0.0,0.0,0.0,0.0,0.0,0.0,0.0,0.0,0.0,0.0,0.0,0.0,0.0,0.0,0.0,0.0,0.0,0.0,0.0,0.0,0.0,0.0,0.0,0.0,0.0,0.0,0.0,0.0,0.0,0.0,0.0,0.0,0.0,0.0,0.0,0.0,0.0,0.0,0.0,0.0,0.0,0.0,0.0,0.0,0.0,0.0,0.0,0.0,0.0,0.0,0.0,0.0,0.0,0.0,0.0,0.0,0.0,0.0,0.0,0.0,0.0,0.0,0.0,0.0,0.0,0.0,0.0,0.0,0.0,0.0,0.0,0.0,0.0,0.0,0.0,0.0,0.0,0.0,0.0,0.0,0.0,0.0,0.0,0.0,0.0,0.0,0.0,0.0,0.0,0.0,0.0,0.0,0.0,0.0,0.0,0.0,0.0,0.0,0.0,0.0,0.0,0.0,0.0,0.0,0.0,0.0,0.0,0.0,0.0,0.0,0.0,0.0,0.0,0.0,0.0,0.0,0.0,0.0,0.0,0.0,0.0,0.0,0.0,0.0,0.0,0.0,0.0,0.0,0.0,0.0,0.0,0.0,0.0,0.0,0.0,0.0,0.0,0.0,0.0,0.0,0.0,0.0,0.0,0.0,0.0,0.0,0.0,0.0,0.0,0.0,0.0,0.0,0.0,0.0,0.0,0.0,0.0,0.0,0.0,0.0,0.0,0.0,0.0,0.0,0.0,0.0,0.0,0.0,0.0,0.0,0.0,0.0,0.0,0.0,0.0,0.0,0.0,0.0,0.0,0.0,0.0,0.0,0.0,0.0,0.0,0.0,0.0,0.0,0.0,0.0,0.0,0.0,0.0,0.0,0.0,0.0,0.0,0.0,0.0,0.0,0.0,0.0,0.0,0.0,0.0,0.0,0.0,0.0,0.0,0.0,0.0,0.0,0.0,0.0,0.0,0.0,0.0,0.0,0.0,0.0,0.0,0.0,0.0,0.0,0.0,0.0,0.0,0.0,0.0,0.0,0.0,0.0,0.0,0.0,0.0,0.0,0.0,0.0,0.0,0.0,0.0,0.0,0.0,0.0,0.0,0.0,0.0,0.0,0.0,0.0,0.0,0.0,0.0,0.0,0.0,0.0,0.0,0.0,0.0,0.0,0.0,0.0,0.0,0.0,0.0,0.0,0.0,0.0,0.0,0.0,0.0,0.0,0.0,0.0,0.0,0.0,0.0,0.0,0.0,0.0,0.0,0.0,0.0,0.0,0.0,0.0,0.0,0.0,0.0,0.0,0.0,0.0,0.0,0.0,0.0,0.0,0.0,0.0,0.0,0.0,0.0,0.0,0.0,0.0,0.0,0.0,0.0,0.0,0.0,0.0,0.0,0.0,0.0,0.0,0.0,0.0,0.0,0.0,0.0,0.0,0.0,0.0,0.0,0.0,0.0,0.0,0.0,0.0,0.0,-3.3465,0.0,0.0,0.0,0.0,0.0,0.0,0.0,0.0,0.0,0.0,0.0,0.0,0.0,0.0,0.0,0.0,0.0,0.0,0.0,0.0,0.0,0.0,0.0,0.0,0.0,0.0,0.0,0.0,0.0,0.0,0.0,0.0,0.0,0.0,0.0,0.0,0.0,0.0,-0.8714,-0.9949,-1.1601,-1.3554,-1.5251,-1.5283,-1.3967,0.0,0.0,0.0,0.0,0.0,0.0,0.0,0.0,0.0,0.0,0.0,0.0,0.0,0.0,0.0,0.0,0.0,0.0,0.0,0.0,0.0,0.0,0.0,0.0,0.0,0.0,0.0,0.0,0.0,0.0,0.0,0.0,0.0,0.0,0.0,0.0,0.0,0.0,0.0,0.0,0.0,0.0,0.0,0.0,0.0,0.0,0.0,0.0,0.0,0.0,0.0,0.0,0.0,0.0,0.0,0.0,0.0,0.0,0.0,0.0,0.0,0.0,0.0,0.0,0.0,0.0,0.0,0.0,0.0,0.0,0.0,-3.3179,0.0,0.0,0.0,0.0,0.0,0.0,0.0,0.0,0.0,0.0,0.0,0.0,0.0,0.0,0.0,0.0,0.0,0.0,0.0,0.0,0.0,0.0,0.0,0.0,-0.3117,-0.3697,-0.3129,-0.3405,0.0,0.0,0.0,0.0,0.0,0.0,0.0,-0.6494,-0.7074,-0.8278,-1.0704,-1.3322,-1.615,-1.7851,-1.7079,-1.4386,-1.5442,0.0,0.0,0.0,0.0,0.0,0.0,0.0,0.0,0.0,0.0,0.0,0.0,0.0,0.0,0.0,0.0,0.0,0.0,0.0,0.0,0.0,0.0,0.0,0.0,0.0,0.0,0.0,0.0,0.0,0.0,0.0,0.0,0.0,0.0,0.0,0.0,0.0,0.0,0.0,0.0,0.0,0.0,0.0,0.0,0.0,0.0,0.0,0.0,0.0,0.0,0.0,0.0,0.0,0.0,0.0,0.0,0.0,0.0,0.0,0.0,0.0,0.0,0.0,-3.5063,-3.533,-3.5611,-3.5811,-3.5905,-3.5825,-3.4419,-3.3374,-3.2804,0.0,0.0,0.0,0.0,0.0,0.0,0.0,0.0,0.0,0.0,0.0,0.0,0.0,0.0,0.0,0.0,0.0,0.0,0.0,0.0,0.0,0.0,-0.2709,-0.2746,-0.268,-0.2669,-0.3047,-0.3937,0.0,0.0,0.0,0.0,0.0,-0.5557,-0.5691,-0.611,-0.6986,-1.0243,-1.3055,-1.5224,-1.6473,-1.7648,-1.8813,-1.9263,-1.8841,-1.7916,0.0,0.0,0.0,0.0,0.0,0.0,0.0,0.0,0.0,0.0,0.0,0.0,0.0,0.0,0.0,0.0,0.0,0.0,0.0,0.0,0.0,0.0,0.0,0.0,0.0,0.0,0.0,0.0,0.0,0.0,0.0,0.0,0.0,0.0,0.0,0.0,0.0,0.0,0.0,0.0,0.0,-3.3383,-3.3465,0.0,0.0,0.0,0.0,0.0,0.0,0.0,0.0,0.0,0.0,0.0,0.0,0.0,-3.2282,-3.3026,-3.3982,-3.4337,-3.4033,-3.5973,-3.6417,-3.5593,-3.6557,-3.7001,-3.6988,-3.676,0.0,-3.4362,-3.3578,0.0,0.0,0.0,0.0,0.0,0.0,0.0,0.0,0.0,0.0,0.0,0.0,0.0,0.0,0.0,0.0,0.0,0.0,0.0,0.0,0.0,0.0401,0.1254,0.0699,0.1616,0.1175,-0.1281,-0.2189,0.0,0.0,0.0,-0.5428,-0.5428,-0.4965,-0.5705,-0.7662,-1.1374,-1.4196,-1.6292,-1.8793,-2.0296,-2.0873,-2.2862,-2.236,-1.9928,-1.8899,0.0,0.0,0.0,0.0,0.0,0.0,0.0,0.0,0.0,0.0,0.0,0.0,0.0,0.0,0.0,0.0,0.0,0.0,0.0,0.0,0.0,0.0,0.0,0.0,0.0,0.0,0.0,0.0,0.0,0.0,0.0,0.0,0.0,0.0,0.0,0.0,0.0,0.0,0.0,-3.0712,-3.1733,-3.0817,-3.1117,-3.054,0.0,0.0,0.0,0.0,0.0,0.0,0.0,0.0,0.0,-2.9272,-3.2098,-3.3667,-3.3764,-3.532,-3.6307,-3.6709,-3.7676,-3.804,-3.7889,-3.8379,-3.8592,-3.8592,-3.8592,-3.8049,-3.7027,-3.5376,-3.41,-3.2991,0.0,0.0,0.0,0.0,-3.124,-3.0939,0.0,0.0,0.0,0.0,0.0,0.0,0.0,0.0,0.0,0.0,0.0,0.0,0.0644,0.3438,0.4969,0.425,0.5249,0.4555,0.1397,-0.039,-0.2405,-0.4643,-0.4688,-0.4688,-0.4688,-0.463,-0.6155,-0.9206,-1.2663,-1.5616,-1.8173,-2.0805,-2.2154,-2.2334,-2.4671,-2.425,-2.1691,-2.096,-2.0236,-1.9453,0.0,0.0,0.0,0.0,0.0,0.0,0.0,0.0,0.0,0.0,0.0,0.0,0.0,0.0,0.0,0.0,0.0,0.0,0.0,0.0,0.0,0.0,0.0,0.0,0.0,0.0,0.0,0.0,0.0,0.0,0.0,0.0,0.0,0.0,0.0,0.0,0.0,-2.9358,-3.0248,-2.8558,-2.9861,-2.9821,0.0,0.0,0.0,0.0,0.0,0.0,-2.7698,-2.9754,-3.0735,-3.0274,-3.3344,-3.487,-3.4629,-3.6146,-3.7424,-3.8534,-3.8534,-3.8963,-3.9697,-3.9362,-3.9129,-3.9141,-3.8699,-3.8362,-3.789,-3.6625,-3.5386,-3.4296,-3.3728,-3.3165,-3.2657,-3.2978,-3.2881,-3.2533,0.0,0.0,0.0,0.0,0.0,0.0,0.0,0.0,0.0,0.0,0.0,0.1908,0.2293,0.4849,0.6682,0.7022,0.6142,0.4879,0.3425,0.0766,-0.138,-0.2753,-0.2811,-0.2811,-0.2811,-0.5002,-0.7902,-1.1572,-1.381,-1.6825,-2.0504,-2.0772,-2.1761,-2.3499,-2.3623,-2.3614,-2.332,-2.4123,-2.3417,-2.1679,-1.9961,0.0,0.0,0.0,0.0,0.0,0.0,0.0,0.0,0.0,0.0,0.0,0.0,0.0,0.0,0.0,0.0,0.0,0.0,0.0,0.0,0.0,0.0,0.0,0.0,0.0,0.0,0.0,0.0,0.0,0.0,0.0,0.0,0.0,0.0,0.0,0.0,0.0,0.0,-2.9235,-3.0785,0.0,0.0,0.0,0.0,-2.8429,-2.8,-2.7924,-2.8421,-3.0118,-3.1348,-3.2253,-3.446,-3.5647,-3.5826,-3.596,-3.6541,-3.7536,-3.7536,-3.8323,-3.9685,-3.8243,-3.7571,-3.7571,-3.6162,-3.5497,-3.5534,-3.6162,-3.5722,-3.4551,-3.289,-3.1991,-3.1448,-3.0981,-3.0792,-3.0691,0.0,0.0,0.0,0.0,0.0,0.0,0.0,0.0,0.0706,0.0706,0.1809,0.2809,0.318,0.7183,0.9974,1.0143,1.0658,0.9706,0.6563,0.3488,0.0404,-0.2607,-0.2666,-0.2949,-0.3404,-0.7465,-0.9915,-1.0837,-1.5019,-1.79,-1.9277,-2.0433,-2.1379,-2.2097,-2.3084,-2.3604,-2.3559,-2.4191,-2.3487,-2.2158,-2.1731,-2.1032,0.0,0.0,0.0,0.0,0.0,0.0,0.0,0.0,0.0,0.0,0.0,0.0,0.0,0.0,0.0,0.0,0.0,0.0,0.0,0.0,0.0,0.0,0.0,0.0,0.0,0.0,0.0,0.0,0.0,0.0,0.0,0.0,0.0,0.0,0.0,0.0,0.0,-3.0334,-3.2601,0.0,-2.9913,-2.9547,-2.9299,-2.8869,-2.9427,-2.9988,-3.0436,-3.2138,-3.2934,-3.2253,-3.4833,-3.5648,-3.4543,-3.5442,-3.5993,-3.6054,-3.6054,-3.6379,-3.6834,-3.6271,-3.6054,-3.6031,-3.517,-3.4997,-3.5275,-3.4657,-3.4738,-3.5429,-3.5394,-3.4864,-3.4085,-3.4248,-3.4085,-3.3809,0.0,0.0,0.0,0.0,0.0,0.0,0.0,0.0,0.1198,0.1384,0.2772,0.4,0.4646,0.9316,1.225,1.1791,1.3142,1.214,0.7868,0.5001,0.1824,-0.1628,-0.2329,-0.3167,-0.4281,-0.8702,-1.1406,-1.2225,-1.6359,-1.8722,-1.9419,-2.0589,-2.1109,-2.1109,-2.2215,-2.2709,-2.2776,-2.3685,-2.3601,-2.2848,-2.2359,-2.1374,-2.018,0.0,0.0,0.0,0.0,0.0,0.0,0.0,0.0,0.0,0.0,0.0,0.0,0.0,0.0,0.0,0.0,0.0,0.0,0.0,0.0,0.0,0.0,0.0,0.0,0.0,0.0,0.0,0.0,0.0,0.0,0.0,0.0,0.0,0.0,0.0,-3.1434,-3.0305,-3.2902,-3.3623,-3.0923,-3.1055,-3.0947,-3.043,-3.125,-3.1865,-3.2148,-3.3347,-3.3558,-3.2383,-3.4347,-3.4507,-3.2967,-3.3875,-3.4431,-3.4515,-3.4515,-3.4847,-3.5288,-3.4736,-3.4427,-3.4252,-3.3496,-3.3222,-3.3308,-3.2896,-3.3324,-3.4245,-3.5163,-3.5054,-3.4473,-3.492,-3.5027,-3.5256,0.0,0.0,0.0,0.0,0.0,0.0,0.0,0.0936,0.1344,0.2019,0.3842,0.5627,0.6917,1.1067,1.3216,1.2117,1.2981,1.1761,0.7387,0.5104,0.2728,0.0065,-0.1702,-0.3434,-0.5367,-0.8823,-1.2355,-1.5867,-1.7701,-1.9419,-2.1109,-2.1109,-2.1109,-2.1109,-2.1109,-2.1109,-2.1235,-2.2834,-2.3731,-2.3877,-2.1719,-2.0798,-2.0522,0.0,0.0,0.0,0.0,0.0,0.0,0.0,0.0,0.0,0.0,0.0,0.0,0.0,0.0,0.0,0.0,0.0,0.0,0.0,0.0,0.0,0.0,0.0,0.0,0.0,0.0,0.0,0.0,0.0,0.0,0.0,0.0,0.0,-2.6682,-2.876,-3.0019,-2.9219,-3.1728,-3.3193,-3.2373,-3.2666,-3.3076,-3.3457,-3.3467,-3.3457,-3.3457,-3.3437,-3.3232,-3.2803,-3.2793,-3.2383,-3.1523,-3.1514,-3.1976,-3.3077,-3.3077,-3.3744,-3.5068,-3.3631,-3.2826,-3.2284,-3.0837,-2.9951,-2.9692,-3.1148,-3.1409,-3.1074,-3.1933,-3.2353,-3.2331,-3.2331,-3.3155,-3.4412,0.0,0.0,0.0,0.0,0.0,0.0,0.0,0.0701,0.1838,0.3988,0.4972,0.684,1.0513,1.2689,1.3881,1.3766,1.2841,1.0813,0.7375,0.4232,0.1262,-0.1671,-0.3383,-0.567,-0.8831,-1.2271,-1.5284,-1.7577,-1.953,-2.0589,-2.1109,-2.1109,-2.1109,-2.1109,-2.1109,-2.1109,-2.1109,-2.1601,-2.1825,-2.2011,-2.3146,-2.2544,-2.1025,0.0,0.0,0.0,0.0,0.0,0.0,0.0,0.0,0.0,0.0,0.0,0.0,0.0,0.0,0.0,0.0,0.0,0.0,0.0,0.0,0.0,0.0,0.0,0.0,0.0,0.0,0.0,0.0,0.0,0.0,0.0,0.0,-2.9005,-2.8767,-3.0718,-3.2471,-3.3496,-3.4892,-3.5566,-3.5019,-3.5351,-3.54,-3.4892,-3.4531,-3.4346,-3.4346,-3.376,-3.3232,-3.2803,-3.2793,-3.2383,-3.1523,-3.1514,-3.1525,-3.1546,-3.1546,-3.1777,-3.2113,-3.1662,-3.1486,-3.1212,-3.0246,-2.9853,-2.9951,-2.9451,-2.9379,-2.9745,-3.2006,-3.2667,-3.2331,-3.2331,-3.2543,-3.2875,0.0,0.0,0.0,0.0,0.0,0.0,0.0,0.0734,0.2136,0.5093,0.6153,0.8201,1.2183,1.4046,1.423,1.2357,1.1469,0.9112,0.4795,0.2055,-0.0327,-0.2403,-0.4728,-0.7585,-1.1335,-1.472,-1.7541,-1.9431,-2.0511,-2.1169,-2.1296,-2.1169,-2.1176,-2.1289,-2.1162,-2.1109,-2.1109,-2.1109,-2.1109,-2.1202,-2.2659,-2.2164,-2.0587,-2.0832,-2.073,-2.0406,-2.0531,-2.2325,-2.4327,-2.226,0.0,0.0,0.0,0.0,0.0,0.0,0.0,0.0,0.0,0.0,0.0,0.0,0.0,0.0,0.0,0.0,0.0,0.0,0.0,0.0,0.0,0.0,0.0,0.0,-2.8652,-3.0635,-3.1357,-3.2685,-3.4101,-3.5498,-3.6094,-3.6367,-3.6299,-3.6357,-3.6123,-3.5449,-3.4961,-3.4629,-3.4453,-3.3623,-3.2969,-3.2549,-3.2353,-3.1934,-3.126,-3.126,-3.1133,-3.0889,-3.0889,-3.0889,-3.0889,-3.0889,-3.0781,0.0,-2.9863,-2.9609,-2.959,-2.8672,-2.8437,0.0,0.0,0.0,0.0,0.0,-3.14,-3.1271,0.0,0.0,0.0,0.0,0.0,0.0,0.0,0.0843,0.2268,0.5953,0.7477,0.9513,1.3096,1.5092,1.4314,0.9745,0.9368,0.6995,0.1299,-0.0413,-0.1558,-0.25,-0.5638,-0.9179,-1.3081,-1.6347,-1.8889,-2.1056,-2.1096,-2.1115,-2.1232,-2.1102,-2.1122,-2.1225,-2.1095,-2.1109,-2.1109,-2.1109,-2.1109,-2.1109,-2.1109,-2.0641,-1.992,-1.97,-1.9401,-1.9163,-1.9057,-2.0656,-2.2683,-2.2331,0.0,0.0,0.0,0.0,0.0,0.0,0.0,0.0,0.0,0.0,0.0,0.0,0.0,0.0,0.0,0.0,0.0,0.0,0.0,0.0,0.0,0.0,0.0,0.0,-3.0361,-3.2383,-3.4062,-3.4658,-3.5215,-3.5996,-3.6094,-3.624,-3.6631,-3.6318,-3.5898,-3.543,-3.4961,-3.4492,-3.4023,0.0,0.0,0.0,0.0,-3.1318,-3.0898,-3.0889,-3.0889,-3.0889,-3.0889,-3.0889,-3.0889,-3.0889,-3.0664,-3.0244,-2.9775,-2.9346,-2.8955,-2.8486,-2.8291,-2.8291,-2.8291,-2.8291,-2.8388,-2.9608,-2.9828,-2.9583,0.0,0.0,0.0,0.0,0.0,0.0,0.0,0.019,0.2318,0.8245,0.8552,1.0516,1.6721,1.6204,1.4062,1.0928,0.7982,0.4835,0.1101,0.0181,-0.096,-0.2395,-0.574,-0.9672,-1.4386,-1.6825,-1.8988,-2.0762,-2.0995,-2.0354,-1.9102,-2.0482,-2.0361,-1.9102,-2.0482,-2.1109,-2.1109,-2.1109,-2.1109,-2.1109,-2.1109,-2.1009,-2.0875,-2.1062,-2.1923,-2.2908,-2.2792,-2.4308,-2.6183,-2.4088,-2.5051,-2.6773,-2.4572,-2.3955,0.0,0.0,0.0,0.0,0.0,0.0,0.0,0.0,0.0,0.0,0.0,0.0,0.0,0.0,0.0,0.0,0.0,0.0,0.0,-2.9356,-3.1934,-3.4062,-3.5449,-3.6016,-3.6357,-3.6523,-3.6543,-3.6572,-3.666,-3.6592,-3.6221,-3.5449,-3.4961,-3.4365,-3.3584,-3.3066,-3.2441,-3.167,-3.1562,-3.1318,-3.0898,-3.0889,-3.0889,-3.0889,0.0,0.0,-3.0889,-3.0889,-3.084,-3.0713,-2.9912,-2.9521,-2.9385,-2.8613,-2.8291,-2.8291,-2.8291,-2.8291,-2.8291,-2.8601,-2.843,-2.8097,0.0,0.0,0.0,0.0,0.0,0.0,0.0,-0.0736,0.1014,0.5137,0.5601,0.7267,1.1912,1.1298,0.9347,0.6604,0.3166,0.0601,-0.0754,-0.1389,-0.2491,-0.4353,-0.7581,-1.1351,-1.5587,-1.7649,-1.8916,-1.9315,-1.9468,-1.877,-1.7334,-1.8116,-1.8056,-1.7516,-1.8173,-1.9024,-1.9807,-1.9807,-2.0322,-2.1109,-2.1109,-2.1109,-2.1142,-2.1436,-2.2052,-2.2851,-2.3025,-2.439,-2.5814,-2.4704,-2.5513,-2.6611,-2.507,-2.4878,-2.4886,0.0,0.0,0.0,0.0,0.0,0.0,0.0,0.0,0.0,0.0,0.0,0.0,0.0,0.0,-2.5547,-2.7328,0.0,-2.9307,-3.1735,-3.3594,-3.5117,-3.6191,-3.6719,-3.6904,-3.6689,-3.667,-3.6592,-3.6367,-3.6348,-3.5986,-3.5107,-3.4834,-3.4238,-3.3164,-3.2715,-3.2187,-3.1533,-3.1309,-3.1103,-3.0889,-3.0889,-3.0889,-3.0889,-3.0889,-3.0889,-3.0889,-3.0889,-3.0889,-3.085,-3.0176,-2.9766,-2.9502,-2.8643,-2.8291,-2.8291,-2.8291,-2.8291,-2.8271,-2.8057,-2.7705,-2.7275,0.0,0.0,0.0,0.0,0.0,0.0,0.0,-0.1536,-0.0316,0.1823,0.2506,0.3685,0.6166,0.5879,0.4297,0.1222,-0.1601,-0.298,-0.2407,-0.3523,-0.4945,-0.6616,-1.0019,-1.3381,-1.6553,-1.8352,-1.8933,-1.8204,-1.8101,-1.7239,-1.5971,-1.5848,-1.5839,-1.5781,-1.5864,-1.6824,-1.8506,-1.8506,-1.9546,-2.1109,-2.1109,-2.1109,-2.1136,-2.1753,-2.1883,-2.1746,-2.2535,-2.296,-2.3543,-2.4777,-2.5451,-2.5781,-2.6093,-2.665,-2.6322,-2.2562,-2.3752,0.0,0.0,0.0,0.0,0.0,0.0,0.0,0.0,-2.4971,-2.5576,-2.793,-2.8251,-2.8655,-3.0537,-3.0955,-3.1774,-3.4131,-3.5117,-3.5937,-3.6797,-3.7207,-3.7295,-3.6953,-3.6767,-3.6533,-3.6182,-3.5996,-3.5566,-3.4766,-3.4541,-3.3926,-3.2744,-3.2275,-3.1846,-3.1406,-3.1064,-3.0889,-3.0889,-3.0889,-3.0889,-3.0889,-3.0889,-3.0889,-3.0889,-3.0889,-3.084,-3.0723,-3.0185,-2.9707,-2.9268,-2.8574,-2.8291,-2.8281,-2.8203,-2.8174,-2.8125,-2.7793,-2.7334,-2.6846,0.0,0.0,0.0,0.0,0.0,0.0,0.0,0.0,-0.0553,0.3067,0.3058,0.3781,0.6503,0.5176,0.2516,-0.1229,-0.2931,-0.3273,-0.2101,-0.5308,-0.7415,-0.7657,-1.2092,-1.5435,-1.7205,-1.8399,-1.9017,-1.9226,-1.8044,-1.6814,-1.5625,-1.5615,-1.4966,-1.3744,-1.5279,-1.6824,-1.8506,-1.8506,-1.9546,-2.1109,-2.1109,-2.1109,-2.1235,-2.2752,-2.2694,-2.1849,-2.3573,-2.2084,-2.0116,-2.5026,-2.553,-2.4666,-2.7999,-2.9379,-2.9039,-2.5693,-2.4226,-2.2921,-1.9451,-2.0518,-2.3056,-2.4614,-2.5575,-2.6689,0.0,-2.9189,-2.9336,-3.0791,-3.0266,-3.0409,-3.2622,-3.2365,-3.2562,-3.5297,-3.6211,-3.6826,-3.7666,-3.7822,-3.7842,-3.7783,-3.7129,-3.665,-3.6601,-3.5908,-3.5254,-3.4736,-3.3994,-3.3174,-3.2285,-3.1826,-3.1396,-3.0976,-3.0918,-3.0889,-3.0889,-3.0889,-3.0889,-3.0889,-3.0889,-3.0889,-3.0889,-3.0889,-3.0664,-3.0234,-2.9414,-2.8828,-2.8428,-2.833,-2.8291,-2.8252,-2.7881,-2.7734,-2.7725,-2.7685,-2.7158,-2.6455,0.0,0.0,0.0,0.0,0.0,0.0,0.0,0.0,0.0,-0.2909,-0.283,-0.2552,-0.1742,-0.2146,-0.3172,-0.4916,-0.4873,-0.4553,-0.3926,-0.7106,-0.9316,-1.0058,-1.4389,-1.7203,-1.8285,-1.8893,-1.8673,-1.7452,-1.7166,-1.6275,-1.4891,-1.4274,-1.3616,-1.3034,-1.2905,-1.4378,-1.6953,-1.6953,-1.8634,-2.1109,-2.1109,-2.1727,-2.257,-2.2995,-2.3245,-2.33,-2.2479,-2.1364,0.0,-2.2487,-2.315,-2.3661,-2.6894,-2.7635,-2.6822,-2.3897,-2.3377,-2.3608,-2.2635,-2.2316,-2.3019,-2.5628,-2.689,-2.7996,-3.0112,-3.0469,-3.085,-3.2637,-3.2623,-3.281,-3.4595,-3.4527,-3.4921,0.0,-3.7285,-3.7617,-3.8213,-3.8301,-3.8213,-3.7949,-3.7402,-3.6943,-3.6689,-3.6113,-3.5469,-3.4746,-3.4365,-3.3691,-3.2588,-3.2129,-3.1699,-3.1269,-3.1016,-3.0889,-3.0889,-3.0889,-3.0889,-3.0889,-3.0889,-3.0889,-3.0879,-3.0615,-3.0244,-2.9795,-2.918,-2.8818,-2.8643,-2.8398,-2.8144,-2.791,-2.7734,-2.7363,-2.6924,-2.6924,-2.6699,-2.6357,0.0,0.0,0.0,0.0,0.0,0.0,0.0,0.0,0.0,0.0,-0.7394,-0.7431,-0.8109,-0.7622,-0.7218,-0.72,-0.6509,-0.6394,-0.7131,-1.0409,-1.3038,-1.476,-1.8319,-2.0312,-2.0434,-2.0287,-1.9449,-1.7721,-1.7679,-1.6904,-1.5418,-1.4256,-1.3568,-1.3274,-1.2187,-1.3422,-1.6376,-1.6439,-1.8516,-2.161,-2.1692,-2.2652,-2.4116,-2.4018,-2.4021,-2.3788,-2.1888,-2.0786,-2.034,-2.0545,-2.0729,-2.1406,-2.4493,-2.5003,-2.4036,-2.1542,-2.1278,-2.2014,-2.308,-2.2873,-2.3135,-2.6434,-2.8289,-2.9692,-3.1716,-3.2226,-3.2773,-3.4443,-3.4697,-3.4932,-3.6006,-3.6289,-3.6719,-3.7754,-3.8125,-3.835,-3.8545,-3.8574,-3.8369,-3.7812,-3.7275,-3.6826,-3.6523,-3.5986,-3.5391,-3.4746,-3.4365,-3.3721,-3.2676,-3.2226,-3.1787,-3.1357,-3.1055,-3.0889,-3.0889,-3.0889,-3.0889,-3.0889,-3.0889,-3.082,-3.0684,-3.0107,-2.9678,-2.9365,-2.8935,-2.875,-2.8711,-2.8291,-2.7939,-2.7646,-2.7402,-2.6934,-2.6377,-2.625,-2.6211,-2.6143,0.0,0.0,0.0,0.0,0.0,0.0,0.0,0.0,0.0,0.0,0.0,0.0,0.0,-0.8361,-0.7621,-0.7076,-0.7395,-0.8874,-1.1692,-1.6113,-1.9776,-2.2226,-2.4872,-2.5538,-2.3982,-2.3058,-2.2408,-2.1916,-2.0362,-1.916,-1.8101,-1.6872,-1.5628,-1.4592,-1.4799,-1.5887,-1.7532,-1.7906,-1.9996,-2.3118,-2.3447,-2.4215,-2.5407,-2.6583,-2.5168,-2.2649,-2.2878,-2.0385,-1.7371,-2.0475,-1.9107,-1.6829,-2.1012,-2.2529,-2.2332,-2.0106,-1.7677,-1.606,-1.8025,-1.9904,-2.2393,-2.66,-2.9744,-3.2399,-3.4738,-3.5576,-3.5996,-3.6494,-3.625,-3.6103,-3.6562,-3.6982,-3.7402,-3.7851,-3.8623,-3.9023,-3.8633,-3.8574,-3.8262,-3.7422,-3.6572,-3.6055,0.0,-3.5254,-3.4726,-3.4697,-3.3555,-3.2656,-3.2217,-3.1777,-3.1348,-3.0928,-3.0898,-3.0889,-3.0889,-3.0889,-3.0889,-3.0889,-3.0889,-3.0654,-3.0185,-2.9346,-2.8945,-2.8916,-2.8496,-2.831,-2.8281,-2.7861,-2.7676,-2.7588,-2.6758,-2.6406,-2.6338,-2.5918,-2.5752,-2.5693,0.0,0.0,0.0,0.0,0.0,0.0,0.0,0.0,0.0,0.0,0.0,0.0,0.0,0.0,0.0,0.0,-0.8453,-0.9131,-1.0581,-1.6474,-2.0176,-2.083,-2.6174,-2.8385,-2.6679,-2.6017,-2.5391,-2.465,-2.3147,-2.2361,-2.1982,-2.0163,-1.9125,-1.8855,-1.8164,-1.8866,-2.0554,-2.0977,-2.2484,-2.4619,-2.4739,-2.6109,-2.8022,-2.529,-2.4977,-2.545,0.0,-1.8544,-1.6937,-1.7557,-1.7588,-1.807,-2.1671,-2.1383,-1.9198,-1.6831,-1.687,-1.8001,-1.9934,-2.1541,-2.3777,-2.8905,-3.0355,-3.1502,-3.4998,-3.5918,-3.6064,-3.6211,-3.498,-3.4014,-3.4434,-3.4629,-3.4961,-3.5674,-3.7471,-3.873,-3.8594,-3.9082,-3.8916,-3.7471,-3.7285,0.0,0.0,0.0,0.0,-3.4697,-3.4043,-3.3457,-3.3027,-3.2334,-3.1885,-3.1748,-3.1191,-3.0889,-3.0889,-3.0889,-3.0732,-3.043,-3.0146,-2.9785,-2.9336,-2.9053,-2.876,-2.8496,-2.8359,-2.8291,-2.8281,-2.8135,-2.7744,-2.7207,-2.6914,-2.6455,-2.5937,-2.5791,-2.5742,-2.5713,0.0,0.0,0.0,0.0,0.0,0.0,0.0,0.0,0.0,0.0,0.0,0.0,0.0,0.0,0.0,0.0,0.0,-0.9725,-1.1416,-1.6148,-1.9308,-2.0146,-2.4864,-2.6784,-2.5203,-2.5093,-2.4705,-2.4018,-2.4016,-2.3965,-2.3782,-2.3236,-2.2878,-2.2706,-2.2221,-2.267,-2.3885,-2.4483,-2.5155,-2.5587,-2.5726,-2.6473,-2.7294,-2.4053,-2.3439,0.0,-1.9417,-1.6926,-1.5717,-1.5405,-1.6004,-1.7206,-1.917,-1.8414,-1.677,-1.6376,-1.7492,-1.9504,-2.2221,-2.3669,-2.5722,-3.0511,-3.1472,-3.2245,-3.5649,-3.6357,-3.625,-3.625,-3.4414,-3.2832,-3.2949,-3.2725,-3.2695,-3.3252,-3.5127,-3.6787,-3.7549,-3.8017,-3.8096,-3.7588,-3.75,-3.709,0.0,0.0,0.0,-3.4707,-3.4316,-3.3818,-3.3232,-3.2549,-3.21,-3.1943,-3.126,-3.0889,-3.0889,-3.0889,-3.0654,-3.0185,-2.9609,-2.9189,-2.8916,-2.876,-2.8545,-2.8291,-2.8291,-2.8291,-2.8281,-2.8135,-2.7744,-2.7217,-2.6914,-2.6455,-2.5947,-2.5791,-2.5635,-2.5498,0.0,0.0,0.0,0.0,0.0,0.0,0.0,0.0,0.0,0.0,0.0,0.0,0.0,0.0,0.0,0.0,0.0,0.0,-1.3921,-1.5474,-1.7549,-2.0451,-2.1666,-2.1753,-2.0651,-2.0989,-2.1135,-2.1001,-2.3171,-2.4146,-2.3801,-2.5952,-2.654,-2.583,-2.655,-2.6919,-2.6968,-2.7699,-2.7299,-2.6084,-2.6374,-2.5392,-2.3771,-2.2754,-2.0799,-1.8586,-1.7515,-1.5861,-1.4123,-1.4418,-1.466,-1.4778,-1.4377,-1.4558,-1.5503,-1.8605,-1.9629,-2.0692,-2.4419,-2.6371,-2.8057,-3.137,-3.2983,-3.4367,-3.6688,-3.6904,-3.6582,-3.6494,-3.4404,-3.2451,-3.1963,-3.1299,-3.084,-3.0889,-3.2109,-3.3779,-3.5859,-3.585,-3.6191,0.0,-3.7246,0.0,0.0,0.0,0.0,-3.4805,0.0,-3.3711,-3.2871,-3.2412,-3.1982,-3.1562,-3.1123,-3.0889,-3.0889,-3.085,-3.0605,-3.0156,-2.9297,-2.8887,-2.8877,-2.8476,-2.8291,-2.8291,-2.8291,-2.8291,-2.8262,-2.7861,-2.7685,-2.7588,-2.6748,-2.6406,-2.6338,-2.5898,-2.5469,-2.5098,0.0,0.0,0.0,0.0,0.0,0.0,0.0,0.0,0.0,0.0,0.0,0.0,0.0,0.0,0.0,0.0,0.0,0.0,-1.1701,-1.5247,-1.7907,-1.9238,-2.2793,-2.4856,-2.5116,-2.5382,-2.5665,-2.6071,-2.5812,-2.5688,-2.5599,-2.5611,-2.5498,-2.5263,-2.5149,-2.5047,-2.5087,-2.4933,-2.4766,-2.4404,-2.4512,-2.4856,-2.4933,-2.1297,-2.0566,-2.1107,-1.7782,-1.6748,-1.6766,-1.5503,-1.686,-1.9088,-1.9553,-2.035,-2.1305,-2.1973,-2.36,-2.5746,-2.7535,-2.8816,-3.0325,-3.3321,-3.3397,-3.3404,-3.5819,-3.6025,-3.5351,-3.4053,-3.1719,-2.9492,-2.8115,-2.8984,-3.0117,-3.0781,-3.4111,0.0,-3.7803,-3.8398,-3.8545,-3.7988,-3.8017,-3.7793,-3.7041,-3.6592,0.0,0.0,-3.4687,-3.3838,-3.3291,-3.2568,-3.2119,-3.2012,-3.1279,-3.0889,-3.0889,-3.0234,-2.9844,-2.9717,-2.8867,-2.8447,-2.8447,-2.834,-2.8291,-2.8291,-2.8291,-2.8291,-2.8281,-2.8174,-2.7949,-2.7617,-2.707,-2.666,-2.6338,-2.5898,-2.5664,-2.5518,0.0,0.0,0.0,0.0,0.0,0.0,0.0,0.0,0.0,0.0,0.0,0.0,0.0,0.0,0.0,0.0,0.0,0.0,0.0,-1.3591,-1.5389,-1.6279,-1.898,-2.0924,-2.1839,-2.2604,-2.3125,-2.3366,-2.4068,-2.4554,-2.472,-2.5394,-2.5687,-2.5733,-2.62,-2.6244,-2.6017,-2.6324,-2.5471,0.0,0.0,-2.314,-2.1794,-1.9008,-1.8721,-1.9421,-1.69,-1.7225,-1.8874,-1.8976,-2.0368,-2.2123,-2.2919,-2.3709,-2.4738,-2.6769,-2.843,-3.013,-3.2771,-3.3595,-3.4138,-3.5721,-3.4997,-3.4064,-3.4493,-3.4424,-3.3652,-3.1533,-2.9336,-2.7461,-2.6309,-2.7393,-2.8672,-2.9365,-3.2646,-3.5664,-3.7236,-3.7725,-3.8057,-3.8437,-3.8545,-3.831,-3.7637,-3.7197,-3.6611,0.0,-3.4883,-3.416,-3.373,-3.2734,-3.2168,-3.2168,-3.1338,-3.0889,-3.0889,-3.001,-2.957,-2.956,-2.8701,-2.8291,-2.8291,-2.8291,-2.8291,-2.8291,0.0,-2.8291,-2.8281,-2.8096,-2.7881,-2.7607,-2.6982,-2.6592,-2.6338,-2.5898,-2.5742,-2.5674,0.0,0.0,0.0,0.0,0.0,0.0,0.0,0.0,0.0,0.0,-1.3848,-1.4274,0.0,0.0,0.0,0.0,0.0,0.0,0.0,0.0,-1.226,-1.3284,-1.3992,-1.4832,-1.5955,-1.7422,-1.8201,-1.815,-2.0876,-2.2372,-2.2858,-2.4966,-2.5933,-2.5984,-2.7222,-2.7563,-2.7179,-2.8064,-2.6564,-2.347,-2.333,-2.1073,-1.7641,0.0,-1.656,-1.6286,-1.5841,-1.75,-2.0322,-2.3298,-2.4401,-2.4736,-2.5771,-2.6535,-2.7872,-3.2257,-3.3602,-3.4428,-3.8464,-3.8985,-3.8389,-3.8452,-3.7534,-3.6037,-3.3707,-3.3105,-3.2086,-2.9141,-2.7363,-2.6113,-2.5498,-2.624,-2.7168,-2.7881,-3.0117,-3.2822,-3.585,-3.5957,-3.6572,-3.8848,-3.875,-3.834,-3.7959,-3.7441,-3.667,-3.5557,-3.4941,-3.4404,-3.3926,-3.2803,-3.2119,-3.2002,-3.1279,-3.0889,-3.0889,-3.0068,-2.9629,-2.956,-2.876,-2.834,-2.8291,-2.8291,-2.8291,-2.8291,0.0,0.0,-2.8262,-2.79,-2.7715,-2.7588,-2.6787,-2.6435,-2.6328,-2.583,-2.5644,-2.5576,0.0,0.0,0.0,0.0,0.0,0.0,0.0,0.0,0.0,0.0,-1.4273,-1.503,0.0,0.0,0.0,0.0,0.0,0.0,0.0,0.0,0.0,-1.4518,-1.5602,-1.6847,-1.8351,-1.9648,-2.0501,-2.0913,-2.2406,-2.3219,-2.3272,-2.3165,-2.3098,-2.3054,-2.2112,-2.1884,-2.2219,-2.169,-2.1354,-2.1127,-2.0635,-1.9957,-1.9119,-1.7672,0.0,0.0,-1.7179,-1.8281,-2.0641,-2.5284,-2.7666,-2.8906,-3.085,-3.3256,-3.5665,-3.6813,-3.8271,-3.9668,-4.0806,-4.1006,-4.0985,-4.1399,-4.0578,-3.9006,-3.6192,-3.4591,-3.2447,-2.7801,-2.6309,-2.5391,-2.3867,-2.5185,-2.7217,-2.9404,-3.1631,-3.4141,-3.7168,-3.7529,-3.7783,-3.8594,-3.8301,-3.8008,-3.793,-3.6904,0.0,0.0,-3.4834,-3.3838,-3.3057,-3.248,-3.1846,-3.1133,-3.0967,-3.0889,-3.0889,-3.0361,-2.9912,-2.956,-2.9053,-2.8633,-2.8291,-2.8291,-2.8291,-2.8291,-2.8291,0.0,-2.8281,-2.8213,-2.7978,-2.7617,-2.7109,-2.6699,-2.6289,-2.5488,-2.5185,-2.5068,0.0,0.0,0.0,0.0,0.0,0.0,0.0,-1.3263,-1.3841,-1.4695,-1.5326,-1.5969,-1.6735,-1.6435,-1.6296,0.0,0.0,0.0,0.0,0.0,0.0,0.0,-1.6585,-1.791,-1.897,-2.0472,-2.1193,-2.1167,0.0,-2.2812,-2.2495,-2.2536,-2.2163,-2.155,-2.1428,-2.1287,-2.1226,-2.1128,-2.1134,-2.1244,-2.06,-1.9988,-1.9248,0.0,0.0,0.0,-1.8542,-1.9686,-2.1425,-2.4524,-2.7862,-3.1218,-3.3822,-3.5595,-3.7135,-3.9509,-4.0973,-4.2381,-4.4306,-4.4439,-4.3939,-4.3531,-4.2141,-3.9644,-3.4866,-3.313,-3.1029,-2.5535,-2.4385,-2.4131,-2.3291,-2.4922,-2.6865,-2.8301,-3.0918,-3.3506,-3.5625,-3.6504,-3.7178,-3.7832,-3.7725,-3.7598,-3.7598,-3.6641,-3.5928,-3.5713,-3.4482,-3.3555,-3.3144,-3.2305,-3.1543,-3.0908,-3.0889,-3.0889,-3.0889,-3.043,-3.0098,-2.9893,-2.9228,-2.8809,-2.8613,-2.8398,-2.8291,-2.8291,-2.8291,0.0,-2.8271,-2.8057,-2.7715,-2.7285,-2.6855,-2.6426,-2.5967,-2.5312,-2.5068,-2.4951,0.0,0.0,0.0,0.0,0.0,0.0,-1.363,-1.3755,-1.4212,-1.5461,-1.6327,-1.6856,-1.7088,-1.7373,-1.7466,0.0,0.0,0.0,0.0,0.0,0.0,0.0,0.0,0.0,0.0,0.0,0.0,-2.1229,-2.2317,0.0,0.0,0.0,0.0,0.0,-2.2377,-2.2482,-2.2159,-2.2439,-2.248,0.0,0.0,-2.0701,0.0,0.0,0.0,0.0,0.0,-2.0785,-2.1946,-2.3908,-2.7109,-3.0885,-3.4149,-3.5852,-3.7075,-3.9975,-4.2023,-4.3866,-4.6944,-4.755,-4.687,-4.6062,-4.4076,-4.0578,-3.4054,-3.2068,-2.9987,-2.3919,-2.291,-2.3135,-2.3135,-2.4541,-2.5947,-2.6748,-2.9238,-3.1738,-3.3662,-3.4892,-3.6025,-3.7158,-3.7217,0.0,-3.7158,-3.6299,0.0,-3.5273,-3.3945,0.0,-3.3018,-3.1973,-3.123,-3.0898,-3.0889,-3.0889,-3.0889,-3.0527,-3.0293,-3.0185,-2.9424,-2.9014,-2.8906,-2.8486,-2.8291,-2.8291,-2.8291,0.0,0.0,-2.7842,-2.7412,-2.6973,-2.6553,-2.6123,-2.5684,-2.5234,-2.501,-2.4824,0.0,0.0,0.0,0.0,0.0,0.0,-1.419,-1.4513,-1.489,-1.5351,-1.6717,-1.7538,-1.7222,-1.7933,-1.8014,0.0,0.0,0.0,0.0,0.0,0.0,0.0,0.0,0.0,0.0,0.0,0.0,-2.2517,-2.3268,0.0,0.0,0.0,0.0,0.0,0.0,-2.3799,-2.4162,-2.3577,0.0,0.0,0.0,0.0,0.0,0.0,0.0,0.0,0.0,-2.0809,-2.1574,-2.5847,-2.6349,-2.5941,-3.0,-3.4447,-3.8089,-3.7477,-4.0581,-4.4798,-4.704,-4.8827,-4.9956,-4.9869,-4.7795,-4.4101,-3.7472,-3.444,-3.1083,-2.4405,-2.3105,-2.3135,-2.3135,-2.3301,-2.4092,-2.6123,-2.7031,-2.8896,-3.292,-3.3926,-3.501,-3.706,-3.6963,0.0,-3.6728,-3.5576,-3.4805,-3.4766,0.0,0.0,-3.1719,-3.1221,-3.0928,-3.0889,-3.0889,-3.0889,-3.0889,-3.085,-3.0615,-3.0185,-2.9726,-2.9307,-2.8906,-2.8486,-2.8291,-2.8291,-2.8291,0.0,0.0,-2.7842,-2.7412,-2.6973,-2.6553,-2.6123,-2.5684,-2.5234,-2.4814,-2.4414,0.0,0.0,0.0,0.0,0.0,0.0,-1.42,-1.4676,-1.527,-1.6105,-1.6743,-1.7179,-1.7279,-1.8025,-1.8181,-1.7377,0.0,0.0,0.0,0.0,0.0,0.0,0.0,0.0,0.0,0.0,-2.1703,-2.2535,-2.3653,0.0,0.0,0.0,0.0,0.0,0.0,-2.4357,-2.4498,-2.4177,0.0,0.0,0.0,0.0,0.0,0.0,0.0,0.0,0.0,0.0,-2.276,-2.4862,-2.5966,-2.6381,-2.6349,-2.9015,-3.2926,-3.6534,-3.9727,-4.3062,-4.7585,-4.9855,-5.077,-5.0092,-4.706,-4.2749,-3.722,-3.3073,-2.9126,-2.4118,-2.3135,-2.3135,-2.3135,-2.3135,-2.3506,-2.4639,-2.54,-2.6719,-2.9219,-3.0156,-3.1582,-3.4267,-3.4443,-3.4746,0.0,0.0,-3.4277,-3.3252,0.0,0.0,-3.1162,-3.0986,-3.0889,-3.0889,-3.0889,-3.0889,-3.0889,-3.0889,-3.0654,-3.0195,-2.9766,-2.9336,-2.8906,-2.8486,-2.8291,-2.8291,-2.8291,0.0,0.0,-2.7842,-2.7412,-2.6973,-2.6553,-2.6123,-2.5684,-2.5234,-2.4785,-2.4355,0.0,0.0,0.0,0.0,0.0,-1.4173,-1.4647,-1.5195,-1.5776,-1.6419,-1.665,-1.6855,-1.7158,-1.7564,-1.7625,-1.7213,-1.7634,0.0,0.0,0.0,0.0,0.0,0.0,0.0,0.0,0.0,-2.1546,-2.2679,-2.3705,-2.4114,0.0,0.0,-2.5371,-2.4493,0.0,0.0,0.0,0.0,0.0,0.0,0.0,0.0,0.0,0.0,0.0,0.0,0.0,0.0,0.0,0.0,0.0,-2.6268,-2.4296,-2.5068,-2.7835,-3.3324,-3.6883,-4.0403,-4.5586,-4.8868,-5.0632,-4.9992,-4.618,-4.1417,-3.6816,-3.2174,-2.7704,-2.393,-2.3135,-2.3135,-2.3135,-2.3135,-2.3242,-2.3545,-2.4209,-2.5234,-2.6797,-2.7529,-2.8935,-3.1699,0.0,-3.2529,0.0,-3.4365,-3.3672,-3.209,0.0,0.0,-3.0918,-3.0889,-3.0889,-3.0889,-3.0889,-3.0889,-3.0889,-3.0889,-3.0654,-3.0195,-2.9766,-2.9336,-2.8906,-2.8486,-2.8291,-2.8291,0.0,0.0,0.0,-2.7705,-2.7295,-2.6963,-2.6406,-2.6006,-2.5684,-2.5234,-2.4785,-2.4355,0.0,0.0,0.0,0.0,0.0,0.0,-1.5824,-1.6256,-1.642,-1.6127,-1.6455,-1.6665,-1.6738,-1.6348,-1.6125,-1.6115,-1.7445,0.0,0.0,0.0,0.0,0.0,0.0,0.0,0.0,0.0,-2.0866,-2.3369,-2.3424,-2.4119,-2.5384,-2.6162,-2.6481,-2.6481,0.0,0.0,0.0,0.0,0.0,0.0,0.0,0.0,0.0,0.0,0.0,0.0,0.0,0.0,0.0,0.0,0.0,0.0,0.0,-2.3883,-2.4039,-2.654,-3.1647,-3.71,-4.0281,-4.5278,-4.9741,-5.028,-4.618,-4.1057,-3.7286,-3.2407,-2.7704,-2.393,-2.3135,-2.3135,-2.3135,-2.3135,-2.3135,-2.3144,-2.3516,-2.456,-2.6709,-2.7021,-2.7822,-2.9971,-2.9853,-3.0283,-3.2031,-3.2949,-3.29,0.0,0.0,0.0,-3.0918,-3.0889,-3.0889,-3.0889,-3.0889,-3.0889,-3.0889,-3.0889,-3.0654,-3.0195,-2.9766,-2.9336,-2.8906,-2.8486,-2.8291,0.0,0.0,0.0,0.0,-2.7373,-2.7021,-2.6924,-2.6074,-2.5742,-2.5684,-2.5234,-2.4785,-2.4355,0.0,0.0,0.0,0.0,0.0,0.0,-1.6097,-1.6752,-1.7213,-1.7236,-1.7203,-1.7285,-1.7578,-1.7227,-1.6963,-1.6963,-1.7417,0.0,0.0,0.0,0.0,0.0,0.0,0.0,0.0,-2.08,-2.2205,-2.3803,-2.3981,-2.4341,-2.4991,-2.5867,-2.6019,-2.5561,-2.6288,-2.6451,0.0,0.0,0.0,0.0,0.0,0.0,0.0,0.0,0.0,0.0,0.0,0.0,0.0,0.0,0.0,0.0,0.0,0.0,0.0,-2.6417,-2.9397,-3.3227,-3.6874,-3.9485,-4.1136,-4.1303,-3.8234,-3.4482,-3.2383,-2.8773,-2.5297,-2.3487,-2.3135,-2.3135,-2.3135,-2.3135,-2.3242,-2.3535,-2.3447,-2.3789,-2.5059,-2.5762,-2.7041,-2.9482,-3.1475,-3.2744,0.0,0.0,-3.2275,0.0,0.0,0.0,-3.0898,-3.0889,-3.0889,-3.0889,-3.0889,-3.0889,-3.0889,-3.0889,-3.0518,-2.9766,-2.9629,-2.9189,-2.8486,-2.8359,0.0,0.0,0.0,0.0,0.0,-2.7246,-2.6846,-2.6533,-2.5957,-2.5742,-2.5684,-2.5234,-2.4785,-2.4355,0.0,0.0,0.0,0.0,0.0,0.0,-1.6845,-1.7514,-1.7868,-1.7627,-1.7451,-1.7432,-1.7705,-1.7393,-1.7207,-1.7373,-1.7274,0.0,0.0,0.0,0.0,0.0,0.0,0.0,-2.0381,-2.1391,-2.2551,-2.4004,-2.4115,-2.441,-2.4808,-2.5686,-2.5861,-2.5453,-2.5928,-2.6031,0.0,0.0,0.0,0.0,0.0,0.0,-2.5438,0.0,0.0,0.0,0.0,0.0,0.0,0.0,0.0,0.0,0.0,0.0,0.0,0.0,-2.6808,-2.9045,-3.3387,-3.5626,-3.6887,-3.7072,-3.443,-3.1521,-3.0292,-2.7081,-2.417,-2.331,-2.3135,-2.3135,-2.3135,-2.3135,-2.3232,-2.3496,-2.332,-2.3555,-2.4746,-2.5391,-2.6572,-2.8818,-3.1328,0.0,0.0,-3.209,0.0,0.0,0.0,0.0,-3.0889,-3.0889,-3.0889,-3.0889,-3.0889,-3.0889,-3.0889,-3.0713,-3.0273,-2.957,-2.9404,-2.8965,-2.8291,-2.8291,0.0,0.0,0.0,0.0,0.0,-2.7021,-2.6621,-2.6328,-2.5723,-2.5488,-2.541,-2.4805,-2.4414,-2.4121,0.0,0.0,0.0,0.0,0.0,0.0,0.0,-1.8429,-1.8409,-1.7515,-1.7375,-1.745,-1.752,-1.716,-1.7071,-1.7393,-1.7086,0.0,0.0,0.0,0.0,0.0,0.0,0.0,-2.1248,-2.1392,-2.2287,-2.4117,-2.4117,-2.4418,-2.4996,-2.5689,-2.5952,-2.5949,-2.6094,-2.6062,-2.5809,-2.4221,-2.3332,-2.314,-2.3833,-2.4471,0.0,0.0,0.0,0.0,0.0,0.0,0.0,0.0,0.0,0.0,0.0,0.0,0.0,0.0,0.0,0.0,0.0,-3.3049,-3.5397,-3.5911,-3.3597,-3.0942,-3.0135,-2.7047,0.0,-2.331,-2.3135,-2.3135,-2.3135,-2.3135,-2.3135,-2.3135,-2.3135,-2.375,-2.5488,-2.5947,-2.6719,0.0,-3.0049,0.0,-2.9756,-3.1182,0.0,0.0,0.0,0.0,-3.0889,-3.0889,-3.0869,-3.084,-3.084,-3.084,-3.084,-3.041,-2.9971,-2.9512,-2.9111,-2.8701,-2.8291,-2.8291,0.0,0.0,0.0,0.0,0.0,-2.668,-2.6328,-2.6211,-2.5352,-2.5019,-2.4922,-2.4092,-2.3789,-2.3721,0.0,0.0,0.0,0.0,0.0,0.0,0.0,0.0,0.0,0.0,-1.9257,-1.9057,-1.8892,-1.9041,-1.8818,0.0,0.0,0.0,0.0,0.0,0.0,0.0,0.0,0.0,-2.2321,-2.3009,-2.3941,-2.5222,-2.5222,-2.5724,-2.6703,-2.6886,-2.6726,-2.6362,-2.5908,-2.4722,-2.2923,-2.2817,-2.2561,-2.2332,-2.2854,-2.3814,0.0,0.0,0.0,0.0,-2.3756,-2.3436,0.0,0.0,0.0,0.0,0.0,0.0,0.0,0.0,-2.4927,-2.4882,-2.6065,0.0,-2.6311,-2.6773,-2.655,-2.5979,0.0,-2.4819,-2.417,-2.331,-2.3135,-2.3135,-2.3135,-2.3135,-2.3135,-2.3135,-2.3135,-2.375,-2.5488,-2.8018,-3.0068,-3.1133,-3.2187,-3.2236,-3.0723,-3.1543,0.0,0.0,0.0,-3.0889,-3.0889,-3.0889,-3.0732,-3.0371,-3.0361,-3.0361,-3.0361,-3.0254,-2.9824,-2.9072,-2.8965,-2.8701,-2.8291,-2.8291,0.0,0.0,0.0,0.0,-2.665,-2.6113,-2.5693,-2.5322,-2.4775,-2.457,-2.4502,-2.3984,-2.3789,-2.3721,0.0,0.0,0.0,0.0,0.0,0.0,0.0,0.0,0.0,0.0,-2.0052,-1.9896,-1.9933,-2.009,-1.979,0.0,0.0,0.0,0.0,0.0,0.0,0.0,0.0,-2.1476,-2.3238,-2.3729,-2.4519,-2.5598,-2.5598,-2.605,-2.6904,-2.6904,-2.6753,-2.6496,-2.5598,-2.4131,-2.227,-2.2248,-2.2003,-2.1794,-2.2201,0.0,0.0,0.0,0.0,0.0,-2.2525,-2.2067,0.0,-2.1559,-2.1929,-2.2566,0.0,0.0,0.0,0.0,-2.4271,-2.4049,-2.4049,-2.3839,-2.3789,-2.4023,-2.4394,-2.46,-2.417,-2.4102,-2.3935,-2.3271,-2.3135,-2.3135,-2.3135,-2.3301,-2.3369,-2.3174,-2.3809,-2.4873,-2.6406,-2.8398,-3.0166,-3.1435,-3.1982,-3.2051,0.0,0.0,0.0,0.0,0.0,-3.0801,-3.0586,-3.0576,-3.0371,-2.9922,-2.9912,-2.9912,-2.9912,-2.9707,-2.9375,-2.8916,-2.8721,-2.8516,-2.8281,-2.8096,-2.7881,0.0,0.0,0.0,-2.6055,-2.5615,-2.5166,-2.4727,-2.4297,-2.4131,-2.4082,-2.3652,-2.3496,-2.3457,0.0,0.0,0.0,0.0,0.0,0.0,0.0,0.0,0.0,0.0,0.0,0.0,0.0,0.0,0.0,0.0,0.0,0.0,0.0,0.0,0.0,0.0,-2.0717,-2.2116,-2.4092,-2.4117,-2.4695,-2.585,-2.5937,-2.6226,-2.6716,-2.6949,-2.6848,-2.6483,-2.5485,-2.4181,-2.2698,-2.2196,-2.1773,-2.1397,-2.1699,0.0,0.0,0.0,0.0,0.0,0.0,0.0,0.0,-2.0201,-2.0571,-2.1289,-2.2139,0.0,0.0,0.0,0.0,0.0,-2.3223,-2.3965,-2.4658,-2.4385,-2.4648,-2.4853,-2.4414,-2.4043,-2.3662,-2.3232,-2.3135,-2.3154,-2.3223,-2.3486,-2.3594,-2.3291,-2.4814,-2.6504,-2.7861,-2.8535,-2.9434,-3.0908,-3.1084,0.0,0.0,0.0,0.0,0.0,0.0,-3.0586,-3.0127,-3.0098,-2.9902,-2.9482,-2.9473,-2.9443,-2.9375,-2.9072,-2.8887,-2.8818,-2.8398,-2.8193,-2.8184,-2.7764,-2.75,0.0,0.0,0.0,-2.5498,-2.5059,-2.4658,-2.4277,-2.3857,-2.3691,-2.3643,-2.3271,-2.3135,-2.3135,0.0,0.0,0.0,0.0,0.0,0.0,0.0,0.0,0.0,0.0,0.0,0.0,0.0,0.0,0.0,0.0,0.0,0.0,0.0,0.0,0.0,-1.9874,-2.1287,-2.293,-2.4657,-2.4695,-2.546,-2.7017,-2.7494,-2.7758,-2.7871,-2.8825,-2.8273,-2.6521,-2.6289,-2.4883,-2.2721,-2.2639,-2.2149,-2.1397,-2.0984,0.0,0.0,0.0,0.0,0.0,0.0,0.0,0.0,-1.8612,-1.9442,-2.082,-2.1709,0.0,0.0,0.0,0.0,0.0,-2.3584,-2.4863,-2.5732,-2.4258,-2.4199,-2.4404,-2.3984,-2.3838,-2.3662,-2.3232,-2.3135,-2.3252,-2.3623,-2.3437,-2.334,-2.3643,-2.5762,-2.7939,0.0,0.0,-3.167,-3.1943,0.0,-3.1738,0.0,0.0,0.0,0.0,0.0,-3.0117,-2.9687,-2.9668,-2.9463,-2.9033,-2.9023,-2.8848,-2.8486,-2.8769,-2.874,-2.8389,-2.7959,-2.7764,-2.7744,-2.7314,-2.6719,0.0,0.0,-2.5371,-2.459,-2.416,-2.3945,-2.3848,-2.3408,-2.3242,-2.3232,-2.3164,-2.3135,-2.3135,0.0,0.0,0.0,0.0,0.0,0.0,0.0,0.0,0.0,0.0,0.0,0.0,0.0,0.0,0.0,0.0,0.0,0.0,0.0,0.0,-1.9729,-2.0118,-2.1395,-2.2817,-2.4414,-2.4971,-2.5912,-2.7281,-2.7544,-2.7821,-2.8109,-2.8335,-2.7733,-2.6508,-2.6138,-2.5361,-2.4206,-2.3732,-2.3157,-2.2472,0.0,0.0,0.0,0.0,0.0,0.0,0.0,0.0,0.0,0.0,-1.9502,-2.1035,-2.168,0.0,0.0,0.0,0.0,0.0,-2.3379,-2.4199,-2.4961,-2.4863,-2.5859,-2.668,-2.6035,-2.5889,-2.5557,-2.4414,-2.418,-2.4102,-2.3838,-2.4394,-2.5498,-2.7334,-2.7646,-2.8184,-2.9648,-2.9785,-2.999,0.0,0.0,0.0,0.0,0.0,0.0,0.0,0.0,0.0,-2.9258,-2.9219,-2.9023,-2.8594,-2.8584,-2.8379,-2.7959,-2.8144,-2.8144,-2.7949,-2.7519,-2.7314,-2.7305,-2.6865,-2.6338,-2.5723,0.0,-2.4883,-2.4062,-2.3867,-2.3652,-2.3418,-2.3213,-2.3135,-2.3135,-2.3135,-2.3135,-2.3135,0.0,0.0,0.0,0.0,0.0,0.0,0.0,0.0,0.0,0.0,0.0,0.0,0.0,0.0,0.0,0.0,0.0,0.0,0.0,-1.9495,-2.0041,-2.0247,-2.145,-2.2741,-2.4143,-2.5022,-2.6045,-2.7284,-2.746,-2.7826,-2.8375,-2.8142,-2.7627,-2.7082,-2.6506,-2.6159,-2.5851,-2.4832,-2.406,-2.3441,0.0,0.0,0.0,0.0,0.0,0.0,0.0,0.0,0.0,0.0,0.0,0.0,0.0,0.0,0.0,-2.3076,-2.3066,-2.3018,-2.3105,-2.3682,-2.4434,-2.5234,-2.6504,-2.7637,-2.79,-2.7578,-2.6982,-2.6143,-2.5967,-2.5644,-2.459,-2.5488,-2.7207,-2.9726,-2.9082,-2.8721,-3.0,-2.9248,-2.8965,-3.0049,-3.0,0.0,0.0,0.0,0.0,0.0,0.0,0.0,-2.8809,-2.8769,-2.8623,-2.8301,-2.8291,-2.8096,-2.7666,-2.7568,-2.751,-2.751,-2.707,-2.6865,-2.6855,-2.6435,-2.5937,-2.541,-2.5068,-2.4434,-2.3633,-2.3633,-2.3437,-2.3135,-2.3135,-2.3135,-2.3135,-2.3135,-2.3135,-2.3135,0.0,0.0,0.0,0.0,0.0,0.0,0.0,0.0,0.0,0.0,0.0,0.0,0.0,0.0,0.0,0.0,0.0,0.0,0.0,-1.9674,-1.9909,-1.9938,-2.1675,-2.3045,-2.3991,-2.4679,-2.5767,-2.7281,-2.7817,-2.8469,-2.9337,-2.9751,-2.9584,-2.8826,-2.8479,-2.7722,-2.6712,-2.5485,-2.4374,-2.3441,-2.2403,0.0,0.0,0.0,0.0,0.0,0.0,0.0,0.0,0.0,0.0,0.0,0.0,0.0,-2.2129,-2.291,-2.2861,-2.2646,-2.3027,-2.4346,-2.542,-2.4687,-2.4043,-2.4502,-2.8027,-2.7295,-2.6406,-2.8262,-2.8643,-2.8144,-2.6504,-2.6309,-2.6719,-2.7734,-2.9111,-3.0508,-3.1797,0.0,-3.1426,-3.1924,0.0,0.0,0.0,0.0,0.0,0.0,0.0,0.0,-2.8359,-2.834,-2.832,-2.8291,-2.8291,-2.8096,-2.7666,-2.7266,-2.706,-2.706,-2.6631,-2.6435,-2.6416,-2.5986,-2.5322,-2.4512,-2.4473,-2.3975,-2.3184,-2.3184,-2.3164,-2.3135,-2.3135,-2.3135,-2.3135,-2.3135,-2.3135,-2.3135,0.0,0.0,0.0,0.0,0.0,0.0,0.0,0.0,0.0,0.0,0.0,0.0,0.0,0.0,0.0,0.0,0.0,0.0,0.0,-1.9717,-2.0163,-2.1573,-2.1726,-2.2336,-2.3524,-2.4446,-2.5321,-2.6268,-2.7198,-2.8213,-2.9381,-2.8812,-2.8879,-2.9476,-2.8556,-2.822,-2.8166,-2.7074,-2.6133,-2.518,-2.423,-2.252,0.0,0.0,0.0,0.0,0.0,0.0,0.0,0.0,-2.0566,-2.1426,-2.1641,-2.2148,-2.2676,-2.2734,-2.2637,-2.2549,-2.2705,-2.3809,-2.4704,-2.3871,-2.3233,-2.4013,-2.8388,-2.854,-2.8151,-2.9395,-2.9961,-2.9619,-2.7891,-2.8223,-2.8867,-2.9189,-3.0254,-3.1211,-3.1699,-3.1396,-3.1191,0.0,0.0,0.0,0.0,0.0,0.0,0.0,0.0,0.0,-2.831,-2.8291,-2.8291,-2.8291,-2.8047,-2.7695,-2.7266,-2.6836,-2.6494,-2.6221,-2.6064,-2.5986,-2.5967,-2.5527,-2.499,-2.4404,-2.4141,-2.3691,-2.3135,-2.3135,-2.3135,-2.3135,-2.3135,-2.3135,-2.3135,-2.3135,-2.3135,-2.3135,0.0,0.0,0.0,0.0,0.0,0.0,0.0,0.0,0.0,0.0,0.0,0.0,0.0,0.0,0.0,0.0,0.0,0.0,-2.0829,-2.0388,-2.0876,-2.2627,-2.2149,-2.2501,-2.379,-2.4656,-2.5057,-2.5157,-2.6595,-2.7891,-2.8959,-2.8532,-2.9015,-3.0284,-2.919,-2.9086,-2.9645,-2.8573,-2.7525,-2.6578,-2.5775,-2.3944,0.0,0.0,0.0,0.0,0.0,0.0,0.0,0.0,-2.084,-2.1465,-2.1445,-2.1846,-2.2324,-2.2314,-2.2314,-2.2314,-2.2314,-2.2775,-2.329,-2.3467,-2.2808,-2.3465,-2.8607,-2.906,-2.9067,-3.1207,-3.124,-3.0527,-2.9336,-2.96,-3.0,0.0,-3.085,-3.1514,-3.1514,-3.1152,0.0,0.0,0.0,0.0,0.0,0.0,0.0,0.0,0.0,0.0,0.0,-2.8164,-2.8096,-2.8096,-2.7685,-2.7256,-2.6816,-2.6533,-2.6172,-2.5742,-2.5742,-2.5664,-2.5518,-2.5205,-2.4756,-2.4199,-2.3916,-2.3545,-2.3135,-2.3135,-2.3135,-2.3135,-2.3135,-2.3135,-2.3135,-2.3135,-2.3135,-2.3135,0.0,0.0,0.0,0.0,0.0,0.0,0.0,0.0,0.0,0.0,0.0,0.0,0.0,0.0,0.0,0.0,0.0,0.0,-2.1341,-2.1631,-2.2132,-2.2693,-2.31,-2.3824,-2.4971,-2.5384,-2.5146,-2.4187,-2.6256,-2.7501,-2.8009,-2.927,-3.0409,-3.1467,-3.0644,-3.0646,-3.1104,-2.9617,-2.8461,-2.7433,-2.6646,-2.5746,-2.4672,0.0,0.0,0.0,0.0,0.0,0.0,0.0,-2.0937,-2.0723,-2.1602,-2.1279,-2.0752,-2.1631,-2.1885,-2.1885,-2.1885,-2.14,-2.1369,-2.3297,-2.2408,-2.265,-2.8742,-2.8615,-2.8505,-3.363,-3.2676,-3.0908,-3.0898,-3.0176,-2.959,-2.957,-3.0664,-3.1514,-3.1514,-3.1152,0.0,0.0,0.0,0.0,0.0,0.0,0.0,0.0,0.0,0.0,0.0,-2.7891,-2.7666,-2.7656,-2.7236,-2.6807,-2.6396,-2.6387,-2.6162,-2.5742,-2.5732,-2.5498,-2.5068,-2.5059,-2.46,-2.3789,-2.3789,-2.3545,-2.3135,-2.3135,-2.3135,-2.3135,-2.3135,-2.3135,-2.3135,-2.3135,-2.3135,-2.3135,0.0,0.0,0.0,0.0,0.0,0.0,0.0,0.0,0.0,0.0,0.0,0.0,0.0,0.0,0.0,0.0,0.0,0.0,-2.2764,-2.1901,-2.2117,-2.3688,-2.3886,-2.4464,-2.5522,-2.5335,-2.5374,-2.5776,-2.6635,-2.7613,-2.874,-2.9679,-3.0638,-3.1482,-3.1219,-3.1249,-3.1353,-3.0341,-2.9723,-2.9372,-2.8552,-2.7578,-2.656,0.0,0.0,0.0,0.0,0.0,0.0,0.0,0.0,0.0,-2.0977,-2.1406,-2.1865,-2.1533,-2.1641,-2.1642,-2.0566,-2.1796,-2.3076,-2.1722,-2.3171,-2.562,-2.8331,-2.8477,-2.9226,-3.3378,-3.3174,-3.2041,-3.1445,-3.1113,0.0,-2.9717,-3.042,-3.1074,-3.1074,0.0,0.0,0.0,0.0,0.0,0.0,0.0,0.0,0.0,0.0,0.0,0.0,-2.7734,-2.7529,-2.7217,-2.6797,-2.6514,-2.6387,-2.6084,-2.5869,-2.5732,-2.542,-2.5195,-2.5059,-2.4746,-2.4307,-2.3769,-2.3467,-2.3262,-2.3135,-2.3135,-2.3135,-2.3135,-2.3135,-2.3135,-2.3135,-2.3135,-2.3135,-2.3135,0.0,0.0,0.0,0.0,0.0,0.0,0.0,0.0,0.0,0.0,-3.0911,-3.0726,0.0,0.0,0.0,0.0,0.0,0.0,-2.3608,-2.2752,-2.2953,-2.4371,-2.4447,-2.5158,-2.6651,-2.6384,-2.6657,-2.7427,-2.7075,-2.7821,-2.9518,-3.0587,-3.1523,-3.2332,-3.2871,-3.2811,-3.2243,-3.1795,-3.1231,-3.0732,-3.0145,-2.9394,-2.8457,0.0,0.0,0.0,0.0,0.0,0.0,0.0,0.0,0.0,-2.0596,-2.1103,-2.167,-2.1338,-2.1543,-2.1851,-2.1381,-2.2485,-2.373,-2.3572,-2.5036,-2.7151,-2.916,-3.0153,-3.1342,-3.3827,-3.3643,-3.2842,-3.2148,-3.1748,0.0,-3.0244,-3.0547,-3.0889,-3.0889,0.0,0.0,0.0,0.0,0.0,0.0,0.0,0.0,0.0,0.0,0.0,0.0,-2.75,-2.7217,-2.6787,-2.6182,-2.5869,-2.5869,-2.5605,-2.5391,-2.5205,-2.5117,-2.4893,-2.4551,-2.4287,-2.3935,-2.3516,-2.3252,-2.3135,-2.3135,-2.3135,-2.3135,-2.3135,-2.3135,-2.3135,-2.3135,-2.3135,-2.3135,-2.3135,0.0,0.0,0.0,0.0,0.0,0.0,0.0,0.0,0.0,0.0,-3.1437,-3.1452,0.0,0.0,0.0,0.0,0.0,0.0,0.0,-2.4029,-2.4243,-2.4795,-2.5008,-2.6063,-2.8059,-2.816,-2.8348,-2.8774,-2.7629,-2.8225,-3.0395,-3.1729,-3.283,-3.3634,-3.4876,-3.4696,-3.3484,-3.3365,-3.2617,-3.1453,-3.1302,-3.0881,-3.0266,-2.9165,0.0,0.0,0.0,0.0,0.0,0.0,0.0,0.0,-2.0458,-2.0508,-2.0576,-2.0947,-2.1455,-2.2148,-2.3252,-2.3341,-2.3864,-2.7342,-2.7663,-2.7865,-3.0878,-3.2649,-3.3756,-3.4212,-3.3866,-3.3223,-3.2536,-3.1895,-3.1435,-3.0771,-3.0762,-3.083,-3.083,0.0,0.0,0.0,0.0,0.0,0.0,0.0,0.0,0.0,0.0,0.0,0.0,-2.7226,-2.6787,-2.6289,-2.5488,-2.5049,-2.501,-2.501,-2.4805,0.0,-2.4785,-2.4541,-2.3789,-2.3789,-2.3555,-2.3135,-2.3135,-2.3135,-2.3135,-2.3135,-2.3135,-2.3135,-2.3135,-2.3135,-2.3135,-2.3135,-2.3135,-2.3135,0.0,0.0,0.0,0.0,0.0,0.0,0.0,0.0,0.0,0.0,0.0,0.0,0.0,0.0,0.0,0.0,0.0,0.0,0.0,-2.4243,-2.4243,-2.4795,-2.6477,-2.762,-2.8097,-2.8536,-2.8511,-2.7965,-2.8318,-2.9258,-3.0755,-3.2995,-3.4122,-3.4277,-3.4562,-3.4247,-3.3425,-3.2392,-3.1735,-3.1497,-3.1426,-3.1338,-3.1116,-2.9686,-2.858,0.0,0.0,0.0,0.0,0.0,0.0,0.0,-2.0246,-2.0059,-2.001,-1.9775,-2.0742,-2.1835,-2.1624,-2.323,-2.5408,-2.6727,-2.8756,-3.0791,-3.1846,-3.1276,-3.0825,-3.1543,-3.2882,-3.3001,-2.996,-3.0803,-3.1503,-2.9823,-2.9944,-3.0342,-3.0342,0.0,0.0,0.0,0.0,0.0,0.0,0.0,0.0,0.0,0.0,0.0,-2.7197,-2.707,-2.6504,-2.5391,-2.5166,-2.4902,-2.456,-2.456,-2.4512,0.0,-2.418,-2.3965,-2.3789,-2.3789,-2.3555,-2.3135,-2.3135,-2.3135,-2.3135,-2.3135,-2.3135,-2.3135,-2.3135,-2.3135,-2.3135,-2.3135,-2.3135,-2.3135,0.0,0.0,0.0,0.0,0.0,0.0,0.0,0.0,0.0,0.0,0.0,0.0,0.0,0.0,0.0,0.0,0.0,0.0,0.0,0.0,-2.4757,-2.5573,-2.7205,-2.8109,-2.8109,-2.8386,-2.8315,-2.7906,-2.8199,-2.9429,-3.149,-3.3129,-3.4303,-3.4996,-3.5609,-3.4996,-3.3469,-3.3095,-3.2392,-3.1497,-3.1884,-3.1824,-3.1379,-3.022,-2.934,-2.8474,-2.6343,0.0,0.0,0.0,0.0,0.0,0.0,0.0,-2.0179,-1.9738,-2.0381,-2.1481,-2.2378,-2.4313,-2.6501,-2.8267,-2.9571,-3.0445,-3.0662,-2.9605,-2.8446,-2.7939,-2.9471,-3.0155,-2.7966,-2.9235,-3.0326,-2.8917,-2.954,-3.0195,0.0,0.0,0.0,0.0,0.0,0.0,0.0,0.0,0.0,0.0,0.0,-2.7705,-2.7051,-2.6621,-2.5996,-2.5098,-2.4668,-2.4346,-2.4121,-2.3553,-2.3164,-2.2947,-2.2947,-2.3124,-2.3477,-2.3477,-2.335,-2.3135,-2.3135,-2.3135,-2.3135,-2.3135,-2.3135,-2.3135,-2.3135,-2.3135,-2.3135,-2.3135,-2.3135,-2.3135,0.0,0.0,0.0,0.0,0.0,0.0,0.0,0.0,0.0,0.0,0.0,0.0,0.0,0.0,0.0,0.0,0.0,0.0,0.0,0.0,0.0,-2.6553,-2.7482,-2.7959,-2.7959,-2.8059,-2.8009,-2.7821,-2.7717,-2.9066,-3.1923,-3.278,-3.3988,-3.5487,-3.6455,-3.5699,-3.3664,-3.3754,-3.2841,-3.1405,-3.1839,-3.1689,-3.1066,-3.0309,-2.958,-2.8741,-2.6654,0.0,0.0,0.0,0.0,0.0,0.0,0.0,-2.0305,-1.9766,-2.0,-2.0957,-2.3242,-2.5215,-2.7266,-2.999,-2.9808,-2.9034,-2.9034,-2.7804,-2.627,-2.4751,-2.5985,-2.6983,-2.5988,-2.7289,-2.8392,-2.7633,-2.8507,-2.9374,0.0,0.0,0.0,0.0,0.0,0.0,0.0,0.0,0.0,0.0,0.0,-2.7441,-2.6934,-2.6162,-2.5498,-2.4971,-2.4199,-2.375,-2.3682,-2.2472,-2.1644,-2.1293,-2.1653,-2.2295,-2.3135,-2.3135,-2.3135,-2.3135,-2.3135,-2.3135,-2.3135,-2.3135,-2.3135,-2.3135,-2.3135,-2.3135,-2.3135,-2.3135,-2.3135,-2.3135,0.0,0.0,0.0,0.0,0.0,0.0,0.0,0.0,0.0,0.0,-3.105,-3.073,0.0,0.0,0.0,0.0,0.0,0.0,0.0,0.0,0.0,-2.7118,-2.7318,-2.7394,-2.7394,-2.7858,-2.7632,-2.6678,-2.7145,-2.8479,-3.0659,-3.2365,-3.3859,-3.5096,-3.494,-3.4666,-3.4203,-3.1973,-3.0881,-3.0612,-3.0148,-2.9924,-2.9774,-2.9098,-2.8355,-2.758,-2.6563,-2.5606,-2.4732,-2.3692,-2.2947,0.0,0.0,0.0,-1.9297,-1.8507,-1.9092,-2.0244,-2.1357,-2.4512,-2.7861,-2.9365,-2.915,-2.8498,-2.8498,-2.623,-2.4075,-2.3826,-2.5659,-2.6215,-2.2865,-2.4795,-2.6298,-2.4479,-2.5066,-2.6024,0.0,0.0,0.0,0.0,0.0,0.0,0.0,0.0,0.0,0.0,-2.7695,-2.7314,-2.6514,-2.6006,-2.5361,-2.4531,-2.4043,-2.3603,-2.3232,-2.2026,-2.1347,-2.1293,-2.1347,-2.1989,-2.3135,-2.3135,-2.3135,-2.3135,-2.3135,-2.3135,-2.3135,-2.3135,-2.3135,-2.3135,-2.3135,-2.3135,-2.3135,-2.3135,-2.3135,-2.3135,0.0,0.0,0.0,0.0,0.0,0.0,0.0,0.0,0.0,0.0,0.0,-3.047,0.0,0.0,0.0,-2.4832,0.0,0.0,0.0,0.0,0.0,-2.6766,-2.6816,-2.6816,-2.6816,-2.7055,-2.6791,-2.5975,-2.5925,-2.7139,-2.9571,-3.0616,-3.2166,-3.41,-3.3801,-3.3533,-3.305,-3.1634,-3.0851,-3.0477,-3.0208,-3.0328,-3.0597,-2.9924,-2.9729,-2.943,-2.713,-2.6123,-2.5585,-2.3766,-2.3044,-2.2724,-2.1422,0.0,0.0,0.0,-1.8904,-1.9707,-2.2031,-2.459,-2.707,-2.9072,-2.7967,-2.6439,-2.6979,-2.4532,-2.2223,-2.2223,-2.3051,-2.333,-2.1571,-2.3288,-2.4533,-2.3465,-2.419,0.0,0.0,0.0,0.0,0.0,0.0,0.0,0.0,0.0,0.0,0.0,-2.7441,-2.6924,-2.6064,-2.5371,-2.4707,-2.4082,-2.3652,-2.333,-2.3135,-2.1933,-2.1293,-2.1293,-2.0567,-2.1311,-2.3135,-2.3135,-2.3135,-2.3135,-2.3135,-2.3135,-2.3135,-2.3135,-2.3135,-2.3135,-2.3135,-2.3135,-2.3135,-2.3135,-2.3135,-2.3135,0.0,0.0,0.0,0.0,0.0,0.0,0.0,0.0,0.0,0.0,0.0,0.0,0.0,0.0,0.0,0.0,-2.4815,0.0,0.0,0.0,0.0,-2.6311,-2.6489,-2.6367,-2.605,-2.6176,-2.5963,-2.5398,-2.5146,-2.6289,-2.8712,-2.8975,-3.0388,-3.2664,-3.2863,-3.2639,-3.2054,-3.1218,-3.0743,-3.0492,-3.0328,-3.0582,-3.0944,-3.0401,-3.0419,-3.0336,-2.7351,-2.6092,-2.5632,-2.3897,-2.3263,-2.2944,-2.2125,-2.1428,0.0,0.0,0.0,-1.939,-2.2334,-2.3929,-2.5342,-2.7812,-2.6367,-2.4474,-2.5403,-2.3249,-2.1022,-2.1096,-2.1109,-2.1089,-2.1009,-2.1985,-2.2762,-2.2515,-2.3422,0.0,0.0,0.0,0.0,0.0,0.0,0.0,0.0,0.0,0.0,0.0,-2.7197,-2.6592,-2.5615,-2.4834,-2.4228,-2.3799,-2.3359,-2.3135,-2.3135,-2.1943,-2.1302,-2.1293,-2.0395,-2.1033,-2.3135,-2.3135,-2.3135,-2.3135,-2.3135,-2.3135,-2.3135,-2.3135,-2.3135,-2.3135,-2.3135,-2.3135,-2.3135,-2.3135,-2.3135,-2.3135,0.0,0.0,0.0,0.0,0.0,0.0,0.0,0.0,0.0,0.0,0.0,0.0,-3.0596,-2.8702,-2.7187,-2.6447,-2.6204,-2.6315,-2.6832,-2.69,0.0,-2.5936,-2.6398,0.0,-2.4921,-2.5385,-2.5385,-2.4858,-2.5322,-2.644,-2.8147,-2.8195,-2.9063,-3.0808,-3.2025,-3.2428,-3.2089,-3.0093,-2.9711,-3.0447,-2.9864,-2.9654,-2.9675,-2.9478,-2.9016,-2.8312,-2.6553,-2.5302,-2.4366,-2.4073,-2.359,-2.2944,-2.2125,-2.1877,-2.169,0.0,0.0,0.0,-2.0938,-2.1688,-2.2607,-2.4766,-2.4235,-2.3435,-2.4482,-2.263,-2.0775,-2.1049,-2.1109,-2.1029,-2.0748,-2.0819,-2.0812,-2.0799,-2.1589,0.0,0.0,0.0,0.0,0.0,0.0,0.0,0.0,0.0,0.0,0.0,-2.7021,-2.6455,-2.5166,-2.4668,-2.4228,-2.3799,-2.3359,-2.3135,-2.3135,-2.1872,-2.132,-2.1293,-2.1203,-2.1845,-2.3135,-2.3135,-2.3135,-2.3135,-2.3135,-2.3135,-2.3135,-2.3135,-2.3135,-2.3135,-2.3135,-2.3135,-2.3135,-2.3135,-2.3135,-2.3135,0.0,0.0,0.0,0.0,0.0,0.0,0.0,0.0,0.0,0.0,0.0,0.0,0.0,-2.8927,-2.7768,-2.6621,-2.5993,-2.5756,-2.5962,-2.5962,0.0,-2.6734,-2.6414,-2.6175,-2.6142,-2.5432,-2.5008,-2.482,-2.428,-2.5247,-2.757,-2.7218,-2.7934,-2.9503,-3.0204,-3.0468,-3.0283,-2.899,-2.8663,-2.9114,-2.9783,-3.0336,-3.0783,-3.0584,-3.1256,-3.1941,-2.8976,-2.7482,-2.6726,-2.573,-2.4407,-2.3078,-2.2763,-2.2322,-2.1753,-2.0846,-2.0398,-2.0325,-2.1039,-2.135,-2.1827,-2.3477,-2.3354,-2.2808,-2.3059,-2.223,-2.1237,-2.0604,-2.0548,-2.0514,-2.0408,-2.0548,-2.0555,-2.0174,-2.1192,0.0,0.0,0.0,0.0,0.0,0.0,0.0,0.0,0.0,0.0,0.0,0.0,-2.6035,-2.4717,-2.4502,-2.4102,-2.3389,-2.3223,-2.3135,-2.3135,-2.1863,-2.1676,-2.2492,-2.1667,-2.1933,-2.3135,-2.3135,-2.3135,-2.3135,-2.3135,-2.3135,-2.3135,-2.3135,-2.3135,-2.3135,-2.3135,-2.3135,-2.3135,-2.3135,-2.3135,-2.3135,0.0,0.0,0.0,0.0,0.0,0.0,0.0,0.0,-3.1478,-3.1544,0.0,0.0,0.0,0.0,-2.8494,-2.7325,-2.6558,-2.6346,-2.6773,-2.6603,-2.6833,-2.7549,-2.6952,-2.6601,-2.6638,-2.5422,-2.4732,-2.4544,-2.3791,-2.4583,-2.6812,-2.6388,-2.729,-2.9158,-2.8464,-2.8634,-2.9372,-2.8463,-2.8477,-2.9073,-3.0398,-3.1538,-3.2437,-3.1714,-3.2263,-3.3083,-3.0271,-2.8592,-2.7632,-2.7808,-2.6676,-2.5058,-2.4378,-2.345,-2.2543,-2.1667,-2.1393,-2.14,-2.1426,-2.1112,-2.1083,-2.2452,-2.2105,-2.1492,-2.1919,-2.1433,-2.0694,-2.0172,-2.0087,-2.0087,-2.0087,-2.0247,-2.0254,-1.986,-2.1423,0.0,0.0,0.0,0.0,0.0,0.0,0.0,0.0,0.0,0.0,0.0,0.0,0.0,-2.4482,-2.4414,-2.4023,-2.3164,-2.3135,-2.3135,-2.3135,-2.2306,-2.2306,-2.3047,-2.2306,-2.2306,-2.3135,-2.3135,-2.3135,-2.3135,-2.3135,-2.3135,-2.3135,-2.3135,-2.3135,-2.3135,-2.3135,-2.3135,-2.3135,-2.3135,-2.3135,-2.3135,0.0,0.0,0.0,0.0,0.0,0.0,0.0,0.0,-3.1411,-3.1564,0.0,0.0,0.0,0.0,0.0,-2.8712,-2.8038,-2.8203,-2.949,-2.8928,-2.8503,-2.8396,0.0,0.0,-2.6197,-2.5269,-2.4569,-2.4017,-2.4004,-2.4606,-2.5831,-2.5664,-2.6972,-2.9463,-2.6775,-2.7011,-2.9346,-2.8654,-2.9059,-3.028,-3.1665,-3.3089,-3.4188,-3.2585,-3.1692,-3.131,-3.0144,-2.8319,-2.6894,-3.0117,-3.0271,-2.8879,-2.6795,-2.5309,-2.4144,-2.339,-2.3088,-2.2917,0.0,0.0,0.0,-2.1554,-2.0437,-1.9436,-2.0958,-2.0146,-1.9198,-1.9645,-1.9838,-1.9844,-1.9753,-1.9766,-1.9773,-1.9773,-2.2024,0.0,0.0,0.0,0.0,0.0,0.0,0.0,0.0,0.0,0.0,0.0,-2.6611,-2.5801,-2.4482,-2.4394,-2.3994,-2.3164,-2.3135,-2.3135,-2.3135,-2.3135,-2.3135,-2.3135,-2.3135,-2.3135,-2.3135,-2.3135,-2.3135,-2.3135,-2.3135,-2.3135,-2.3135,-2.3135,-2.3135,-2.3135,-2.3135,-2.3135,-2.3135,-2.3135,-2.3135,-2.3135,0.0,0.0,0.0,0.0,0.0,-3.2183,-3.1988,-3.1291,-3.0754,0.0,0.0,0.0,-2.9221,-2.944,-2.9684,-2.9953,-2.9278,-2.8795,-2.8693,-2.7912,-2.7664,-2.8116,-2.7439,-2.7086,-2.7248,-2.6023,-2.5121,-2.4594,-2.4192,-2.4192,-2.4505,-2.4482,-2.5268,-2.667,-2.5924,-2.5971,-2.6659,-2.6438,-2.6909,-2.7917,-3.0471,-3.1543,-3.1713,-3.2339,-3.3413,-3.4328,-3.2125,-3.1703,-3.2113,-3.2263,-3.0319,-2.74,-2.5275,-2.4364,-2.417,-2.4447,-2.4541,-2.4245,-2.3017,0.0,0.0,0.0,0.0,0.0,0.0,0.0,-1.9763,-1.9063,-1.9753,-2.0067,-1.9061,-1.9786,-2.026,-1.9273,-2.1722,0.0,0.0,0.0,0.0,0.0,0.0,0.0,0.0,0.0,0.0,0.0,-2.6328,-2.5478,-2.4473,-2.3828,-2.3379,-2.3144,-2.3135,-2.3135,-2.3135,-2.3135,-2.3135,-2.3135,-2.3135,-2.3135,-2.3135,-2.3135,-2.3135,-2.3135,-2.3135,-2.3135,-2.3135,-2.3135,-2.3135,-2.3135,-2.3135,-2.3135,-2.3135,-2.3135,-2.3135,-2.3135,0.0,0.0,0.0,0.0,-3.2765,-3.2461,-3.2856,-3.2033,-3.1435,0.0,0.0,0.0,-2.9864,-3.0163,-3.0537,-3.0911,-2.99,-2.916,-2.8785,-2.7911,-2.7533,-2.7704,-2.7314,-2.7196,-2.7367,-2.6215,-2.5335,-2.482,-2.4268,-2.4052,-2.4115,-2.375,-2.4453,-2.5876,-2.4976,-2.5013,-2.5755,-2.5391,-2.5831,-2.7038,-3.0006,-3.1924,-3.2975,-3.337,-3.4506,-3.5557,-3.3738,-3.3211,-3.3507,-3.424,-3.1777,0.0,-2.6205,-2.4921,-2.4214,-2.4567,-2.4693,-2.459,-2.3682,-2.2983,-2.2359,-2.1609,0.0,0.0,-2.0936,-2.0665,-2.0367,0.0,-2.0496,-2.0451,-1.9766,-2.0155,-2.0267,-1.9409,-2.1196,0.0,0.0,0.0,0.0,0.0,0.0,0.0,0.0,-2.7412,-2.6943,-2.6768,-2.6123,-2.5352,-2.4463,-2.3603,-2.3135,-2.3135,-2.3135,-2.3135,-2.3135,-2.3135,-2.3135,-2.3135,-2.3135,-2.3135,-2.3135,-2.3135,-2.3135,-2.3135,-2.3135,-2.3135,-2.3135,-2.3135,-2.3135,-2.3135,-2.3135,-2.3135,-2.3135,-2.3135,-2.3135,-2.3135,0.0,0.0,-3.3021,-3.3021,-3.2477,-3.2384,-3.3342,-3.2914,-3.2706,0.0,-3.2422,-3.1704,-3.1839,-3.1794,-3.1691,-3.1691,-3.0338,-2.9445,-2.9331,-2.8363,-2.7537,-2.7157,-2.732,-2.7236,-2.6671,-2.6008,-2.5372,-2.4732,-2.4305,-2.4121,-2.4176,-2.3424,-2.4131,-2.5942,-2.3986,-2.4093,-2.57,-2.5065,-2.5601,-2.7092,-3.0053,-3.3001,-3.551,-3.4871,-3.5085,-3.569,-3.4802,-3.3707,-3.2988,-3.5596,-3.3775,0.0,0.0,0.0,0.0,0.0,-2.4352,-2.4472,-2.4111,-2.3133,-2.2234,0.0,-2.1678,0.0,-2.2476,-2.1577,-2.0756,0.0,-2.1405,-2.0834,-2.1021,-2.0498,-2.0001,-1.9859,-2.0602,0.0,0.0,0.0,0.0,0.0,0.0,0.0,-2.7773,-2.7295,-2.6865,-2.6484,-2.5918,-2.5254,-2.4453,-2.3603,-2.3135,-2.3135,-2.3135,-2.3135,-2.3135,-2.3135,-2.3135,-2.3135,-2.3135,-2.3135,-2.3135,-2.3135,-2.3135,-2.3135,-2.3135,-2.3135,-2.3135,-2.3135,-2.3135,-2.3135,-2.3135,-2.3135,-2.3135,-2.3135,-2.3135,-2.3135,0.0,-3.2652,-3.2723,-3.2723,-3.2139,-3.2008,-3.3013,-3.2593,-3.2484,-3.3408,-3.2811,-3.2721,-3.3784,-3.3425,-3.311,-3.311,-3.1602,-3.0247,-2.9129,-2.7167,-2.605,-2.5935,-2.5955,-2.5762,-2.5229,-2.5971,-2.5586,-2.4167,-2.4494,-2.4192,-2.3305,-2.3185,-2.3296,-2.3744,-2.3296,-2.3311,-2.3745,-2.4494,-2.5517,-2.6802,-2.9606,-3.1097,-3.1914,-3.3964,-3.5297,-3.5968,-3.458,-3.4954,-3.5946,-3.4771,-3.2932,-3.082,0.0,0.0,0.0,-2.5766,0.0,0.0,0.0,0.0,0.0,0.0,0.0,0.0,-2.2775,-2.1207,-1.9717,0.0,-2.0454,-2.0418,-1.9686,-2.0506,-2.076,-1.9328,-2.0559,0.0,0.0,0.0,0.0,0.0,0.0,0.0,-2.8067,-2.7471,-2.6982,-2.6904,-2.5518,-2.46,-2.4424,-2.3603,-2.3135,-2.3135,-2.3135,-2.3135,-2.3135,-2.3135,-2.3135,-2.3135,-2.3135,-2.3135,-2.3135,-2.3135,-2.3135,-2.3135,-2.3135,-2.3135,-2.3135,-2.3135,-2.3135,-2.3135,-2.3135,-2.3135,-2.3135,-2.3135,-2.3135,-2.3135,-3.1349,-3.1609,-3.1888,-3.1888,-3.1645,-3.1728,-3.2736,-3.2269,-3.2108,-3.2967,-3.2737,-3.2876,-3.3695,-3.3789,-3.3652,-3.3483,-3.2347,-3.0749,-2.8706,-2.7139,-2.5806,-2.482,-2.5059,-2.5096,-2.4833,-2.536,-2.5234,-2.4406,-2.4406,-2.3979,-2.3078,-2.3078,-2.3078,-2.3078,-2.3078,-2.3078,-2.3153,-2.4343,-2.5611,-2.7067,-2.9302,-3.1067,-3.2455,-3.4075,-3.5219,-3.5805,-3.4658,-3.5015,-3.5642,-3.3993,-3.2163,0.0,-2.9223,-2.7621,-2.6005,0.0,-2.5743,-2.5512,0.0,0.0,0.0,-2.3708,0.0,0.0,0.0,-2.2835,-2.1857,-2.2239,-2.189,-2.1352,-2.0922,-2.0905,-2.0773,-2.0124,-2.0553,-2.1071,0.0,0.0,0.0,0.0,0.0,0.0,-2.7591,-2.7266,-2.6836,-2.6406,-2.5156,-2.4414,-2.4414,-2.3603,-2.3135,-2.3135,-2.3135,-2.3135,-2.3135,-2.3135,-2.3135,-2.3135,-2.3135,-2.3135,-2.3135,-2.3135,-2.3135,-2.3135,-2.3135,-2.3135,-2.3135,-2.3135,-2.3135,-2.3135,-2.3135,-2.3135,-2.3135,-2.3135,-2.3135,-2.3135,-3.0075,-3.0419,-3.0895,-3.0895,-3.0895,-3.1254,-3.2177,-3.191,-3.176,-3.2538,-3.2593,-3.2779,-3.3217,-3.3955,-3.4336,-3.4274,-3.3489,-3.1854,-2.9261,-2.7948,-2.6335,-2.4268,-2.4582,-2.472,-2.4506,-2.4707,-2.4707,-2.4494,-2.4167,-2.3703,-2.3078,-2.3078,-2.3078,-2.3078,-2.3303,-2.3401,-2.3315,-2.4619,-2.6088,-2.7733,0.0,-3.1509,-3.4038,-3.4546,-3.5038,-3.5529,-3.475,-3.445,-3.4236,-3.3385,-3.1641,-2.9764,-2.9091,-2.7359,0.0,0.0,0.0,0.0,0.0,0.0,0.0,0.0,0.0,-2.4426,0.0,0.0,0.0,0.0,0.0,0.0,0.0,0.0,0.0,0.0,0.0,0.0,0.0,0.0,0.0,0.0,0.0,0.0,0.0,-2.6768,-2.6445,-2.5664,-2.4795,-2.4297,-2.4297,-2.3555,-2.3135,-2.3135,-2.3135,-2.3135,-2.3135,-2.3135,-2.3135,-2.3135,-2.3135,-2.3135,-2.3135,-2.3135,-2.3135,-2.3135,-2.3135,-2.3135,-2.3135,-2.3135,-2.3135,-2.3135,-2.3135,-2.3135,-2.3135,-2.3135,-2.3135,-2.3135,-2.9869,-2.9869,-2.9934,-2.9934,-2.9934,-3.0279,-3.1254,-3.1262,-3.1602,-3.2451,-3.2593,-3.2933,-3.379,-3.5047,-3.6079,-3.6903,-3.6241,-3.4794,-3.2514,-3.0052,-2.7472,-2.4859,-2.4795,-2.4356,-2.3351,-2.4305,-2.433,-2.3265,-2.3778,-2.3703,-2.3078,-2.3078,-2.3078,-2.3115,-2.418,-2.4356,-2.4004,-2.5598,-2.7231,0.0,-2.9515,-3.1442,0.0,-3.4489,-3.5045,-3.5398,-3.435,-3.3656,-3.3246,0.0,-3.1861,-3.0278,0.0,-2.866,-2.7896,-2.5021,0.0,0.0,0.0,0.0,0.0,0.0,-2.4234,0.0,0.0,0.0,-2.4149,-2.4377,0.0,0.0,0.0,0.0,0.0,0.0,0.0,0.0,0.0,0.0,0.0,0.0,0.0,0.0,0.0,-2.5879,-2.5674,-2.5176,-2.4346,-2.3857,-2.3857,-2.3408,-2.3135,-2.3135,-2.3135,-2.3135,-2.3135,-2.3135,-2.3135,-2.3135,-2.3135,-2.3135,-2.3135,-2.3135,-2.3135,-2.3135,-2.3135,-2.3135,-2.3135,-2.3135,-2.3135,-2.3135,-2.3135,-2.3135,-2.3135,-2.3135,-2.3135,-2.3135,-2.9603,-2.9792,-2.9792,-2.9792,-2.9515,-2.9542,-3.0304,-3.0419,-3.057,-3.0921,-3.0996,-3.1474,-3.2727,-3.3038,-3.408,-3.6326,-3.5894,-3.4833,0.0,-3.1249,-2.8904,-2.6168,-2.4925,-2.4268,-2.4117,-2.3941,-2.3778,-2.364,-2.354,-2.3376,-2.3078,-2.3078,-2.3078,-2.3128,-2.4318,-2.4858,-2.4996,-2.6025,-2.7607,0.0,0.0,0.0,0.0,-3.3684,-3.3909,-3.406,-3.3583,-3.3269,-3.3091,0.0,-3.1538,0.0,0.0,0.0,0.0,0.0,0.0,0.0,0.0,0.0,0.0,0.0,0.0,0.0,-2.4828,0.0,-2.4828,0.0,0.0,0.0,0.0,0.0,0.0,0.0,-2.161,0.0,0.0,0.0,0.0,0.0,0.0,0.0,0.0,0.0,0.0,0.0,-2.4131,-2.3789,-2.3789,-2.3379,-2.3135,-2.3135,-2.3135,-2.3135,-2.3135,-2.3135,-2.3135,-2.3135,-2.3135,-2.3135,-2.3135,-2.3135,-2.3135,-2.3135,-2.3135,-2.3135,-2.3135,-2.3135,-2.3135,-2.3135,-2.3135,-2.3135,-2.3135,-2.3135,-2.3135,-2.3135,-2.9553,-2.9541,-2.9428,-2.9741,-2.9315,-2.9126,-2.9704,-2.9654,-2.9616,-2.9779,-2.9792,-3.0292,-3.1609,-3.213,-3.3607,-3.6501,-3.6763,-3.5957,0.0,0.0,-3.0721,-2.7404,-2.5662,-2.4925,-2.5154,-2.3977,-2.3502,-2.3766,-2.3339,-2.3078,-2.3078,-2.3078,-2.3078,-2.3128,-2.4318,-2.5197,-2.5875,-2.6603,-2.8197,-3.0269,-3.067,-3.1549,-3.2667,-3.3119,-3.3206,-3.3081,-3.3081,-3.2968,-3.2792,-3.2503,-3.0959,0.0,-3.003,0.0,0.0,0.0,0.0,0.0,-2.3991,0.0,0.0,0.0,0.0,0.0,0.0,0.0,0.0,0.0,0.0,0.0,0.0,0.0,0.0,0.0,0.0,-2.2865,0.0,0.0,0.0,0.0,0.0,0.0,0.0,0.0,0.0,-2.4453,-2.3916,-2.3613,-2.3613,-2.331,-2.3135,-2.3135,-2.3135,-2.3135,-2.3135,-2.3135,-2.3135,-2.3135,-2.3135,-2.3135,-2.3135,-2.3135,-2.3135,-2.3135,-2.3135,-2.3135,-2.3135,-2.3135,-2.3135,-2.3135,-2.3135,-2.3135,-2.3135,-2.3135,-2.3135,-2.3135,-2.9779,-2.8913,-2.8499,-2.9603,-2.9315,-2.9126,-2.9704,-2.9315,-2.9164,-2.9716,-2.9792,-3.0152,-3.1132,-3.3754,-3.6416,-3.8678,0.0,-3.9722,-3.6331,0.0,-3.2968,0.0,0.0,-2.6612,0.0,-2.4717,-2.3703,-2.3103,-2.3078,-2.3078,-2.3078,-2.3078,-2.3078,-2.3128,-2.4318,-2.5423,-2.6571,-2.7595,-2.9327,-3.1336,-3.1361,-3.1399,-3.1625,0.0,-3.3545,-3.3081,-3.3081,0.0,0.0,-3.1047,-3.0281,0.0,0.0,0.0,0.0,0.0,0.0,0.0,0.0,0.0,0.0,-2.3353,0.0,0.0,0.0,0.0,-2.5504,0.0,0.0,0.0,0.0,0.0,0.0,0.0,0.0,0.0,0.0,0.0,0.0,0.0,0.0,0.0,0.0,0.0,0.0,-2.4385,-2.3643,-2.3164,-2.3164,-2.3144,-2.3135,-2.3135,-2.3135,-2.3135,-2.3135,-2.3135,-2.3135,-2.3135,-2.3135,-2.3135,-2.3135,-2.3135,-2.3135,-2.3135,-2.3135,-2.3135,-2.3135,-2.3135,-2.3135,-2.3135,-2.3135,-2.3135,-2.3135,-2.3135,-2.3135,-2.3135,-2.9076,-2.8624,-2.8335,-2.9089,-2.8461,-2.8021,-2.8586,-2.9151,-2.9955,-3.1223,-3.1399,0.0,0.0,-3.4576,-3.6051,0.0,0.0,-3.7977,-3.6263,-3.5079,0.0,0.0,0.0,-2.7398,0.0,0.0,-2.4607,-2.3703,-2.3703,-2.3703,-2.3703,-2.3314,-2.3339,-2.374,-2.4494,-2.5837,-2.757,0.0,0.0,0.0,0.0,-3.0758,-3.1449,0.0,0.0,-3.2051,-3.2805,-3.2704,0.0,-3.1788,-3.0834,-2.9754,-2.9553,-2.8725,-2.7795,-2.7607,-2.7293,0.0,0.0,0.0,-2.7005,-2.4808,0.0,0.0,0.0,0.0,0.0,0.0,0.0,0.0,0.0,0.0,0.0,0.0,0.0,0.0,0.0,0.0,0.0,0.0,0.0,0.0,0.0,0.0,0.0,-2.3584,-2.3971,-2.3887,-2.3135,-2.3135,-2.3135,-2.3135,-2.3135,-2.3135,-2.3135,-2.3135,-2.3135,-2.3135,-2.3135,-2.3135,-2.3135,-2.3135,-2.3135,-2.3135,-2.3135,-2.3135,-2.3135,-2.3135,-2.3135,-2.3135,-2.3135,-2.3135,-2.3135,-2.3135,-2.3135,-2.3135,-2.9139,-2.8787,-2.8511,-2.8863,-2.8185,-2.7758,-2.831,-2.9189,-3.0306,0.0,-3.2265,0.0,-3.5052,0.0,-3.6078,0.0,-3.8055,-3.7197,-3.5548,-3.5221,0.0,-3.2624,-3.0583,0.0,0.0,0.0,0.0,0.0,-2.4569,-2.4469,-2.428,-2.3703,-2.364,-2.4004,-2.4155,-2.5674,-2.8109,-2.8109,-2.9603,0.0,0.0,-3.0206,0.0,0.0,-3.106,-3.1512,0.0,-3.2403,-3.1888,-3.1712,-3.0821,-2.9854,-3.0218,-2.934,-2.8247,-2.8599,-2.821,-2.7557,-2.7155,-2.7971,0.0,-2.6239,-2.664,0.0,-2.5434,0.0,0.0,0.0,0.0,0.0,0.0,0.0,0.0,0.0,0.0,0.0,0.0,-2.4036,0.0,0.0,0.0,0.0,0.0,0.0,-2.4201,-2.3724,-2.3907,-2.3654,0.0,0.0,-2.3135,-2.3135,-2.3135,-2.3135,-2.3135,-2.3135,-2.3135,-2.3135,-2.3135,-2.3135,-2.3135,-2.3135,-2.3135,-2.3135,-2.3135,-2.3135,-2.3135,-2.3135,-2.3135,-2.3135,-2.3135,-2.3135,-2.3135,-2.3135,-2.3135,-2.3135,-2.9777,-2.9149,-2.8762,-2.885,-2.8399,0.0,0.0,0.0,-3.0206,0.0,-3.2503,-3.3633,-3.4801,-3.5855,-3.6701,-3.7256,-3.8267,-3.7568,-3.4558,-3.5869,0.0,0.0,-3.3642,-3.328,-3.2959,0.0,0.0,0.0,0.0,-2.5335,-2.4808,-2.4255,-2.4004,-2.3966,-2.3389,-2.4946,-2.7984,-2.7984,-2.988,-3.2692,-3.062,-2.9792,-2.9804,-2.9854,-3.0507,-3.1461,-3.2051,-3.1888,-3.1311,-3.0821,-3.0269,-2.9792,-2.9792,-2.9792,-2.9792,-2.9792,-2.9792,-2.9553,-2.8486,-2.8599,-2.875,-2.7645,0.0,0.0,0.0,0.0,-2.5586,0.0,0.0,0.0,0.0,0.0,0.0,0.0,0.0,0.0,0.0,0.0,0.0,0.0,0.0,0.0,0.0,-2.3412,-2.3118,-2.4639,-2.3348,-2.2556,0.0,0.0,-2.3135,-2.3135,-2.3164,-2.3164,-2.3135,-2.3135,-2.3135,-2.3135,-2.3135,-2.3135,-2.3135,-2.3135,-2.3135,-2.3135,-2.3135,-2.3135,-2.3135,-2.3135,-2.3135,-2.3135,-2.3135,-2.3135,-2.3135,-2.3135,-2.3135,-2.3135,-2.7951,-2.7172,-2.6674,0.0,-2.7915,-2.816,0.0,0.0,0.0,0.0,-3.4223,-3.5655,-3.76,-3.8052,-3.8187,-3.7884,-3.7706,0.0,0.0,0.0,0.0,-3.509,-3.3904,-3.3323,-3.3563,-3.1059,0.0,-2.6854,0.0,-2.5335,-2.4808,-2.4255,-2.4004,-2.3966,-2.3389,-2.4293,-2.6239,-2.6239,-2.7695,-2.998,-2.9842,-2.9792,0.0,0.0,-3.1148,-3.1512,-3.2503,-3.2227,-3.1373,-3.1235,-3.057,-2.9792,-2.9792,-2.9792,-2.9792,-2.9792,-2.9792,-2.9729,-2.944,-2.9767,-2.9905,-2.8787,-2.8938,-2.9063,0.0,0.0,0.0,0.0,0.0,0.0,0.0,0.0,0.0,0.0,0.0,0.0,0.0,0.0,0.0,-2.4707,0.0,0.0,0.0,-2.3012,-2.3192,-2.4314,-2.3398,-2.3236,0.0,0.0,0.0,-2.3135,-2.3457,-2.3467,-2.3144,-2.3135,-2.3135,-2.3135,-2.3135,-2.3135,-2.3135,-2.3135,-2.3135,-2.3135,-2.3135,-2.3135,-2.3135,-2.3135,-2.3135,-2.3135,-2.3135,-2.3135,-2.3135,-2.3135,-2.3135,-2.3135,-2.7057,-2.645,-2.6141,-2.6563,0.0,0.0,-2.9163,-2.9315,0.0,-3.3181,-3.4299,0.0,-3.7224,-3.7839,-3.8002,-3.7676,-3.7149,0.0,-3.5253,0.0,0.0,-3.5943,-3.5262,-3.4749,-3.4614,-3.2631,0.0,-2.7996,0.0,-2.6163,-2.5146,-2.4607,-2.4356,-2.4318,-2.3502,-2.433,-2.6414,-2.762,-2.8586,-2.9377,-3.0168,0.0,0.0,-3.0909,-3.1499,-3.2177,-3.2566,-3.229,-3.1675,-3.121,-3.0645,-3.0118,-2.9867,-2.9792,-2.9792,-2.9792,-2.9792,-2.9792,-2.9792,-3.0357,-3.0796,-3.0168,-3.062,-3.0934,-2.9792,-2.9176,-2.88,0.0,0.0,0.0,0.0,0.0,0.0,0.0,0.0,0.0,0.0,0.0,0.0,0.0,-2.4591,0.0,0.0,-2.2481,-2.2577,-2.3556,-2.2925,0.0,0.0,0.0,0.0,-2.3144,-2.3379,-2.3477,-2.3428,-2.3232,-2.3135,-2.3135,-2.3135,-2.3135,-2.3135,-2.3135,-2.3135,-2.3135,-2.3135,-2.3135,-2.3135,-2.3135,-2.3135,-2.3135,-2.3135,-2.3135,-2.3135,-2.3135,-2.3135,-2.3135,-2.6385,-2.6058,0.0,0.0,0.0,0.0,0.0,-3.019,0.0,-3.3169,0.0,-3.4801,-3.5768,-3.6722,-3.7236,-3.7086,0.0,-3.5956,-3.5002,-3.5768,-3.6386,-3.6494,-3.6695,-3.6406,-3.5542,-3.4235,-3.207,0.0,0.0,-2.7243,-2.5586,-2.5059,-2.4782,-2.4669,-2.369,0.0,0.0,-2.9804,-3.0394,-2.9779,-3.0934,-3.1386,-3.1348,-3.0972,-3.1763,-3.2993,-3.234,-3.2102,-3.1964,-3.1035,-3.067,-3.052,-2.9967,-2.9842,-2.988,-2.9817,-2.9792,-2.9792,-2.9792,-3.047,-3.121,-3.1348,-3.2127,-3.2641,-3.18,-3.0834,-2.9829,-2.885,-2.821,-2.7632,0.0,0.0,0.0,0.0,0.0,0.0,0.0,0.0,0.0,0.0,0.0,0.0,0.0,0.0,-2.158,-2.2892,-2.213,0.0,0.0,0.0,0.0,-2.3242,-2.3281,0.0,-2.3789,0.0,-2.3193,-2.3135,-2.3135,-2.3135,-2.3135,-2.3135,-2.3135,-2.3135,-2.3135,-2.3135,-2.3135,-2.3135,-2.3135,-2.3135,-2.3135,-2.3135,-2.3135,-2.3135,-2.3135,-2.3135,-2.3897,-2.3724,0.0,0.0,0.0,-2.9207,-3.156,-3.2894,-3.4211,-3.5604,-3.6659,-3.7362,-3.755,-3.7751,-3.75,-3.6584,-3.642,0.0,0.0,0.0,0.0,-3.6417,-3.5552,-3.5021,-3.4819,-3.3262,-3.1511,0.0,0.0,0.0,-2.5586,-2.5059,-2.4569,-2.413,-2.3941,0.0,-2.6666,-2.7607,0.0,-2.9214,-3.0771,-3.1386,-3.1436,-3.18,-3.2403,-3.2943,-3.1901,-3.1537,-3.1499,-3.1323,-3.0972,-3.052,-2.9967,-3.0105,-3.0382,-2.993,-2.9792,-2.9792,-2.9792,-2.993,-3.0281,-3.1173,-3.1537,-3.1876,-3.2616,-3.2265,-3.1738,-3.1537,-3.106,-3.0369,-2.939,0.0,0.0,0.0,0.0,0.0,0.0,0.0,0.0,0.0,0.0,-2.4859,0.0,0.0,0.0,0.0,0.0,0.0,0.0,0.0,0.0,0.0,-2.4014,0.0,0.0,0.0,-2.3496,-2.3135,-2.3135,-2.3135,-2.3135,-2.3135,-2.3135,-2.3135,-2.3135,-2.3135,-2.3135,-2.3135,-2.3135,-2.3135,-2.3135,-2.3135,-2.3135,-2.3135,-2.3135,-2.3135,-2.3222,0.0,0.0,0.0,0.0,0.0,0.0,-3.526,-3.6646,-3.6019,-3.5906,-3.5881,-3.5881,-3.6646,-3.6935,-3.6408,-3.6358,-3.6245,-3.5956,-3.5692,-3.5529,-3.5516,-3.5002,-3.4587,-3.4299,-3.3219,-3.1725,-2.9792,0.0,0.0,-2.5197,0.0,0.0,-2.487,0.0,-2.6414,0.0,0.0,0.0,-3.0331,-3.1712,-3.2265,-3.2227,-3.1901,-3.2315,-3.2832,-3.1097,-3.0526,-3.0584,-3.091,-3.0821,-3.057,-3.0306,-3.0206,-3.0193,-3.0218,-3.0018,-2.9792,-2.9792,-2.9993,-3.0344,-3.0859,-3.1399,-3.1888,-3.2139,-3.1989,-3.1712,-3.1436,-3.1386,-3.1235,-3.0721,-2.9289,0.0,0.0,0.0,0.0,0.0,0.0,0.0,0.0,0.0,0.0,0.0,0.0,0.0,0.0,0.0,0.0,0.0,0.0,0.0,0.0,0.0,0.0,0.0,0.0,0.0,-2.3135,-2.3135,-2.3135,-2.3135,-2.3135,-2.3135,-2.3135,-2.3135,-2.3135,-2.3135,-2.3135,-2.3135,-2.3135,-2.3135,-2.3135,-2.3047,-2.2403,-2.258,-2.3135,-2.3919,-2.3231,0.0,0.0,-2.9338,0.0,-3.3863,-3.6689,-3.7927,-3.6282,-3.5316,-3.4726,-3.4613,-3.5755,-3.6483,-3.637,-3.6257,-3.6006,-3.5567,-3.5328,-3.5052,-3.4738,-3.45,-3.4223,-3.3909,-3.3357,-3.2114,0.0,0.0,0.0,0.0,0.0,0.0,0.0,0.0,0.0,0.0,0.0,-3.0634,-3.1026,-3.1982,-3.2339,-3.2228,-3.116,-3.1393,-3.2017,-2.9948,-2.9385,-2.9591,-2.9852,-3.0183,-3.045,-3.0703,-3.057,-3.0369,-3.0683,-3.0394,-2.9967,-2.9967,-3.0193,-3.039,-3.0238,-3.0885,-3.1335,-3.0848,-3.0606,-3.0491,-3.027,-3.0848,-3.1323,-3.1097,-3.0457,0.0,0.0,0.0,0.0,0.0,0.0,0.0,0.0,0.0,0.0,-2.4858,0.0,0.0,0.0,0.0,0.0,0.0,0.0,0.0,0.0,0.0,-2.3652,-2.3662,0.0,-2.3574,0.0,-2.3135,-2.3135,-2.3135,-2.3135,-2.3135,-2.3135,-2.3135,-2.3135,-2.3135,-2.3135,-2.3135,-2.3135,-2.3135,-2.3135,-2.295,-2.1756,-2.1933,-2.2687,0.0,0.0,0.0,0.0,0.0,0.0,-3.4234,-3.6172,-3.745,-3.7739,-3.7688,-3.7437,-3.6923,-3.701,-3.691,-3.6408,-3.5906,-3.5604,-3.5542,-3.4613,-3.4248,-3.47,-3.3771,-3.3432,-3.3884,-3.3357,-3.2466,0.0,0.0,0.0,0.0,0.0,0.0,0.0,0.0,0.0,0.0,-2.9594,-2.9636,-2.9636,-2.9738,-2.9772,-2.9716,-2.9071,-2.9206,-2.9545,-2.8352,-2.8208,-2.8611,-2.8105,-2.8808,-3.0037,-3.0984,-3.1625,-3.1901,-3.1449,-3.0947,-3.0545,-3.0545,-3.0218,-2.9733,-2.9193,-2.9116,-2.9047,-2.854,-2.8032,-2.7943,-2.8892,-3.0323,-3.1097,-3.0118,-3.0269,-3.0189,0.0,0.0,0.0,0.0,0.0,0.0,-3.0645,0.0,0.0,0.0,-2.3175,0.0,0.0,0.0,0.0,0.0,0.0,0.0,-2.3115,0.0,-2.3203,-2.3223,-2.3603,-2.3574,-2.3135,-2.3135,-2.3135,-2.3135,-2.3135,-2.3135,-2.3135,-2.3135,-2.3135,-2.3135,-2.3135,-2.3135,-2.3135,-2.3135,-2.3135,-2.295,-2.1747,-2.1382,-2.1535,0.0,0.0,0.0,0.0,0.0,0.0,0.0,-3.6223,-3.6529,-3.4769,-3.5991,-3.6935,-3.6709,-3.6684,-3.6596,-3.6383,-3.5868,-3.5403,-3.5077,-3.4324,-3.3847,-3.3746,-3.3319,-3.3181,-3.3395,-3.3194,-3.2516,0.0,0.0,0.0,0.0,0.0,0.0,0.0,0.0,-2.7916,-2.8459,-2.8854,-2.9126,-2.9407,-2.9407,-2.9407,-2.9351,-2.8768,-2.8891,-2.9226,-2.7623,-2.7345,-2.7618,-2.7624,-2.8066,-2.8666,-2.9507,-2.9617,-2.9546,-2.9664,-2.9324,-2.8771,-2.855,-2.8316,-2.8058,-2.7614,-2.7727,-2.7767,-2.7257,-2.7217,-2.729,-2.7401,-2.9083,-3.0516,-3.0651,-3.1129,-3.151,0.0,0.0,0.0,0.0,0.0,0.0,0.0,0.0,-2.6394,0.0,0.0,0.0,0.0,0.0,0.0,0.0,0.0,0.0,-2.2373,0.0,-2.3291,-2.2773,-2.3447,-2.3574,-2.3135,-2.3135,-2.3135,-2.3135,-2.3135,-2.3135,-2.3135,-2.3135,-2.2677,-2.212,-2.2775,-2.2677,-2.212,-2.2862,-2.3135,-2.2901,-2.111,-2.0924,-2.1416,-2.9686,0.0,-2.9309,0.0,-3.2849,-3.2637,-3.4375,-3.5302,-3.4963,-3.2577,-3.4032,-3.5281,-3.5528,-3.5515,-3.5454,-3.54,-3.4799,-3.4317,-3.3934,-3.339,-3.3108,-3.3093,-3.3081,0.0,-3.2525,-3.2513,-3.1945,-3.0822,-2.8988,0.0,0.0,0.0,0.0,0.0,-2.7325,-2.7723,-2.7665,-2.8116,-2.8283,-2.8308,-2.8308,-2.8308,-2.8265,-2.785,-2.8017,-2.8172,-2.6837,-2.6453,-2.6598,-2.6927,-2.7045,-2.7349,-2.851,-2.8545,-2.8244,-2.869,-2.8444,-2.7887,-2.7629,-2.7428,-2.7119,-2.6389,-2.6447,-2.6483,-2.5665,-2.5817,-2.6097,-2.6143,-2.7895,-2.9687,-3.0313,-3.0993,-3.1368,-3.1249,0.0,0.0,0.0,0.0,0.0,0.0,-2.7059,-2.5995,-2.4977,-2.1866,0.0,0.0,0.0,0.0,0.0,0.0,0.0,0.0,0.0,0.0,0.0,-2.3232,-2.3447,-2.3135,-2.3135,-2.3135,-2.3135,-2.3135,-2.3135,-2.3135,-2.3135,-2.2589,-2.1845,-2.2403,-2.2106,-2.1572,-2.2415,-2.2856,-2.2721,-2.122,-2.124,-2.1835,-2.9373,-2.7669,-2.7489,-3.3042,-3.1255,-3.0006,-3.2766,-3.2769,-3.2342,-3.2342,-3.2331,-3.2651,-3.3445,-3.3577,-3.3375,-3.2969,-3.2444,-3.2146,-3.2134,-3.1532,-3.1777,0.0,0.0,-3.2513,-3.1223,-3.1211,-3.0664,-2.9385,0.0,0.0,-2.6867,0.0,-2.5871,-2.6936,-2.7424,-2.7662,-2.7568,-2.7579,-2.6935,-2.5732,-2.5732,-2.5732,-2.5732,-2.5732,-2.5732,-2.5732,-2.5732,-2.5723,-2.5732,-2.5732,-2.5732,-2.6187,-2.8669,-2.9396,-2.9385,-2.9396,-2.9048,-2.8578,-2.8567,-2.811,-2.7348,-2.5781,-2.5413,-2.5037,-2.3485,-2.3144,-2.3602,-2.5145,-2.7106,-2.8578,-2.8589,-2.9071,-2.8873,-2.7236,0.0,0.0,0.0,0.0,0.0,0.0,-2.699,-2.6563,-2.5846,0.0,0.0,0.0,0.0,0.0,0.0,0.0,0.0,-2.249,-2.2519,0.0,-2.251,-2.293,-2.3144,-2.3135,-2.3135,-2.3135,-2.3135,-2.3135,-2.3135,-2.3135,-2.3135,-2.3047,-2.296,-2.1845,-2.1545,-2.1832,-2.1924,-2.2158,-2.2407,-2.2501,-2.2595,-2.265,-3.1315,-3.0841,-3.0708,-3.2532,-3.1984,-3.1116,-3.0863,-3.145,-3.113,-2.893,-2.9484,-2.999,-2.9893,-3.1296,-3.2094,0.0,-3.1086,-3.08,0.0,-3.032,-3.0135,-3.0598,-3.0598,-3.0406,-2.9954,-2.9954,-2.9761,-2.9407,0.0,0.0,0.0,-2.4883,-2.5219,-2.6074,-2.6293,-2.629,-2.6294,-2.6294,-2.611,-2.5742,-2.5742,-2.5742,-2.5742,-2.5742,-2.5742,-2.5742,-2.5742,-2.5742,-2.5742,-2.5742,-2.5742,-2.583,-2.6658,-2.6839,-2.6839,-2.6839,-2.6737,-2.6553,-2.633,-2.6043,-2.5666,-2.4576,-2.4306,-2.4177,-2.3702,-2.3809,-2.4222,-2.5013,-2.6412,-2.7522,-2.7854,-2.8756,-2.9259,-2.8657,-2.9032,0.0,0.0,0.0,0.0,0.0,-2.4266,-2.371,0.0,-2.1288,0.0,0.0,0.0,0.0,0.0,0.0,0.0,0.0,-2.293,0.0,-2.2519,-2.293,-2.3135,-2.3135,-2.3135,-2.3291,-2.3584,-2.3584,-2.3584,-2.3584,-2.3584,-2.3118,-2.237,-2.2438,-2.2451,-2.2396,-2.2969,-2.3486,-2.3691,-2.3094,-2.2907,-2.2925,-3.0824,-3.0824,-3.0824,-3.0824,-3.0675,-3.0166,-2.9096,-2.9499,-2.9279,-2.7245,-2.7693,-2.8102,-2.7564,-2.8785,0.0,-2.9704,-2.9387,-2.9211,-2.9211,-2.8937,-2.8958,-2.9407,-2.9407,-2.9223,-2.8773,0.0,0.0,-2.8038,-2.6723,-2.5631,-2.4912,-2.4912,-2.5205,-2.5742,-2.5742,-2.5742,-2.5742,-2.5742,-2.5742,-2.5742,-2.5742,-2.5742,-2.5742,-2.5742,-2.5742,-2.5742,-2.5742,-2.5742,-2.5742,-2.5742,-2.5742,-2.5742,-2.5742,-2.5742,-2.5742,-2.5742,-2.5742,-2.5674,-2.54,-2.5322,-2.5156,-2.4443,-2.4268,-2.4228,-2.4062,-2.4355,-2.4736,-2.501,-2.5849,-2.6513,-2.6788,-2.7484,-2.8038,-2.8038,-2.8038,-2.791,-2.7537,0.0,0.0,0.0,0.0,0.0,0.0,-2.1521,0.0,0.0,0.0,0.0,0.0,0.0,0.0,-2.2373,-2.3291,0.0,-2.2754,-2.3008,-2.3135,-2.3135,-2.3301,-2.3613,-2.4023,-2.4023,-2.4023,-2.4023,-2.4023,-2.3558,-2.2879,-2.29,-2.2806,-2.2804,-2.342,-2.3851,-2.4146,-2.4016,-2.4022,-2.4022,-2.8252,-2.8252,0.0,0.0,-2.7881,0.0,-2.7588,-2.7226,-2.6963,-2.6924,-2.6924,-2.6777,-2.6387,-2.6338,-2.6655,-2.7441,0.0,0.0,0.0,-2.7463,-2.7913,-2.9131,-2.9098,-2.8555,-2.7494,-2.7494,-2.6849,-2.5742,-2.5742,-2.5742,-2.5742,-2.5742,-2.5742,-2.5742,-2.5742,-2.5742,-2.5742,-2.5742,-2.5742,-2.5742,-2.5742,-2.5742,-2.5742,-2.5742,-2.5742,-2.5742,-2.5742,-2.5742,-2.5742,-2.5742,-2.5742,-2.5742,-2.5742,-2.5742,-2.5742,-2.5742,-2.5742,-2.5742,-2.5742,-2.5742,-2.5635,-2.5176,-2.5068,-2.4961,-2.4551,-2.4805,-2.5117,-2.5117,-2.5449,-2.5742,-2.5742,-2.5742,-2.5742,-2.5742,-2.5664,-2.5312,-2.4492,0.0,0.0,0.0,0.0,0.0,0.0,-2.3379,-2.331,0.0,0.0,0.0,0.0,0.0,-2.3242,-2.3184,-2.3633,-2.3672,-2.3232,-2.3223,-2.3223,-2.3232,-2.3643,-2.4053,-2.4463,-2.4463,-2.4463,-2.4463,-2.4463,-2.4463,-2.437,-2.3186,-2.2953,-2.3229,-2.3405,-2.3544,-2.389,-2.5226,-2.5635,-2.5538,0.0,0.0,-2.7705,-2.7373,-2.7236,-2.706,-2.6738,-2.6602,-2.6416,-2.6084,-2.6045,-2.5996,-2.5908,-2.5889,-2.5947,-2.612,-2.61,-2.61,-2.61,-2.5879,-2.5924,-2.6552,-2.6324,-2.6114,-2.6197,-2.61,-2.6014,-2.5742,-2.5742,-2.5742,-2.5742,-2.5742,-2.5742,-2.5742,-2.5742,-2.5742,-2.5742,-2.5742,-2.5742,-2.5742,-2.5742,-2.5742,-2.5742,-2.5742,-2.5742,-2.5742,-2.5742,-2.5742,-2.5742,-2.5742,-2.5742,-2.5742,-2.5742,-2.5742,-2.5742,-2.5742,-2.5742,-2.5742,-2.5742,-2.5742,-2.5635,-2.5176,-2.5068,-2.5039,-2.4941,-2.5264,-2.5586,-2.5586,-2.5664,-2.5742,-2.5742,-2.5742,-2.5742,-2.5742,-2.4902,-2.418,-2.3965,-2.3624,0.0,0.0,-2.2705,-2.3156,-2.3252,-2.3213,-2.3193,0.0,0.0,0.0,0.0,-2.3906,-2.4307,-2.3662,-2.4375,-2.456,-2.4121,-2.4111,-2.4111,-2.4111,-2.4219,-2.4502,-2.4912,-2.4912,-2.4912,-2.4912,-2.4912,-2.4912,-2.4883,-2.4272,-2.4392,-2.5043,-2.4804,-2.4234,-2.389,-2.5226,-2.502,-2.4304,-2.7666,-2.751,-2.7363,-2.7314,-2.6992,-2.6719,-2.668,-2.6348,-2.6006,-2.5762,-2.5742,-2.5742,-2.5742,-2.5742,-2.5654,-2.5449,-2.5615,-2.5644,-2.5449,-2.5205,-2.5176,-2.542,-2.5195,-2.5283,-2.5723,-2.5742,-2.5742,-2.5742,-2.5742,-2.5742,-2.5742,-2.5742,-2.5742,-2.5742,-2.5742,-2.5742,-2.5742,-2.5742,-2.5742,-2.5742,-2.5742,-2.5742,-2.5742,-2.5742,-2.5742,-2.5742,-2.5742,-2.5742,-2.5742,-2.5742,-2.5742,-2.5742,-2.5742,-2.5742,-2.5742,-2.5742,-2.5742,-2.5742,-2.5742,-2.5742,-2.5684,-2.5439,-2.5371,-2.5371,-2.5371,-2.5566,-2.5742,-2.5742,-2.5742,-2.5742,-2.5742,-2.5742,-2.5674,-2.5469,-2.4512,-2.3721,-2.3516,-2.293,0.0,-2.2744,-2.3125,-2.3633,-2.4268,-2.415,-2.4033,-2.4023,0.0,0.0,-2.3428,-2.4648,-2.4883,-2.3828,-2.4619,-2.4863,-2.4424,-2.4414,-2.4521,-2.4717,-2.4717,-2.4951,-2.5371,-2.5371,-2.5371,-2.5371,-2.5371,-2.5371,-2.5352,-2.5117,-2.5303,-2.5713,-2.5469,-2.4704,-2.3791,-2.451,-2.4304,-2.3791,-2.7412,-2.7168,-2.7041,-2.7412,-2.6816,-2.6435,-2.6855,-2.625,-2.5742,-2.5742,-2.5742,-2.5742,-2.5742,-2.5742,-2.5586,-2.5205,-2.5518,-2.5518,-2.5,-2.4912,-2.4932,-2.5059,-2.5,-2.5215,-2.5723,-2.5742,-2.5742,-2.5742,-2.5742,-2.5742,-2.5742,-2.5742,-2.5742,-2.5742,-2.5742,-2.5742,-2.5742,-2.5742,-2.5742,-2.5742,-2.5742,-2.5742,-2.5742,-2.5742,-2.5742,-2.5742,-2.5742,-2.5742,-2.5742,-2.5742,-2.5742,-2.5742,-2.5742,-2.5742,-2.5742,-2.5742,-2.5742,-2.5742,-2.5742,-2.5742,-2.5742,-2.5742,-2.5742,-2.5742,-2.5742,-2.5742,-2.5742,-2.5742,-2.5742,-2.5742,-2.5742,-2.5742,-2.5566,-2.5049,-2.4141,-2.3369,-2.2998,0.0,-2.2734,-2.3594,-2.4238,-2.4912,-2.5664,-2.5391,-2.5166,-2.5166,-2.5166,-2.4971,0.0,-2.5293,-2.5205,-2.4023,-2.4756,-2.499,-2.4619,-2.4619,-2.4805,-2.5166,-2.5166,-2.5371,-2.5742,-2.5742,-2.5742,-2.5742,-2.5742,-2.5742,-2.5742,-2.5742,-2.5742,-2.5635,-2.543,-2.4609,-2.3384,-2.3384,-2.332,-2.3164,-2.6641,-2.6533,-2.6514,-2.6572,-2.6172,-2.5986,-2.6416,-2.6064,-2.5742,-2.5742,-2.5742,-2.5742,-2.5742,-2.5742,-2.5713,-2.5635,-2.5693,-2.5391,-2.457,-2.4189,-2.4316,-2.5039,-2.4717,-2.4902,-2.5723,-2.5742,-2.5742,-2.5742,-2.5742,-2.5742,-2.5742,-2.5742,-2.5742,-2.5742,-2.5742,-2.5742,-2.5742,-2.5742,-2.5742,-2.5742,-2.5742,-2.5742,-2.5742,-2.5742,-2.5742,-2.5742,-2.5742,-2.5742,-2.5742,-2.5742,-2.5742,-2.5742,-2.5742,-2.5742,-2.5742,-2.5742,-2.5742,-2.5742,-2.5742,-2.5742,-2.5742,-2.5742,-2.5742,-2.5742,-2.5742,-2.5742,-2.5742,-2.5742,-2.5742,-2.5742,-2.5742,-2.5742,-2.5469,-2.4648,-2.3203,-2.2158,-2.209,0.0,-2.2305,-2.3164,-2.4609,-2.5586,-2.5723,-2.5674,-2.5635,-2.5635,-2.5635,-2.5439,-2.499,-2.5459,-2.5469,-2.4893,-2.5371,-2.5605,-2.5527,-2.5527,-2.5566,-2.5635,-2.5635,-2.5674,-2.5742,-2.5742,-2.5742,-2.5742,-2.5742,-2.5742,-2.5742,-2.5742,-2.5742,-2.5635,-2.4402,-2.3176,-2.2055,-2.2055,-2.1439,-2.0833,-2.6387,-2.6201,-2.6182,-2.6641,-2.6182,-2.5957,-2.6621,-2.6162,-2.5742,-2.5742,-2.5742,-2.5742,-2.5742,-2.5742,-2.5644,-2.54,-2.5166,-2.4756,-2.4121,-2.4326,-2.4551,-2.4717,-2.4746,-2.5078,-2.5723,-2.5742,-2.5742,-2.5742,-2.5742,-2.5742,-2.5742,-2.5742,-2.5742,-2.5742,-2.5742,-2.5742,-2.5742,-2.5742,-2.5742,-2.5742,-2.5742,-2.5742,-2.5742,-2.5742,-2.5742,-2.5742,-2.5742,-2.5742,-2.5742,-2.5742,-2.5742,-2.5742,-2.5742,-2.5742,-2.5742,-2.5742,-2.5742,-2.5742,-2.5742,-2.5742,-2.5742,-2.5742,-2.5742,-2.5742,-2.5742,-2.5742,-2.5742,-2.5742,-2.5742,-2.5742,-2.5742,-2.5742,-2.5371,-2.4258,-2.3232,0.0,0.0,-2.2568,-2.2969,-2.4053,-2.5107,-2.5742,-2.5742,-2.5742,-2.5742,-2.5742,-2.5742,-2.5644,-2.5439,-2.5625,-2.5644,-2.5439,-2.5635,-2.5742,-2.5742,-2.5742,-2.5742,-2.5742,-2.5742,-2.5742,-2.5742,-2.5742,-2.5742,-2.5742,-2.5742,-2.5323,-2.4707,-2.543,-2.5226,-2.4609,-2.389,-2.2868,-2.1651,-2.0845,-2.0235,-1.9964,-2.6172,-2.5967,-2.5977,-2.6738,-2.624,-2.5996,-2.6758,-2.623,-2.5742,-2.5742,-2.5742,-2.5742,-2.5742,-2.5742,-2.5596,-2.5254,-2.4912,-2.4541,-2.4111,-2.4805,-2.498,-2.4443,-2.4941,-2.5381,-2.5732,-2.5742,-2.5742,-2.5742,-2.5742,-2.5742,-2.5742,-2.5742,-2.5742,-2.5742,-2.5742,-2.5742,-2.5742,-2.5742,-2.5742,-2.5742,-2.5742,-2.5742,-2.5742,-2.5742,-2.5742,-2.5742,-2.5742,-2.5742,-2.5742,-2.5742,-2.5742,-2.5742,-2.5742,-2.5742,-2.5742,-2.5742,-2.5742,-2.5742,-2.5742,-2.5742,-2.5742,-2.5742,-2.5742,-2.5742,-2.5742,-2.5742,-2.5742,-2.5742,-2.5742,-2.5742,-2.5742,-2.5742,-2.5342,-2.4131,0.0,0.0,0.0,-2.3301,-2.373,-2.4922,-2.5469,-2.5742,-2.5742,-2.5742,-2.5742,-2.5742,-2.543,-2.5226,-2.5226,-2.5226,-2.5469,-2.5879,-2.5791,-2.5742,-2.5742,-2.5742,-2.5791,-2.5889,-2.5781,-2.584,-2.6025,-2.583,-2.5791,-2.5889,-2.5781,-2.5118,-2.4205,-2.4922,-2.4609,-2.3692,-2.2976,-2.2165,-2.1041,-1.9627,-1.9168,-1.9269,-2.5781,-2.5762,-2.5889,-2.6357,-2.6045,-2.5898,-2.6367,-2.6035,-2.5742,-2.5742,-2.5742,-2.5742,-2.5742,-2.5742,-2.5723,-2.5693,-2.5654,-2.5449,-2.5,-2.542,-2.5303,-2.4453,-2.5234,-2.5703,-2.5742,-2.5742,-2.5742,-2.5742,-2.5742,-2.5742,-2.5742,-2.5742,-2.5742,-2.5742,-2.5742,-2.5742,-2.5742,-2.5742,-2.5742,-2.5742,-2.5742,-2.5742,-2.5742,-2.5742,-2.5742,-2.5742,-2.5742,-2.5742,-2.5742,-2.5742,-2.5742,-2.5742,-2.5742,-2.5742,-2.5742,-2.5742,-2.5742,-2.5742,-2.5742,-2.5742,-2.5742,-2.5742,-2.5742,-2.5742,-2.5742,-2.5742,-2.5742,-2.5742,-2.5742,-2.5742,-2.5742,-2.5742,-2.5439,-2.4521,0.0,0.0,-2.375,-2.374,-2.4072,-2.4961,-2.5469,-2.5742,-2.5742,-2.5742,-2.5742,-2.5742,-2.451,-2.389,-2.389,-2.389,-2.4579,-2.6328,-2.5947,-2.5742,-2.5742,-2.5742,-2.5937,-2.6338,-2.5937,-2.6152,-2.6894,-2.6094,-2.5957,-2.6318,-2.5918,-2.5635,-2.543,-2.4304,-2.3791,-2.3484,-2.0947,-1.9834,-1.9627,-1.8199,-1.7862,-1.8117,-2.5742,-2.5742,-2.5879,-2.6309,-2.6025,-2.5889,-2.6328,-2.6016,-2.5742,-2.5742,-2.5742,-2.5742,-2.5742,-2.5742,-2.5742,-2.5742,-2.5478,-2.5254,-2.5078,-2.5225,-2.5293,-2.5234,-2.5557,-2.5742,-2.5742,-2.5742,-2.5742,-2.5742,-2.5742,-2.5742,-2.5742,-2.5742,-2.5742,-2.5742,-2.5742,-2.5742,-2.5742,-2.5742,-2.5742,-2.5742,-2.5742,-2.5742,-2.5742,-2.5742,-2.5742,-2.5742,-2.5742,-2.5742,-2.5742,-2.5742,-2.5742,-2.5742,-2.5742,-2.5742,-2.5742,-2.5742,-2.5742,-2.5742,-2.5742,-2.5742,-2.5742,-2.5742,-2.5742,-2.5742,-2.5742,-2.5742,-2.5742,-2.5742,-2.5742,-2.5742,-2.5742,-2.5742,-2.5449,-2.456,0.0,-2.4482,-2.4219,-2.4414,-2.4805,-2.541,-2.5635,-2.5333,-2.451,-2.451,-2.4207,-2.3538,-2.3039,-2.2826,-2.2953,-2.2749,-2.2997,-2.3674,-2.3533,-2.45,-2.6523,-2.6269,-2.6357,-2.6768,-2.6348,-2.6455,-2.7002,-2.668,-2.6484,-2.6377,-2.6211,-2.506,-2.3276,-2.3583,-2.2676,-2.1049,-2.0033,-1.9754,-1.9731,-1.839,-1.8063,-1.8323,-2.5742,-2.5742,-2.583,-2.6133,-2.5937,-2.584,-2.6143,-2.5937,-2.5742,-2.5742,-2.5742,-2.5742,-2.5742,-2.5742,-2.5742,-2.5742,-2.5459,-2.5283,-2.5283,-2.5283,-2.541,-2.5723,-2.5742,-2.5742,-2.5742,-2.5742,-2.5742,-2.5742,-2.5742,-2.5742,-2.5742,-2.5742,-2.5742,-2.5742,-2.5742,-2.5742,-2.5742,-2.5742,-2.5742,-2.5742,-2.5742,-2.5742,-2.5742,-2.5742,-2.5742,-2.5742,-2.5742,-2.5742,-2.5742,-2.5742,-2.5742,-2.5742,-2.5742,-2.5742,-2.5742,-2.5742,-2.5742,-2.5742,-2.5742,-2.5742,-2.5742,-2.5742,-2.5742,-2.5742,-2.5742,-2.5742,-2.5742,-2.5742,-2.5742,-2.5742,-2.5742,-2.5742,-2.5537,-2.4932,-2.5088,-2.5176,-2.4873,-2.5088,-2.5391,-2.5703,-2.5333,-2.4716,-2.3791,-2.3285,-2.278,-2.2022,-2.1627,-2.1586,-2.1719,-2.161,-2.174,-2.2273,-2.2388,-2.352,-2.5813,-2.5843,-2.6304,-2.7012,-2.6728,-2.6875,-2.7412,-2.7139,-2.672,-2.6028,-2.5904,-2.4352,-2.1824,-2.2342,-2.1358,-1.9524,-1.9117,-1.915,-1.9247,-1.8211,-1.8029,-1.8217,-2.5742,-2.5742,-2.5742,-2.5742,-2.5742,-2.5742,-2.5742,-2.5742,-2.5742,-2.5742,-2.5742,-2.5742,-2.5742,-2.5742,-2.5742,-2.5742,-2.5742,-2.5742,-2.5742,-2.5742,-2.5742,-2.5742,-2.5742,-2.5742,-2.5742,-2.5742,-2.5742,-2.5742,-2.5742,-2.5742,-2.5742,-2.5742,-2.5742,-2.5742,-2.5742,-2.5742,-2.5742,-2.5742,-2.5742,-2.5742,-2.5742,-2.5742,-2.5742,-2.5742,-2.5742,-2.5742,-2.5742,-2.5742,-2.5742,-2.5742,-2.5742,-2.5742,-2.5742,-2.5742,-2.5742,-2.5742,-2.5742,-2.5742,-2.5742,-2.5742,-2.5742,-2.5742,-2.5742,-2.5742,-2.5742,-2.5742,-2.5742,-2.5742,-2.5742,-2.5742,-2.5742,-2.5742,-2.5752,-2.5742,-2.5742,-2.5742,-2.5742,-2.5742,-2.5742,-2.5645,-2.451,-2.3692,-2.3692,-2.2466,-2.1659,-2.1659,-2.0666,-2.0136,-2.0136,-2.0136,-2.0909,-2.2634,-2.2995,-2.3293,-2.3402,-2.4324,-2.5515,-2.7012,-2.7012,-2.7461,-2.8262,-2.7412,-2.638,-2.5317,-2.493,-2.3809,-2.2004,-2.0649,-1.9934,-1.9428,-1.8094,-1.7589,-1.7589,-1.7589,-1.7589,-1.7635,-2.5742,-2.5742,-2.5742,-2.5742,-2.5742,-2.5742,-2.5742,-2.5742,-2.5742,-2.5742,-2.5742,-2.5742,-2.5742,-2.5742,-2.5742,-2.5742,-2.5742,-2.5742,-2.5742,-2.5742,-2.5742,-2.5742,-2.5742,-2.5742,-2.5742,-2.5742,-2.5742,-2.5742,-2.5742,-2.5742,-2.5742,-2.5742,-2.5742,-2.5742,-2.5742,-2.5742,-2.5742,-2.5742,-2.5742,-2.5742,-2.5742,-2.5742,-2.5742,-2.5742,-2.5742,-2.5742,-2.5742,-2.5742,-2.5742,-2.5742,-2.5742,-2.5742,-2.5742,-2.5742,-2.5742,-2.5742,-2.5742,-2.5742,-2.5742,-2.5742,-2.5742,-2.5742,-2.5742,-2.5742,-2.5742,-2.5742,-2.5742,-2.5742,-2.5977,-2.6191,-2.6191,-2.6435,-2.6533,-2.624,-2.6191,-2.6084,-2.5781,-2.5742,-2.5333,-2.4402,-2.4136,-2.3268,-2.1322,-2.102,-2.0512,-1.9792,-1.9675,-1.9541,-1.932,-1.9313,-1.9459,-1.9982,-2.0081,-2.0669,-2.1639,-2.2961,-2.3999,-2.4428,-2.4428,-2.4581,-2.5151,-2.4815,-2.4407,-2.3829,-2.3719,-2.2568,-2.0649,-2.0234,-1.9447,-1.8404,-1.7874,-1.7842,-1.8217,-1.8217,-1.8217,-1.8263,-2.5742,-2.5742,-2.5742,-2.5742,-2.5742,-2.5742,-2.5742,-2.5742,-2.5742,-2.5742,-2.5742,-2.5742,-2.5742,-2.5742,-2.5742,-2.5742,-2.5742,-2.5742,-2.5742,-2.5742,-2.5742,-2.5742,-2.5742,-2.5742,-2.5742,-2.5742,-2.5742,-2.5742,-2.5742,-2.5742,-2.5742,-2.5742,-2.5742,-2.5742,-2.5742,-2.5742,-2.5742,-2.5742,-2.5742,-2.5742,-2.5742,-2.5742,-2.5742,-2.5742,-2.5742,-2.5742,-2.5742,-2.5742,-2.5742,-2.5742,-2.5742,-2.5742,-2.5742,-2.5742,-2.5742,-2.5742,-2.5742,-2.5742,-2.5742,-2.5742,-2.5742,-2.5742,-2.5869,-2.5947,-2.5781,-2.5996,-2.6201,-2.6035,-2.6338,-2.6641,-2.6641,-2.6846,-2.6934,-2.668,-2.6641,-2.6543,-2.6279,-2.5724,-2.4995,-2.4262,-2.3315,-2.199,-2.0422,-1.9968,-1.9465,-1.8898,-1.8985,-1.8991,-1.8925,-1.8925,-1.8925,-1.8925,-1.9038,-1.9367,-2.0117,-2.113,-2.2229,-2.3293,-2.3434,-2.3505,-2.3822,-2.3822,-2.3373,-2.2625,-2.2625,-2.1437,-1.9664,-1.9664,-1.8993,-1.8043,-1.7969,-1.8096,-1.8317,-1.8317,-1.839,-1.8497,-2.5742,-2.5742,-2.5742,-2.5742,-2.5742,-2.5742,-2.5742,-2.5742,-2.5742,-2.5742,-2.5742,-2.5742,-2.5742,-2.5742,-2.5742,-2.5742,-2.5742,-2.5742,-2.5742,-2.5742,-2.5742,-2.5742,-2.5742,-2.5742,-2.5742,-2.5742,-2.5742,-2.5742,-2.5742,-2.5742,-2.5742,-2.5742,-2.5742,-2.5742,-2.5742,-2.5742,-2.5742,-2.5742,-2.5742,-2.5742,-2.5742,-2.5742,-2.5742,-2.5742,-2.5742,-2.5742,-2.5742,-2.5742,-2.5742,-2.5742,-2.5742,-2.5742,-2.5742,-2.5742,-2.5742,-2.5742,-2.5742,-2.5742,-2.5742,-2.5762,-2.5791,-2.5791,-2.6152,-2.6377,-2.5908,-2.6396,-2.6865,-2.6514,-2.6777,-2.707,-2.707,-2.71,-2.7119,-2.708,-2.707,-2.706,-2.7021,-2.5722,-2.476,-2.4655,-2.2231,-2.0434,-2.0332,-1.9299,-1.8677,-1.8945,-1.8718,-1.8684,-1.8951,-1.8965,-1.8965,-1.8965,-1.9225,-1.9239,-1.8965,-1.9232,-2.0551,-2.2865,-2.3213,-2.3383,-2.3383,-2.3383,-2.271,-2.1365,-2.1365,-2.0409,-1.8925,-1.8925,-1.8611,-1.815,-1.8397,-1.8343,-1.8123,-1.8123,-1.8263,-1.841,-2.5742,-2.5742,-2.5742,-2.5742,-2.5742,-2.5742,-2.5742,-2.5742,-2.5742,-2.5742,-2.5742,-2.5742,-2.5742,-2.5742,-2.5742,-2.5742,-2.5742,-2.5742,-2.5742,-2.5742,-2.5742,-2.5742,-2.5742,-2.5742,-2.5742,-2.5742,-2.5742,-2.5742,-2.5742,-2.5742,-2.5742,-2.5742,-2.5742,-2.5742,-2.5742,-2.5742,-2.5742,-2.5742,-2.5742,-2.5742,-2.5742,-2.5742,-2.5742,-2.5742,-2.5742,-2.5742,-2.5742,-2.5742,-2.5742,-2.5742,-2.5742,-2.5742,-2.5742,-2.5742,-2.5742,-2.5742,-2.5742,-2.5742,-2.5742,-2.5986,-2.625,-2.625,-2.6826,-2.7187,-2.6426,-2.6387,-2.6592,-2.6836,-2.7226,-2.7529,-2.7529,-2.7793,-2.791,-2.7578,-2.7529,-2.7402,-2.706,-2.5722,-2.4437,-2.3279,-2.1806,-2.0448,-1.9367,-1.9259,-1.9205,-1.9265,-1.9212,-1.9205,-1.9265,-1.9272,-1.9272,-1.9272,-1.9332,-1.9339,-1.9272,-1.9332,-1.9557,-1.9808,-2.023,-2.0371,-2.0371,-2.0371,-2.0148,-1.9924,-1.9924,-1.953,-1.8925,-1.8925,-1.8844,-1.8718,-1.8557,-1.8591,-1.8731,-1.8731,-1.8484,-1.8136,-2.5742,-2.5742,-2.5742,-2.5742,-2.5742,-2.5742,-2.5742,-2.5742,-2.5742,-2.5742,-2.5742,-2.5742,-2.5742,-2.5742,-2.5742,-2.5742,-2.5742,-2.5742,-2.5742,-2.5742,-2.5742,-2.5742,-2.5742,-2.5742,-2.5742,-2.5742,-2.5742,-2.5742,-2.5742,-2.5742,-2.5742,-2.5742,-2.5742,-2.5742,-2.5742,-2.5742,-2.5742,-2.5742,-2.5742,-2.5742,-2.5742,-2.5742,-2.5742,-2.5742,-2.5742,-2.5742,-2.5742,-2.5742,-2.5742,-2.5742,-2.5742,-2.5742,-2.5742,-2.5742,-2.5742,-2.5742,-2.5742,-2.5781,-2.5986,-2.6211,-2.6435,-2.6641,-2.7021,-2.7236,-2.6787,-2.7002,-2.7305,-2.7324,-2.7666,-2.7969,-2.7969,-2.7582,-2.7435,-2.7892,-2.741,-2.7112,-2.7552,-2.6309,-2.488,-2.3369,-2.2102,-2.067,-1.924,-1.9279,-1.9366,-1.9366,-1.9366,-1.9366,-1.9366,-1.9366,-1.9366,-1.9366,-1.9366,-1.9366,-1.9366,-1.9366,-1.9292,-1.9138,-1.9292,-1.9366,-1.9366,-1.9366,-1.9366,-1.9366,-1.9366,-1.9279,-1.9132,-1.9132,-1.9052,-1.8925,-1.8911,-1.8831,-1.8718,-1.8718,-1.8524,-1.8257,-2.5742,-2.5742,-2.5742,-2.5742,-2.5742,-2.5742,-2.5742,-2.5742,-2.5742,-2.5742,-2.5742,-2.5742,-2.5742,-2.5742,-2.5742,-2.5742,-2.5742,-2.5742,-2.5742,-2.5742,-2.5742,-2.5742,-2.5742,-2.5742,-2.5742,-2.5742,-2.5742,-2.5742,-2.5742,-2.5742,-2.5742,-2.5742,-2.5742,-2.5742,-2.5742,-2.5742,-2.5742,-2.5742,-2.5742,-2.5742,-2.5742,-2.5742,-2.5742,-2.5742,-2.5742,-2.5742,-2.5742,-2.5742,-2.5742,-2.5742,-2.5742,-2.5742,-2.5742,-2.5742,-2.5742,-2.5742,-2.5791,-2.5928,-2.6289,-2.6494,-2.6689,-2.7041,-2.7178,-2.7236,-2.7236,-2.7725,-2.8105,-2.7832,-2.8047,-2.8291,-2.8291,-2.7051,-2.649,-2.7726,-2.6943,-2.649,-2.7726,-2.6825,-2.5599,-2.4378,-2.2702,-2.1031,-1.9591,-1.9366,-1.9366,-1.9366,-1.9366,-1.9366,-1.9366,-1.9366,-1.9366,-1.9366,-1.9366,-1.9366,-1.9366,-1.9366,-1.9366,-1.9366,-1.9366,-1.9366,-1.9366,-1.9366,-1.9366,-1.9366,-1.9366,-1.9366,-1.9366,-1.9366,-1.9225,-1.9025,-1.9272,-1.9065,-1.8631,-1.8584,-1.8537,-1.849,-2.5742,-2.5742,-2.5742,-2.5742,-2.5742,-2.5742,-2.5742,-2.5742,-2.5742,-2.5742,-2.5742,-2.5742,-2.5742,-2.5742,-2.5742,-2.5742,-2.5742,-2.5742,-2.5742,-2.5742,-2.5742,-2.5742,-2.5742,-2.5742,-2.5742,-2.5742,-2.5742,-2.5742,-2.5742,-2.5742,-2.5742,-2.5742,-2.5742,-2.5742,-2.5742,-2.5742,-2.5742,-2.5742,-2.5742,-2.5742,-2.5742,-2.5742,-2.5742,-2.5742,-2.5742,-2.5742,-2.5742,-2.5742,-2.5742,-2.5742,-2.5742,-2.5742,-2.5742,-2.5742,-2.5742,-2.5742,-2.6006,-2.6309,-2.6367,-2.6934,-2.751,-2.7568,-2.7851,-2.8115,-2.8115,-2.793,-2.7832,-2.8144,-2.8252,-2.8291,-2.8291,-2.7051,-2.6155,-2.6381,-2.6264,-2.6155,-2.6381,-2.6264,-2.6045,-2.5818,-2.3255,-2.1031,-1.9591,-1.9366,-1.9366,-1.9366,-1.9366,-1.9366,-1.9366,-1.9366,-1.9366,-1.9366,-1.9366,-1.9366,-1.9366,-1.9366,-1.9366,-1.9366,-1.9366,-1.9366,-1.9366,-1.9366,-1.9366,-1.9366,-1.9366,-1.9366,-1.9366,-1.9366,-1.9345,-1.9312,-1.9352,-1.9319,-1.9219,-1.8958,-1.8704,-1.849,-2.5742,-2.5742,-2.5742,-2.5742,-2.5742,-2.5742,-2.5742,-2.5742,-2.5742,-2.5742,-2.5742,-2.5742,-2.5742,-2.5742,-2.5742,-2.5742,-2.5742,-2.5742,-2.5742,-2.5742,-2.5742,-2.5742,-2.5742,-2.5742,-2.5742,-2.5742,-2.5742,-2.5742,-2.5742,-2.5742,-2.5742,-2.5742,-2.5742,-2.5742,-2.5742,-2.5742,-2.5742,-2.5742,-2.5742,-2.5742,-2.5742,-2.5742,-2.5742,-2.5742,-2.5742,-2.5742,-2.5742,-2.5889,-2.6103,-2.6103,-2.626,-2.6416,-2.6172,-2.6103,-2.6103,-2.6103,-2.624,-2.6494,-2.6973,-2.7373,-2.7725,-2.7959,-2.8154,-2.8291,-2.8291,-2.8144,-2.8066,-2.8252,-2.8291,-2.8291,-2.8291,-2.7051,-2.6155,-2.6155,-2.538,-2.482,-2.482,-2.482,-2.4488,-2.3702,-2.1707,-2.0148,-1.9482,-1.9366,-1.9366,-1.9366,-1.9366,-1.9366,-1.9366,-1.9366,-1.9446,-1.9606,-1.9606,-1.9606,-1.9606,-1.9606,-1.9526,-1.9366,-1.9366,-1.9366,-1.9366,-1.9366,-1.9366,-1.9366,-1.9366,-1.9366,-1.9366,-1.9366,-1.9366,-1.9366,-1.9366,-1.9265,-1.9085,-1.8791,-1.8704,-1.8731]},{"header":{"parameterUnit":"m.s-1","parameterCategory":1,"la1":30.6,"la2":28.766,"lo1":-90.7593,"lo2":-88.6598,"dy":0.0162,"dx":0.0183,"nx":116,"ny":114,"refTime":"2023-04-06T06:00:00:Z","depth":0,"parameterNumber":3,"parameterNumberName":"V-component_of_WINDS"},"data":[0.0,0.0,0.0,0.0,0.0,0.0,0.0,0.0,0.0,0.0,0.0,0.0,0.0,0.0,0.0,0.0,0.0,0.0,0.0,0.0,0.0,0.0,0.0,0.0,0.0,0.0,0.0,0.0,0.0,0.0,0.0,0.0,0.0,0.0,0.0,0.0,0.0,0.0,0.0,0.0,0.0,0.0,0.0,0.0,0.0,0.0,0.0,0.0,0.0,0.0,0.0,0.0,0.0,0.0,0.0,0.0,0.0,0.0,0.0,0.0,0.0,0.0,0.0,0.0,0.0,0.0,0.0,0.0,0.0,0.0,0.0,0.0,0.0,0.0,0.0,0.0,0.0,0.0,0.0,0.0,0.0,0.0,0.0,0.0,0.0,0.0,0.0,0.0,0.0,0.0,0.0,0.0,0.0,0.0,0.0,0.0,0.0,0.0,0.0,0.0,0.0,0.0,0.0,0.0,0.0,0.0,0.0,0.0,0.0,0.0,0.0,0.0,0.0,0.0,0.0,0.0,0.0,0.0,0.0,0.0,0.0,0.0,0.0,0.0,0.0,0.0,0.0,0.0,0.0,0.0,0.0,0.0,0.0,0.0,0.0,0.0,0.0,0.0,0.0,0.0,0.0,0.0,0.0,0.0,0.0,0.0,0.0,0.0,0.0,0.0,0.0,0.0,0.0,0.0,0.0,0.0,0.0,0.0,0.0,0.0,0.0,0.0,0.0,0.0,0.0,0.0,0.0,0.0,0.0,0.0,0.0,0.0,0.0,0.0,0.0,0.0,0.0,0.0,0.0,0.0,0.0,0.0,0.0,0.0,0.0,0.0,0.0,0.0,0.0,0.0,0.0,0.0,0.0,0.0,0.0,0.0,0.0,0.0,0.0,0.0,0.0,0.0,0.0,0.0,0.0,0.0,0.0,0.0,0.0,0.0,0.0,0.0,0.0,0.0,0.0,0.0,0.0,0.0,0.0,0.0,0.0,0.0,0.0,0.0,0.0,0.0,0.0,0.0,0.0,0.0,0.0,0.0,0.0,0.0,0.0,0.0,0.0,0.0,0.0,0.0,0.0,0.0,0.0,0.0,0.0,0.0,0.0,0.0,0.0,0.0,0.0,0.0,0.0,0.0,0.0,0.0,0.0,0.0,0.0,0.0,0.0,0.0,0.0,0.0,0.0,0.0,0.0,0.0,0.0,0.0,0.0,0.0,0.0,0.0,0.0,0.0,0.0,0.0,0.0,0.0,0.0,0.0,0.0,0.0,0.0,0.0,0.0,0.0,0.0,0.0,0.0,0.0,0.0,0.0,0.0,0.0,0.0,0.0,0.0,0.0,0.0,0.0,0.0,0.0,0.0,0.0,0.0,0.0,0.0,0.0,0.0,0.0,0.0,0.0,0.0,0.0,0.0,0.0,0.0,0.0,0.0,0.0,0.0,0.0,0.0,0.0,0.0,0.0,0.0,0.0,0.0,0.0,0.0,0.0,0.0,0.0,0.0,0.0,0.0,0.0,0.0,0.0,0.0,0.0,0.0,0.0,0.0,0.0,0.0,0.0,0.0,0.0,0.0,0.0,0.0,0.0,0.0,0.0,0.0,0.0,0.0,0.0,0.0,0.0,0.0,0.0,0.0,0.0,0.0,0.0,0.0,0.0,0.0,0.0,0.0,0.0,0.0,0.0,0.0,0.0,0.0,0.0,0.0,0.0,0.0,0.0,0.0,0.0,0.0,0.0,0.0,0.0,0.0,0.0,0.0,0.0,0.0,0.0,0.0,0.0,0.0,0.0,0.0,0.0,0.0,0.0,0.0,0.0,0.0,0.0,0.0,0.0,0.0,0.0,0.0,0.0,0.0,0.0,0.0,0.0,0.0,0.0,0.0,0.0,0.0,0.0,0.0,0.0,0.0,0.0,0.0,0.0,0.0,0.0,0.0,0.0,0.0,0.0,0.0,0.0,0.0,0.0,0.0,0.0,0.0,0.0,0.0,0.0,0.0,0.0,0.0,0.0,0.0,0.0,0.0,0.0,0.0,0.0,0.0,0.0,0.0,0.0,0.0,0.0,0.0,0.0,0.0,0.0,0.0,0.0,0.0,0.0,0.0,0.0,0.0,0.0,0.0,0.0,0.0,0.0,0.0,0.0,0.0,0.0,0.0,0.0,0.0,0.0,0.0,0.0,0.0,0.0,0.0,0.0,0.0,0.0,0.0,0.0,0.0,0.0,0.0,0.0,0.0,0.0,0.0,0.0,0.0,0.0,0.0,0.0,0.0,0.0,0.0,0.0,0.0,0.0,0.0,0.0,0.0,0.0,0.0,0.0,0.0,0.0,0.0,0.0,0.0,0.0,0.0,0.0,0.0,0.0,0.0,0.0,0.0,0.0,0.0,0.0,0.0,0.0,0.0,0.0,0.0,0.0,0.0,0.0,0.0,0.0,0.0,0.0,0.0,0.0,0.0,0.0,0.0,0.0,0.0,0.0,0.0,0.0,0.0,0.0,0.0,0.0,0.0,0.0,0.0,0.0,0.0,0.0,0.0,0.0,0.0,0.0,0.0,0.0,0.0,0.0,0.0,0.0,0.0,0.0,0.0,0.0,0.0,0.0,0.0,0.0,0.0,0.0,0.0,0.0,0.0,0.0,0.0,0.0,0.0,0.0,0.0,0.0,0.0,0.0,0.0,0.0,0.0,0.0,0.0,0.0,0.0,0.0,0.0,0.0,0.0,0.0,0.0,0.0,0.0,0.0,0.0,0.0,0.0,0.0,0.0,0.0,0.0,0.0,0.0,0.0,0.0,0.0,0.0,0.0,0.0,0.0,0.0,0.0,0.0,0.0,0.0,0.0,0.0,0.0,0.0,0.0,0.0,0.0,0.0,0.0,0.0,0.0,0.0,0.0,0.0,0.0,0.0,0.0,0.0,0.0,0.0,0.0,0.0,0.0,0.0,0.0,0.0,0.0,0.0,0.0,0.0,0.0,0.0,0.0,0.0,0.0,0.0,0.0,0.0,0.0,0.0,0.0,0.0,0.0,0.0,0.0,0.0,0.0,0.0,0.0,0.0,0.0,0.0,0.0,0.0,0.0,0.0,0.0,0.0,0.0,0.0,0.0,0.0,0.0,0.0,0.0,0.0,0.0,0.0,0.0,0.0,0.0,0.0,0.0,0.0,0.0,0.0,0.0,0.0,0.0,0.0,0.0,0.0,0.0,0.0,0.0,0.0,0.0,0.0,0.0,0.0,0.0,0.0,0.0,0.0,0.0,0.0,0.0,0.0,0.0,0.0,0.0,0.0,0.0,0.0,0.0,0.0,0.0,0.0,0.0,0.0,0.0,0.0,0.0,0.0,0.0,0.0,0.0,0.0,0.0,0.0,0.0,0.0,0.0,0.0,0.0,0.0,0.0,0.0,0.0,0.0,0.0,0.0,0.0,0.0,0.0,0.0,0.0,0.0,0.0,0.0,0.0,0.0,0.0,0.0,0.0,0.0,0.0,0.0,0.0,0.0,0.0,0.0,0.0,0.0,0.0,0.0,0.0,0.0,0.0,0.0,0.0,0.0,0.0,0.0,0.0,0.0,0.0,0.0,0.0,0.0,0.0,0.0,0.0,0.0,0.0,0.0,0.0,0.0,0.0,0.0,0.0,0.0,0.0,0.0,0.0,0.0,0.0,0.0,0.0,0.0,0.0,0.0,0.0,0.0,0.0,0.0,0.0,0.0,0.0,0.0,0.0,0.0,0.0,0.0,0.0,0.0,0.0,0.0,0.0,0.0,0.0,0.0,0.0,0.0,0.0,0.0,0.0,0.0,0.0,0.0,0.0,0.0,0.0,0.0,0.0,0.0,0.0,0.0,0.0,0.0,0.0,0.0,0.0,0.0,0.0,0.0,0.0,0.0,0.0,0.0,0.0,0.0,0.0,0.0,0.0,0.0,0.0,0.0,0.0,0.0,0.0,0.0,0.0,0.0,0.0,0.0,0.0,0.0,0.0,0.0,0.0,0.0,0.0,0.0,0.0,0.0,0.0,0.0,0.0,0.0,0.0,0.0,0.0,0.0,0.0,0.0,0.0,0.0,0.0,0.0,0.0,0.0,0.0,0.0,0.0,0.0,0.0,0.0,0.0,0.0,0.0,0.0,0.0,0.0,0.0,0.0,0.0,0.0,0.0,0.0,0.0,0.0,0.0,0.0,0.0,0.0,0.0,0.0,0.0,0.0,0.0,0.0,0.0,0.0,0.0,0.0,0.0,0.0,0.0,0.0,0.0,0.0,0.0,0.0,0.0,0.0,0.0,0.0,0.0,0.0,0.0,0.0,0.0,0.0,0.0,0.0,0.0,0.0,0.0,0.0,0.0,0.0,0.0,0.0,0.0,0.0,0.0,0.0,0.0,0.0,0.0,0.0,0.0,0.0,0.0,0.0,0.0,0.0,0.0,0.0,0.0,0.0,0.0,0.0,0.0,0.0,0.0,0.0,0.0,0.0,0.0,0.0,0.0,0.0,0.0,0.0,0.0,0.0,0.0,0.0,0.0,0.0,0.0,0.0,0.0,0.0,0.0,0.0,0.0,0.0,0.0,0.0,0.0,0.0,0.0,0.0,0.0,0.0,0.0,0.0,0.0,0.0,0.0,0.0,0.0,0.0,0.0,0.0,0.0,0.0,0.0,0.0,0.0,0.0,0.0,0.0,0.0,0.0,0.0,0.0,0.0,0.0,0.0,0.0,0.0,0.0,0.0,0.0,0.0,0.0,0.0,0.0,0.0,0.0,0.0,0.0,0.0,0.0,0.0,0.0,0.0,0.0,0.0,0.0,0.0,0.0,0.0,0.0,0.0,0.0,0.0,0.0,0.0,0.0,0.0,0.0,0.0,0.0,0.0,0.0,0.0,0.0,0.0,0.0,0.0,0.0,0.0,0.0,0.0,0.0,0.0,0.0,0.0,0.0,0.0,0.0,0.0,0.0,0.0,0.0,0.0,0.0,0.0,0.0,0.0,0.0,0.0,0.0,0.0,0.0,0.0,0.0,0.0,0.0,0.0,0.0,0.0,0.0,0.0,0.0,0.0,0.0,0.0,0.0,0.0,0.0,0.0,0.0,0.0,0.0,0.0,0.0,0.0,0.0,0.0,0.0,0.0,0.0,0.0,0.0,0.0,0.0,0.0,0.0,0.0,0.0,0.0,0.0,0.0,0.0,0.0,0.0,0.0,0.0,0.0,0.0,0.0,0.0,0.0,0.0,0.0,0.0,0.0,0.0,0.0,0.0,0.0,0.0,0.0,0.0,0.0,0.0,0.0,0.0,0.0,0.0,0.0,0.0,0.0,0.0,0.0,0.0,0.0,0.0,0.0,0.0,0.0,0.0,0.0,0.0,0.0,0.0,0.0,0.0,0.0,0.0,0.0,0.0,0.0,0.0,0.0,0.0,0.0,0.0,0.0,0.0,0.0,0.0,0.0,0.0,0.0,0.0,0.0,0.0,0.0,0.0,0.0,0.0,0.0,0.0,0.0,0.0,0.0,0.0,0.0,0.0,0.0,0.0,0.0,0.0,0.0,0.0,0.0,0.0,0.0,0.0,0.0,0.0,0.0,0.0,0.0,0.0,0.0,0.0,0.0,0.0,0.0,0.0,0.0,0.0,0.0,0.0,0.0,0.0,0.0,0.0,0.0,0.0,0.0,0.0,0.0,0.0,0.0,0.0,0.0,0.0,0.0,0.0,0.0,0.0,0.0,0.0,0.0,0.0,0.0,0.0,0.0,0.0,0.0,0.0,0.0,0.0,0.0,0.0,0.0,0.0,0.0,0.0,0.0,0.0,0.0,0.0,0.0,0.0,0.0,0.0,0.0,0.0,0.0,0.0,0.0,0.0,0.0,0.0,0.0,0.0,0.0,0.0,0.0,0.0,0.0,0.0,0.0,0.0,0.0,0.0,0.0,0.0,0.0,0.0,0.0,0.0,0.0,0.0,0.0,0.0,0.0,0.0,0.0,0.0,0.0,0.0,0.0,0.0,0.0,0.0,0.0,0.0,0.0,0.0,0.0,0.0,0.0,0.0,0.0,0.0,0.0,0.0,0.0,0.0,0.0,0.0,0.0,0.0,0.0,0.0,0.0,0.0,0.0,0.0,0.0,2.5912,0.0,0.0,0.0,0.0,0.0,0.0,0.0,0.0,0.0,0.0,0.0,0.0,0.0,0.0,0.0,0.0,0.0,0.0,0.0,0.0,0.0,0.0,0.0,0.0,0.0,0.0,0.0,0.0,0.0,0.0,0.0,0.0,0.0,0.0,0.0,0.0,0.0,0.0,3.2808,3.4695,3.7075,3.993,4.0255,3.8798,3.5915,0.0,0.0,0.0,0.0,0.0,0.0,0.0,0.0,0.0,0.0,0.0,0.0,0.0,0.0,0.0,0.0,0.0,0.0,0.0,0.0,0.0,0.0,0.0,0.0,0.0,0.0,0.0,0.0,0.0,0.0,0.0,0.0,0.0,0.0,0.0,0.0,0.0,0.0,0.0,0.0,0.0,0.0,0.0,0.0,0.0,0.0,0.0,0.0,0.0,0.0,0.0,0.0,0.0,0.0,0.0,0.0,0.0,0.0,0.0,0.0,0.0,0.0,0.0,0.0,0.0,0.0,0.0,0.0,0.0,0.0,0.0,2.8337,0.0,0.0,0.0,0.0,0.0,0.0,0.0,0.0,0.0,0.0,0.0,0.0,0.0,0.0,0.0,0.0,0.0,0.0,0.0,0.0,0.0,0.0,0.0,0.0,3.0289,3.0106,3.0406,3.0474,0.0,0.0,0.0,0.0,0.0,0.0,0.0,3.0228,3.126,3.3202,3.6429,4.0399,4.4981,4.5028,4.2539,3.7972,3.7745,0.0,0.0,0.0,0.0,0.0,0.0,0.0,0.0,0.0,0.0,0.0,0.0,0.0,0.0,0.0,0.0,0.0,0.0,0.0,0.0,0.0,0.0,0.0,0.0,0.0,0.0,0.0,0.0,0.0,0.0,0.0,0.0,0.0,0.0,0.0,0.0,0.0,0.0,0.0,0.0,0.0,0.0,0.0,0.0,0.0,0.0,0.0,0.0,0.0,0.0,0.0,0.0,0.0,0.0,0.0,0.0,0.0,0.0,0.0,0.0,0.0,0.0,0.0,3.711,3.7557,3.7855,3.8069,3.8168,3.8083,3.6429,3.4862,3.3237,0.0,0.0,0.0,0.0,0.0,0.0,0.0,0.0,0.0,0.0,0.0,0.0,0.0,0.0,0.0,0.0,0.0,0.0,0.0,0.0,0.0,0.0,2.9485,2.9187,2.8487,2.9763,3.0257,2.9406,0.0,0.0,0.0,0.0,0.0,3.0355,3.1085,3.3371,3.7241,4.1468,4.443,4.6168,4.5882,4.5381,4.4592,4.2026,4.0176,3.8862,0.0,0.0,0.0,0.0,0.0,0.0,0.0,0.0,0.0,0.0,0.0,0.0,0.0,0.0,0.0,0.0,0.0,0.0,0.0,0.0,0.0,0.0,0.0,0.0,0.0,0.0,0.0,0.0,0.0,0.0,0.0,0.0,0.0,0.0,0.0,0.0,0.0,0.0,0.0,0.0,0.0,3.4119,3.4203,0.0,0.0,0.0,0.0,0.0,0.0,0.0,0.0,0.0,0.0,0.0,0.0,0.0,3.7797,3.8498,3.9788,4.0203,3.9847,4.2119,4.2639,4.1674,4.2802,4.3322,4.3307,4.304,0.0,3.5428,3.3872,0.0,0.0,0.0,0.0,0.0,0.0,0.0,0.0,0.0,0.0,0.0,0.0,0.0,0.0,0.0,0.0,0.0,0.0,0.0,0.0,0.0,3.0622,3.1928,3.2024,3.5256,3.5899,3.2611,3.3405,0.0,0.0,0.0,3.0398,3.0398,3.2731,3.7063,4.3451,4.648,4.9102,5.1283,5.0941,5.055,5.0082,4.7932,4.5093,4.178,3.9847,0.0,0.0,0.0,0.0,0.0,0.0,0.0,0.0,0.0,0.0,0.0,0.0,0.0,0.0,0.0,0.0,0.0,0.0,0.0,0.0,0.0,0.0,0.0,0.0,0.0,0.0,0.0,0.0,0.0,0.0,0.0,0.0,0.0,0.0,0.0,0.0,0.0,0.0,0.0,3.4109,3.5398,3.4225,3.4559,3.4368,0.0,0.0,0.0,0.0,0.0,0.0,0.0,0.0,0.0,4.0849,4.0353,4.0842,4.2447,4.2846,4.3269,4.3748,4.49,4.5334,4.5155,4.5738,4.5992,4.5992,4.5992,4.4353,4.1485,3.8606,3.6568,3.5224,0.0,0.0,0.0,0.0,3.1652,3.1346,0.0,0.0,0.0,0.0,0.0,0.0,0.0,0.0,0.0,0.0,0.0,0.0,2.9505,3.271,3.5356,3.659,3.9871,3.9976,3.5558,3.5779,3.4389,3.0607,3.0462,3.0462,3.0462,3.5165,4.1183,4.8489,5.0789,5.3144,5.5519,5.5277,5.4834,5.4254,5.3211,4.9996,4.5223,4.2973,4.1262,3.9884,0.0,0.0,0.0,0.0,0.0,0.0,0.0,0.0,0.0,0.0,0.0,0.0,0.0,0.0,0.0,0.0,0.0,0.0,0.0,0.0,0.0,0.0,0.0,0.0,0.0,0.0,0.0,0.0,0.0,0.0,0.0,0.0,0.0,0.0,0.0,0.0,0.0,3.6417,3.7857,3.5582,3.7541,3.8169,0.0,0.0,0.0,0.0,0.0,0.0,4.165,4.2493,4.369,4.5308,4.445,4.4833,4.6586,4.6265,4.6422,4.6954,4.6954,4.7056,4.7309,4.7538,4.7679,4.7694,4.8003,4.7798,4.7,4.2693,4.0173,3.8764,3.6646,3.541,3.4868,3.521,3.4953,3.4583,0.0,0.0,0.0,0.0,0.0,0.0,0.0,0.0,0.0,0.0,0.0,3.1192,3.2791,3.5629,3.8387,4.0866,4.0494,3.9032,3.6402,3.5089,3.3272,3.0697,3.0594,3.0594,3.0594,3.8642,4.5391,5.0628,5.3883,5.5902,5.672,5.6685,5.6689,5.6732,5.668,5.3987,4.9445,4.7091,4.4509,4.1868,4.0701,0.0,0.0,0.0,0.0,0.0,0.0,0.0,0.0,0.0,0.0,0.0,0.0,0.0,0.0,0.0,0.0,0.0,0.0,0.0,0.0,0.0,0.0,0.0,0.0,0.0,0.0,0.0,0.0,0.0,0.0,0.0,0.0,0.0,0.0,0.0,0.0,0.0,0.0,4.061,4.3559,0.0,0.0,0.0,0.0,4.2148,4.353,4.4688,4.5483,4.7276,4.897,5.0385,5.0849,5.1147,5.1165,5.1119,5.0295,4.8697,4.8697,4.8179,4.7294,4.8293,4.8743,4.8743,4.9773,5.0227,4.9817,4.5057,4.2384,4.0995,3.9023,3.7789,3.7148,3.6596,3.6373,3.6253,0.0,0.0,0.0,0.0,0.0,0.0,0.0,0.0,2.6944,2.6944,2.9574,3.2104,3.3796,3.8754,4.2778,4.4824,4.6629,4.6158,4.2642,3.9867,3.7048,3.408,3.1254,3.2091,3.7051,4.3445,4.9286,5.4479,5.605,5.7206,5.8034,5.77,5.7564,5.7565,5.7134,5.5947,5.4182,5.0717,4.789,4.5431,4.3114,4.1279,0.0,0.0,0.0,0.0,0.0,0.0,0.0,0.0,0.0,0.0,0.0,0.0,0.0,0.0,0.0,0.0,0.0,0.0,0.0,0.0,0.0,0.0,0.0,0.0,0.0,0.0,0.0,0.0,0.0,0.0,0.0,0.0,0.0,0.0,0.0,0.0,0.0,4.4136,4.7435,0.0,4.6061,4.6157,4.6662,4.7341,4.9217,5.0656,5.1413,5.1934,5.2705,5.3945,5.2878,5.2356,5.2438,5.1811,5.0928,4.9852,4.9852,4.9615,4.9327,4.9694,4.9852,4.9821,4.9764,4.9981,5.0144,4.7051,4.5477,4.4741,4.2937,4.1549,4.0621,4.0816,4.0621,4.0292,0.0,0.0,0.0,0.0,0.0,0.0,0.0,0.0,2.6125,2.7563,3.0911,3.4436,3.7841,4.2906,4.6944,4.9112,5.0364,4.9148,4.4624,4.1477,3.7964,3.3887,3.2299,3.5307,4.3461,4.753,5.1986,5.6905,5.7524,5.8052,5.8461,5.8142,5.7997,5.7997,5.7498,5.7284,5.7089,5.4148,5.1489,4.8997,4.6354,4.4314,4.2547,0.0,0.0,0.0,0.0,0.0,0.0,0.0,0.0,0.0,0.0,0.0,0.0,0.0,0.0,0.0,0.0,0.0,0.0,0.0,0.0,0.0,0.0,0.0,0.0,0.0,0.0,0.0,0.0,0.0,0.0,0.0,0.0,0.0,0.0,0.0,4.8636,4.7342,5.1152,5.3032,5.071,5.1178,5.2017,5.2706,5.4126,5.5192,5.5683,5.5498,5.5576,5.6089,5.47,5.3905,5.3535,5.2918,5.202,5.093,5.093,5.0703,5.0397,5.0779,5.0801,5.0542,5.0367,5.0431,5.0562,4.8771,4.7814,4.7352,4.5619,4.4465,4.3729,4.4098,4.3838,4.3151,0.0,0.0,0.0,0.0,0.0,0.0,0.0,2.2559,2.4612,2.8875,3.3078,3.8221,4.4939,4.7938,5.0648,5.3548,5.1112,4.7169,4.1893,3.9437,3.5657,3.0,3.3883,4.0264,4.9004,5.0683,5.3514,5.7702,5.8351,5.8461,5.7997,5.7997,5.7997,5.7997,5.7997,5.7997,5.795,5.7234,5.5235,5.2394,5.0551,4.8119,4.5294,0.0,0.0,0.0,0.0,0.0,0.0,0.0,0.0,0.0,0.0,0.0,0.0,0.0,0.0,0.0,0.0,0.0,0.0,0.0,0.0,0.0,0.0,0.0,0.0,0.0,0.0,0.0,0.0,0.0,0.0,0.0,0.0,0.0,4.2908,4.8341,5.1995,5.0608,5.4955,5.7492,5.6072,5.6579,5.7289,5.7949,5.7966,5.7949,5.7949,5.7915,5.756,5.6816,5.6799,5.6089,5.46,5.4583,5.3746,5.1921,5.1921,5.1467,5.055,5.1541,5.1526,5.0921,5.1833,5.1877,5.1169,5.009,4.9302,4.8543,4.6899,4.6205,4.6173,4.6173,4.5634,4.4644,0.0,0.0,0.0,0.0,0.0,0.0,0.0,2.2958,2.4736,2.93,3.429,3.9292,4.4216,4.8626,5.1805,5.3229,5.1026,4.8276,4.5282,4.0266,3.613,3.3278,4.0719,4.6177,4.8837,5.3153,5.6059,5.749,5.795,5.8142,5.7997,5.7997,5.7997,5.7997,5.7997,5.7997,5.7997,5.7774,5.7229,5.6237,5.3552,5.1236,4.9234,0.0,0.0,0.0,0.0,0.0,0.0,0.0,0.0,0.0,0.0,0.0,0.0,0.0,0.0,0.0,0.0,0.0,0.0,0.0,0.0,0.0,0.0,0.0,0.0,0.0,0.0,0.0,0.0,0.0,0.0,0.0,0.0,4.9241,4.8837,5.2674,5.6241,5.8017,6.0436,6.1603,6.0655,6.1231,6.1315,6.0436,5.981,5.9488,5.9488,5.8473,5.756,5.6816,5.6799,5.6089,5.46,5.4583,5.4057,5.3025,5.3025,5.2886,5.2661,5.2956,5.2924,5.2724,5.1864,5.1708,5.1877,4.9998,4.9382,4.9505,4.7675,4.6653,4.6173,4.6173,4.6048,4.5667,0.0,0.0,0.0,0.0,0.0,0.0,0.0,2.241,2.5046,3.0436,3.5347,4.0307,4.5466,4.9389,5.1751,5.1969,4.9188,4.6339,4.3781,3.9204,3.742,3.9282,4.4986,4.9283,5.1662,5.4937,5.6929,5.7653,5.7921,5.8162,5.851,5.8162,5.818,5.8492,5.8143,5.7997,5.7997,5.7997,5.7997,5.7859,5.6084,5.4177,5.2263,5.1239,4.974,4.8075,4.6937,4.6544,4.5994,4.2535,0.0,0.0,0.0,0.0,0.0,0.0,0.0,0.0,0.0,0.0,0.0,0.0,0.0,0.0,0.0,0.0,0.0,0.0,0.0,0.0,0.0,0.0,0.0,0.0,4.9627,5.3061,5.4313,5.6613,5.9066,6.1484,6.2516,6.299,6.2871,6.2973,6.2567,6.14,6.0554,5.9979,5.9674,5.8237,5.7103,5.6376,5.6038,5.531,5.4143,5.4143,5.3923,5.3501,5.3501,5.3501,5.3501,5.3501,5.3315,0.0,5.1725,5.1285,5.1251,4.9661,4.9255,0.0,0.0,0.0,0.0,0.0,4.6552,4.6144,0.0,0.0,0.0,0.0,0.0,0.0,0.0,2.1468,2.5289,3.1732,3.5949,4.08,4.7222,4.9753,5.0754,5.0136,4.6567,4.295,3.9666,3.7869,3.9657,4.5791,4.7636,5.0759,5.5551,5.6084,5.6867,5.785,5.796,5.841,5.9136,5.8373,5.8428,5.9117,5.8355,5.7997,5.7997,5.7997,5.7997,5.7997,5.7997,5.6712,5.473,5.4124,5.2944,5.1595,5.1655,5.0489,4.8923,4.844,0.0,0.0,0.0,0.0,0.0,0.0,0.0,0.0,0.0,0.0,0.0,0.0,0.0,0.0,0.0,0.0,0.0,0.0,0.0,0.0,0.0,0.0,0.0,0.0,5.2587,5.6089,5.8998,6.003,6.0994,6.2347,6.2516,6.277,6.3446,6.2905,6.2178,6.1366,6.0554,5.9742,5.893,0.0,0.0,0.0,0.0,5.4245,5.3518,5.3501,5.3501,5.3501,5.3501,5.3501,5.3501,5.3501,5.3112,5.2384,5.1572,5.0828,5.0152,4.934,4.9001,4.9001,4.9001,4.9001,4.8923,4.808,4.7275,4.6436,0.0,0.0,0.0,0.0,0.0,0.0,0.0,2.1816,2.4637,3.1598,3.4623,3.8573,4.5022,4.7735,4.9039,4.8791,4.5853,4.244,3.8793,4.1484,4.3993,4.5699,5.0377,5.3488,5.4642,5.635,5.7163,5.7042,5.7685,5.8286,5.8791,5.8242,5.8305,5.8791,5.8242,5.7997,5.7997,5.7997,5.7997,5.7997,5.7997,5.7721,5.7354,5.7868,5.7485,5.6699,5.6767,5.6921,5.6471,5.2856,5.1648,5.0887,4.6704,4.3665,0.0,0.0,0.0,0.0,0.0,0.0,0.0,0.0,0.0,0.0,0.0,0.0,0.0,0.0,0.0,0.0,0.0,0.0,0.0,5.1363,5.531,5.8998,6.14,6.2381,6.2973,6.326,6.3294,6.3345,6.3497,6.3379,6.2736,6.14,6.0554,5.9522,5.8169,5.7273,5.619,5.4854,5.4668,5.4245,5.3518,5.3501,5.3501,5.3501,0.0,0.0,5.3501,5.3501,5.3416,5.3196,5.1809,5.1133,5.0896,4.956,4.9001,4.9001,4.9001,4.9001,4.9001,4.8798,4.8265,4.7463,0.0,0.0,0.0,0.0,0.0,0.0,0.0,2.2488,2.4452,2.9894,3.2172,3.4936,3.9268,4.1801,4.26,4.1114,4.0227,3.9351,3.841,4.2438,4.5635,4.7378,5.0726,5.2837,5.3478,5.4724,5.5724,5.6496,5.7352,5.82,5.899,5.8796,5.9059,5.9609,5.8982,5.8549,5.8351,5.8351,5.8194,5.7997,5.7997,5.7997,5.8088,5.8896,5.8981,5.876,5.9593,5.9618,5.9015,5.7155,5.5984,5.4863,5.2267,4.9358,4.6315,0.0,0.0,0.0,0.0,0.0,0.0,0.0,0.0,0.0,0.0,0.0,0.0,0.0,0.0,4.6088,4.7573,0.0,5.2601,5.5245,5.8186,6.0825,6.2685,6.3599,6.392,6.3548,6.3514,6.3379,6.299,6.2956,6.233,6.0808,6.0334,5.9302,5.7442,5.6664,5.575,5.4617,5.4228,5.3873,5.3501,5.3501,5.3501,5.3501,5.3501,5.3501,5.3501,5.3501,5.3501,5.3433,5.2266,5.1555,5.1099,4.961,4.9001,4.9001,4.9001,4.9001,4.8968,4.8595,4.7986,4.7242,0.0,0.0,0.0,0.0,0.0,0.0,0.0,2.2682,2.4139,2.7811,2.9385,3.113,3.3678,3.5612,3.564,3.2926,3.4924,3.6833,3.799,4.2393,4.6083,4.8614,4.9803,5.0826,5.1712,5.2552,5.3838,5.5612,5.6548,5.7735,5.909,5.9144,5.9631,6.0475,5.9726,5.9158,5.8694,5.8694,5.8418,5.7997,5.7997,5.7997,5.807,5.8571,5.8919,5.9344,6.0677,6.0204,5.9012,5.9817,5.8534,5.657,5.6276,5.404,5.0835,4.7037,4.6118,0.0,0.0,0.0,0.0,0.0,0.0,0.0,0.0,4.325,4.4299,4.8376,4.943,5.0391,5.2892,5.4161,5.5875,5.9116,6.0825,6.2245,6.3734,6.4444,6.4597,6.4005,6.3683,6.3277,6.2668,6.2347,6.1603,6.0216,5.9827,5.8761,5.6714,5.5902,5.5158,5.4397,5.3805,5.3501,5.3501,5.3501,5.3501,5.3501,5.3501,5.3501,5.3501,5.3501,5.3416,5.3213,5.2283,5.1454,5.0693,4.9492,4.9001,4.8984,4.8849,4.8798,4.8714,4.8139,4.7344,4.6498,0.0,0.0,0.0,0.0,0.0,0.0,0.0,0.0,2.306,2.6404,2.6838,2.8244,3.1962,3.2679,3.1971,2.9623,3.5269,3.8376,3.6991,4.2462,4.6166,4.7017,4.8053,4.8584,4.8586,5.0897,5.2606,5.3548,5.4719,5.6313,5.8314,5.8276,5.893,6.0129,5.9616,5.9158,5.8694,5.8694,5.8418,5.7997,5.7997,5.7997,5.795,5.7393,5.7983,5.9223,5.9463,5.8677,5.7604,5.825,5.7005,5.5401,5.6466,5.4677,5.1588,4.8321,4.6047,4.3798,4.0102,4.0707,4.2465,4.2848,4.4074,4.6227,0.0,5.0557,5.0811,5.3331,5.4884,5.6007,5.7077,5.8388,5.9972,6.1757,6.2719,6.3785,6.5239,6.551,6.5544,6.5442,6.4309,6.348,6.3396,6.2195,6.1061,6.0165,5.8879,5.7459,5.5919,5.5124,5.438,5.3653,5.3551,5.3501,5.3501,5.3501,5.3501,5.3501,5.3501,5.3501,5.3501,5.3501,5.3112,5.2367,5.0947,4.9932,4.9238,4.9069,4.9001,4.8934,4.8291,4.8037,4.802,4.7953,4.7039,4.5821,0.0,0.0,0.0,0.0,0.0,0.0,0.0,0.0,0.0,2.5046,2.4367,2.428,2.5722,2.5162,2.4936,2.5587,3.1658,3.5786,3.6587,4.1902,4.5282,4.5843,4.5637,4.601,4.7019,4.8584,5.0277,5.2158,5.3628,5.4945,5.6064,5.7251,5.8394,5.9407,5.9435,5.9317,5.9121,5.9121,5.8654,5.7997,5.7997,5.7726,5.7297,5.6559,5.6118,5.5905,5.5988,5.5294,0.0,5.531,5.5206,5.5074,5.7023,5.5426,5.2358,5.01,4.8465,4.7351,4.7456,4.6786,4.6423,4.82,4.9784,5.1295,5.2685,5.2773,5.3433,5.6528,5.7661,5.8587,6.0224,6.1027,6.2038,0.0,6.458,6.5155,6.6187,6.6339,6.6187,6.573,6.4783,6.3988,6.3548,6.255,6.1434,6.0182,5.9522,5.8355,5.6444,5.5649,5.4905,5.416,5.3721,5.3501,5.3501,5.3501,5.3501,5.3501,5.3501,5.3501,5.3484,5.3027,5.2384,5.1606,5.0541,4.9915,4.961,4.9187,4.8748,4.8342,4.8037,4.7394,4.6633,4.6633,4.6244,4.5652,0.0,0.0,0.0,0.0,0.0,0.0,0.0,0.0,0.0,0.0,2.2261,2.1279,2.0988,1.9857,1.9966,2.1996,2.7642,3.2144,3.4665,3.9188,4.2314,4.3481,4.2638,4.3068,4.5098,4.6105,4.7838,5.0393,5.171,5.2809,5.377,5.5624,5.7061,5.8072,5.859,5.872,5.8554,5.8779,5.8282,5.7416,5.7635,5.7139,5.6132,5.5238,5.3636,5.1898,5.2198,5.1448,5.0343,5.085,5.0986,5.1362,5.3744,5.3013,5.0964,4.9543,4.8358,4.8027,5.0353,5.019,4.9897,5.2161,5.4634,5.6435,5.5773,5.5818,5.6765,5.9658,6.0097,6.0503,6.2364,6.2854,6.3599,6.5392,6.6034,6.6423,6.6762,6.6812,6.6457,6.5493,6.4563,6.3785,6.326,6.233,6.1298,6.0182,5.9522,5.8406,5.6596,5.5818,5.5057,5.4313,5.3788,5.3501,5.3501,5.3501,5.3501,5.3501,5.3501,5.3382,5.3145,5.2147,5.1403,5.0862,5.0118,4.9796,4.9729,4.9001,4.8392,4.7885,4.7462,4.665,4.5686,4.5466,4.5399,4.528,0.0,0.0,0.0,0.0,0.0,0.0,0.0,0.0,0.0,0.0,0.0,0.0,0.0,1.9345,1.9102,1.9311,2.4188,2.8146,3.0261,3.3407,3.6423,3.9285,3.8854,3.9703,4.2174,4.3594,4.5439,4.7814,4.8263,4.9591,5.1833,5.3107,5.4503,5.592,5.6714,5.6804,5.6462,5.7225,5.686,5.5812,5.6606,5.6026,5.4485,5.3026,5.048,4.7752,4.8508,4.7447,4.555,4.4414,4.3167,4.245,4.4551,4.5684,4.6042,4.516,4.3751,4.2955,4.4895,4.8052,5.1195,5.3061,5.7443,6.1256,6.1087,6.162,6.2347,6.321,6.2787,6.2533,6.3328,6.4055,6.4783,6.5561,6.6897,6.759,6.6914,6.6812,6.6271,6.4816,6.3345,6.2448,0.0,6.1061,6.0148,6.0097,5.8118,5.6562,5.5801,5.504,5.4296,5.3568,5.3518,5.3501,5.3501,5.3501,5.3501,5.3501,5.3501,5.3095,5.2283,5.0828,5.0135,5.0084,4.9357,4.9035,4.8984,4.8257,4.7936,4.7784,4.6346,4.5737,4.5618,4.4891,4.4604,4.4502,0.0,0.0,0.0,0.0,0.0,0.0,0.0,0.0,0.0,0.0,0.0,0.0,0.0,0.0,0.0,0.0,2.3382,2.6519,2.8301,3.1146,3.3745,3.5898,3.5373,3.6168,3.8637,4.0254,4.1844,4.3569,4.5922,4.7413,4.8235,5.054,5.2192,5.3244,5.4288,5.4792,5.4974,5.5734,5.5649,5.4973,5.5241,5.4433,5.2701,5.0724,4.7726,4.4304,0.0,4.1408,4.0889,3.9902,3.9504,3.9651,4.119,4.1296,4.0937,4.1397,4.2286,4.3999,4.7829,5.1369,5.4683,5.7346,6.0552,6.2839,6.2174,6.2212,6.2465,6.2719,6.0588,5.8913,5.9641,5.9979,6.0554,6.1789,6.4901,6.7083,6.6846,6.7692,6.7404,6.4901,6.458,0.0,0.0,0.0,0.0,6.0097,5.8964,5.7949,5.7205,5.6004,5.5226,5.4989,5.4025,5.3501,5.3501,5.3501,5.323,5.2706,5.2215,5.1589,5.0811,5.0321,4.9813,4.9357,4.912,4.9001,4.8984,4.8731,4.8054,4.7124,4.6616,4.5821,4.4925,4.4671,4.4587,4.4536,0.0,0.0,0.0,0.0,0.0,0.0,0.0,0.0,0.0,0.0,0.0,0.0,0.0,0.0,0.0,0.0,0.0,2.3919,2.564,2.7414,2.945,3.1929,3.1258,3.2062,3.4849,3.6172,3.7682,3.9387,4.2019,4.3682,4.4492,4.686,4.8508,4.9536,5.0802,5.1522,5.181,5.2803,5.2443,5.1319,5.1598,5.0316,4.7997,4.5961,4.3168,0.0,3.7299,3.6091,3.5719,3.5429,3.5527,3.5872,3.6437,3.6933,3.7666,3.9535,4.1969,4.5125,5.0204,5.3792,5.6769,5.9882,6.2439,6.3973,6.3332,6.2973,6.2787,6.2787,5.9607,5.6867,5.707,5.6681,5.663,5.7594,6.0842,6.3717,6.5036,6.5848,6.5984,6.5104,6.4952,6.4241,0.0,0.0,0.0,6.0114,5.9438,5.8575,5.756,5.6376,5.5598,5.5327,5.4143,5.3501,5.3501,5.3501,5.3095,5.2283,5.1285,5.0557,5.0084,4.9813,4.9441,4.9001,4.9001,4.9001,4.8984,4.8731,4.8054,4.7141,4.6616,4.5821,4.4942,4.4671,4.4401,4.4164,0.0,0.0,0.0,0.0,0.0,0.0,0.0,0.0,0.0,0.0,0.0,0.0,0.0,0.0,0.0,0.0,0.0,0.0,2.2278,2.2306,2.3824,2.7387,2.6637,2.7593,3.0762,3.171,3.3176,3.5299,3.6902,3.8642,4.0609,4.2142,4.3523,4.4739,4.6218,4.6861,4.6946,4.8463,4.7522,4.5179,4.5913,4.4202,4.0966,3.9411,3.7331,3.4956,3.3467,3.1812,3.0459,3.1097,3.1437,3.1512,3.1009,3.3283,3.6746,3.9899,4.2825,4.6203,5.1776,5.4979,5.7526,6.0583,6.3024,6.4634,6.4517,6.392,6.3362,6.321,5.959,5.6207,5.5361,5.4211,5.3416,5.3501,5.5615,5.8507,6.211,6.2093,6.2685,0.0,6.4512,0.0,0.0,0.0,0.0,6.0283,0.0,5.8389,5.6934,5.6139,5.5395,5.4668,5.3907,5.3501,5.3501,5.3433,5.301,5.2232,5.0744,5.0033,5.0016,4.9323,4.9001,4.9001,4.9001,4.9001,4.8951,4.8257,4.7953,4.7784,4.6329,4.5737,4.5618,4.4857,4.4113,4.347,0.0,0.0,0.0,0.0,0.0,0.0,0.0,0.0,0.0,0.0,0.0,0.0,0.0,0.0,0.0,0.0,0.0,0.0,1.9765,1.996,2.1153,2.3652,2.3603,2.464,2.7052,2.8943,3.0451,3.1486,3.4254,3.5848,3.639,3.797,3.889,3.9276,4.0641,4.1276,4.1343,4.2753,4.2895,4.2269,4.2455,4.1573,3.9901,3.7836,3.5983,3.4276,3.275,3.1664,3.0879,3.0264,3.2046,3.4974,3.7361,3.9939,4.2498,4.4804,4.7334,4.999,5.3177,5.6252,5.888,6.0113,6.183,6.3155,6.2989,6.2398,6.1231,5.8981,5.4938,5.1082,4.8697,5.0202,5.2164,5.3315,5.9082,0.0,6.5476,6.6508,6.6762,6.5797,6.5848,6.5459,6.4157,6.3379,0.0,0.0,6.008,5.8609,5.7662,5.641,5.5632,5.5446,5.4177,5.3501,5.3501,5.2367,5.1691,5.1471,4.9999,4.9272,4.9272,4.9086,4.9001,4.9001,4.9001,4.9001,4.8984,4.8798,4.8409,4.7834,4.6887,4.6177,4.5618,4.4857,4.4451,4.4198,0.0,0.0,0.0,0.0,0.0,0.0,0.0,0.0,0.0,0.0,0.0,0.0,0.0,0.0,0.0,0.0,0.0,0.0,0.0,1.9501,2.0146,2.1506,2.1931,2.2735,2.4043,2.6234,2.756,2.797,3.0668,3.2144,3.2509,3.4006,3.4713,3.4776,3.6394,3.6963,3.6813,3.8123,3.83,0.0,0.0,3.6853,3.539,3.3768,3.2425,3.1231,3.0023,3.0916,3.2855,3.4233,3.6185,3.8512,4.1136,4.3666,4.604,4.8046,5.0249,5.245,5.4272,5.7032,5.9428,5.9745,6.1232,6.209,6.035,5.9624,5.8287,5.4617,5.0811,4.7564,4.5568,4.7445,4.9661,5.0862,5.6545,6.1772,6.4495,6.5341,6.5916,6.6576,6.6762,6.6356,6.5189,6.4427,6.3413,0.0,6.0419,5.9167,5.8423,5.6697,5.5716,5.5716,5.4279,5.3501,5.3501,5.1978,5.1217,5.12,4.9712,4.9001,4.9001,4.9001,4.9001,4.9001,0.0,4.9001,4.8984,4.8663,4.8291,4.7817,4.6735,4.6058,4.5618,4.4857,4.4587,4.4468,0.0,0.0,0.0,0.0,0.0,0.0,0.0,0.0,0.0,0.0,1.741,1.7393,0.0,0.0,0.0,0.0,0.0,0.0,0.0,0.0,2.0204,2.0553,2.114,2.1682,2.2062,2.3869,2.4823,2.4982,2.6841,2.8125,2.8736,3.0018,3.0634,3.0693,3.2586,3.3141,3.2825,3.4045,3.3848,3.2752,3.2708,3.1537,2.9799,0.0,2.8395,2.7786,2.7299,3.0311,3.5199,3.975,4.1842,4.2844,4.4637,4.6901,4.9263,5.1123,5.2745,5.4303,5.5445,5.7527,5.9397,5.9495,6.0654,6.0875,5.751,5.6482,5.5019,5.0473,4.7394,4.5229,4.4164,4.5449,4.7056,4.8291,5.2164,5.685,6.2093,6.2279,6.3345,6.7286,6.7117,6.6406,6.5747,6.485,6.3514,6.1586,6.052,5.959,5.8761,5.6816,5.5632,5.5429,5.4177,5.3501,5.3501,5.208,5.1319,5.12,4.9813,4.9086,4.9001,4.9001,4.9001,4.9001,0.0,0.0,4.8951,4.8325,4.8003,4.7784,4.6397,4.5788,4.5602,4.4739,4.4418,4.4299,0.0,0.0,0.0,0.0,0.0,0.0,0.0,0.0,0.0,0.0,1.9735,1.9065,0.0,0.0,0.0,0.0,0.0,0.0,0.0,0.0,0.0,2.083,2.1085,2.1661,2.2561,2.2903,2.3377,2.3952,2.4345,2.4575,2.4739,2.5503,2.5879,2.5944,2.7306,2.8136,2.8568,2.9312,2.9799,3.0032,2.947,2.9038,2.8614,2.774,0.0,0.0,2.9164,3.1664,3.5217,4.0073,4.5147,5.0067,5.3433,5.5347,5.6525,5.7508,5.7277,5.6915,5.7739,5.8291,5.8806,5.9399,5.9041,5.8102,5.6537,5.4824,5.2179,4.7433,4.5568,4.3978,4.1339,4.3623,4.7141,5.093,5.4786,5.9133,6.4377,6.5002,6.5442,6.6846,6.6339,6.5831,6.5696,6.392,0.0,0.0,6.0334,5.8609,5.7256,5.6258,5.5158,5.3923,5.3636,5.3501,5.3501,5.2587,5.1809,5.12,5.0321,4.9593,4.9001,4.9001,4.9001,4.9001,4.9001,0.0,4.8984,4.8866,4.846,4.7834,4.6955,4.6244,4.5534,4.4147,4.3623,4.342,0.0,0.0,0.0,0.0,0.0,0.0,0.0,2.2517,2.2809,2.329,2.3045,2.2388,2.1228,2.0942,2.0952,0.0,0.0,0.0,0.0,0.0,0.0,0.0,2.2009,2.2415,2.2709,2.3038,2.323,2.3201,0.0,2.3012,2.2693,2.3336,2.3664,2.3725,2.4978,2.5938,2.6565,2.7165,2.8046,2.8841,2.8223,2.7894,2.7747,0.0,0.0,0.0,2.869,3.1504,3.5135,3.8681,4.4589,5.1193,5.5736,5.8658,6.0303,5.9691,5.9338,5.8871,5.8002,5.8441,5.911,5.8829,5.8538,5.7146,5.2927,5.1261,4.8942,4.3351,4.2236,4.1796,4.0341,4.3166,4.6532,4.9018,5.3551,5.8034,6.1704,6.3226,6.4394,6.5527,6.5341,6.5121,6.5121,6.3463,6.2229,6.1856,5.9725,5.8118,5.7408,5.5953,5.4634,5.3534,5.3501,5.3501,5.3501,5.2706,5.2131,5.1775,5.0625,4.9898,4.956,4.9187,4.9001,4.9001,4.9001,0.0,4.8968,4.8595,4.8003,4.7259,4.6515,4.5771,4.4976,4.3842,4.342,4.3217,0.0,0.0,0.0,0.0,0.0,0.0,2.3139,2.3587,2.4247,2.5229,2.6002,2.5709,2.3628,2.3054,2.2762,0.0,0.0,0.0,0.0,0.0,0.0,0.0,0.0,0.0,0.0,0.0,0.0,2.2666,2.2512,0.0,0.0,0.0,0.0,0.0,2.3892,2.4751,2.5379,2.6041,2.703,0.0,0.0,2.7223,0.0,0.0,0.0,0.0,0.0,3.0671,3.3955,3.664,4.1944,4.8246,5.309,5.7376,6.0501,5.9545,5.9462,5.9553,5.8491,5.8982,5.9722,5.8693,5.8226,5.6366,5.0015,4.8221,4.6176,4.0404,3.9681,4.007,4.007,4.2506,4.4942,4.6329,5.0642,5.4972,5.8304,6.0436,6.2398,6.436,6.4461,0.0,6.436,6.2871,0.0,6.1095,5.8795,0.0,5.7188,5.5378,5.4093,5.3518,5.3501,5.3501,5.3501,5.2875,5.2469,5.2283,5.0963,5.0253,5.0067,4.934,4.9001,4.9001,4.9001,0.0,0.0,4.8223,4.7479,4.6718,4.5991,4.5246,4.4485,4.3707,4.3318,4.2997,0.0,0.0,0.0,0.0,0.0,0.0,2.2708,2.4273,2.5661,2.6455,2.7414,2.7663,2.6775,2.5258,2.4233,0.0,0.0,0.0,0.0,0.0,0.0,0.0,0.0,0.0,0.0,0.0,0.0,2.2616,2.1985,0.0,0.0,0.0,0.0,0.0,0.0,2.3903,2.4588,2.5283,0.0,0.0,0.0,0.0,0.0,0.0,0.0,0.0,0.0,2.9444,3.0386,3.4301,3.763,4.072,4.4269,4.9888,5.5419,5.689,5.7156,5.7598,6.0753,6.0837,6.0066,5.9961,5.7722,5.4461,5.0411,4.7621,4.4805,4.0819,4.002,4.007,4.007,4.0358,4.1728,4.5246,4.6819,5.005,5.7019,5.8761,6.0639,6.4191,6.4021,0.0,6.3616,6.162,6.0283,6.0216,0.0,0.0,5.4938,5.4076,5.3568,5.3501,5.3501,5.3501,5.3501,5.3433,5.3027,5.2283,5.1488,5.076,5.0067,4.934,4.9001,4.9001,4.9001,0.0,0.0,4.8223,4.7479,4.6718,4.5991,4.5246,4.4485,4.3707,4.298,4.2286,0.0,0.0,0.0,0.0,0.0,0.0,2.2725,2.3832,2.5414,2.7755,2.8424,2.8732,2.89,2.8024,2.6703,2.4932,0.0,0.0,0.0,0.0,0.0,0.0,0.0,0.0,0.0,0.0,2.3478,2.3851,2.2742,0.0,0.0,0.0,0.0,0.0,0.0,2.3419,2.4391,2.471,0.0,0.0,0.0,0.0,0.0,0.0,0.0,0.0,0.0,0.0,3.0342,3.24,3.4773,3.6985,3.763,4.1437,4.6805,5.2909,5.5439,5.6887,5.9555,6.0479,6.0505,5.9697,5.7088,5.3743,4.9844,4.6797,4.3797,4.074,4.007,4.007,4.007,4.007,4.0713,4.2675,4.3995,4.6278,5.0608,5.2232,5.4702,5.9353,5.9658,6.0182,0.0,0.0,5.937,5.7594,0.0,0.0,5.3974,5.367,5.3501,5.3501,5.3501,5.3501,5.3501,5.3501,5.3095,5.23,5.1555,5.0811,5.0067,4.934,4.9001,4.9001,4.9001,0.0,0.0,4.8223,4.7479,4.6718,4.5991,4.5246,4.4485,4.3707,4.2929,4.2185,0.0,0.0,0.0,0.0,0.0,2.2141,2.2881,2.3852,2.5494,2.8296,2.8839,2.9194,2.9719,2.9231,2.807,2.6129,2.5657,0.0,0.0,0.0,0.0,0.0,0.0,0.0,0.0,0.0,2.4461,2.4968,2.3913,2.3697,0.0,0.0,2.2844,2.3756,0.0,0.0,0.0,0.0,0.0,0.0,0.0,0.0,0.0,0.0,0.0,0.0,0.0,0.0,0.0,0.0,0.0,3.4079,3.3287,3.5307,3.9569,4.7814,5.2188,5.4851,5.7825,5.9546,6.0341,5.9578,5.6774,5.325,4.9754,4.6378,4.3279,4.0624,4.007,4.007,4.007,4.007,4.0257,4.0781,4.1931,4.3707,4.6413,4.7682,5.0118,5.4905,0.0,5.6342,0.0,5.9522,5.8321,5.5581,0.0,0.0,5.3551,5.3501,5.3501,5.3501,5.3501,5.3501,5.3501,5.3501,5.3095,5.23,5.1555,5.0811,5.0067,4.934,4.9001,4.9001,0.0,0.0,0.0,4.7986,4.7276,4.6701,4.5737,4.5043,4.4485,4.3707,4.2929,4.2185,0.0,0.0,0.0,0.0,0.0,0.0,2.3133,2.4795,2.6405,2.7653,2.8501,2.9011,2.8991,2.8315,2.7789,2.7772,2.6864,0.0,0.0,0.0,0.0,0.0,0.0,0.0,0.0,0.0,2.5425,2.5502,2.5451,2.5416,2.5384,2.461,2.4266,2.4266,0.0,0.0,0.0,0.0,0.0,0.0,0.0,0.0,0.0,0.0,0.0,0.0,0.0,0.0,0.0,0.0,0.0,0.0,0.0,3.2573,3.4977,4.1659,4.6479,5.083,5.5954,5.8215,5.9279,5.9922,5.6774,5.2788,5.016,4.6715,4.3279,4.0624,4.007,4.007,4.007,4.007,4.007,4.0087,4.073,4.254,4.6261,4.6802,4.8189,5.1911,5.1708,5.2452,5.548,5.707,5.6985,0.0,0.0,0.0,5.3551,5.3501,5.3501,5.3501,5.3501,5.3501,5.3501,5.3501,5.3095,5.23,5.1555,5.0811,5.0067,4.934,4.9001,0.0,0.0,0.0,0.0,4.7411,4.6802,4.6633,4.5162,4.4587,4.4485,4.3707,4.2929,4.2185,0.0,0.0,0.0,0.0,0.0,0.0,2.2055,2.4035,2.6129,2.7852,2.9059,2.9939,3.0446,2.9837,2.9381,2.9381,2.7739,0.0,0.0,0.0,0.0,0.0,0.0,0.0,0.0,2.6504,2.6699,2.7624,2.6634,2.6915,2.8247,2.6553,2.6019,2.6469,2.572,2.5101,0.0,0.0,0.0,0.0,0.0,0.0,0.0,0.0,0.0,0.0,0.0,0.0,0.0,0.0,0.0,0.0,0.0,0.0,0.0,3.6695,4.1023,4.5943,5.0753,5.2637,5.3369,5.3585,5.167,4.9245,4.6898,4.4519,4.2311,4.0476,4.007,4.007,4.007,4.007,4.0257,4.0764,4.0612,4.1204,4.3403,4.4621,4.6836,5.1065,5.4515,5.6714,0.0,0.0,5.5902,0.0,0.0,0.0,5.3518,5.3501,5.3501,5.3501,5.3501,5.3501,5.3501,5.3501,5.2858,5.1555,5.1319,5.0557,4.934,4.912,0.0,0.0,0.0,0.0,0.0,4.7192,4.6498,4.5957,4.4959,4.4587,4.4485,4.3707,4.2929,4.2185,0.0,0.0,0.0,0.0,0.0,0.0,2.2253,2.3777,2.5637,2.7536,2.8477,2.9446,3.0666,3.0125,2.9803,3.0091,2.8607,0.0,0.0,0.0,0.0,0.0,0.0,0.0,2.7924,2.7257,2.7478,2.8607,2.7741,2.808,2.9564,2.7909,2.7371,2.7777,2.6849,2.6145,0.0,0.0,0.0,0.0,0.0,0.0,3.1273,0.0,0.0,0.0,0.0,0.0,0.0,0.0,0.0,0.0,0.0,0.0,0.0,0.0,3.8286,4.1869,4.6165,4.8811,5.0308,5.056,4.94,4.7623,4.5766,4.3763,4.1863,4.0375,4.007,4.007,4.007,4.007,4.024,4.0696,4.0392,4.0798,4.2861,4.3978,4.6024,4.9915,5.4262,0.0,0.0,5.5581,0.0,0.0,0.0,0.0,5.3501,5.3501,5.3501,5.3501,5.3501,5.3501,5.3501,5.3196,5.2435,5.1217,5.093,5.0168,4.9001,4.9001,0.0,0.0,0.0,0.0,0.0,4.6802,4.6109,4.5602,4.4553,4.4147,4.4012,4.2963,4.2286,4.1779,0.0,0.0,0.0,0.0,0.0,0.0,0.0,2.4017,2.5107,2.6842,2.7142,2.7926,2.9892,2.9424,2.9272,3.0125,2.9445,0.0,0.0,0.0,0.0,0.0,0.0,0.0,2.7566,2.7504,2.7893,2.8742,2.8742,2.9101,2.9789,2.9037,2.8697,2.8568,2.7258,2.6637,2.661,2.7986,2.9332,3.0569,3.1343,3.2035,0.0,0.0,0.0,0.0,0.0,0.0,0.0,0.0,0.0,0.0,0.0,0.0,0.0,0.0,0.0,0.0,0.0,4.6119,4.917,4.9883,4.8884,4.7419,4.5963,4.3922,0.0,4.0375,4.007,4.007,4.007,4.007,4.007,4.007,4.007,4.1136,4.4147,4.4942,4.6278,0.0,5.2046,0.0,5.1539,5.4008,0.0,0.0,0.0,0.0,5.3501,5.3501,5.3467,5.3416,5.3416,5.3416,5.3416,5.2672,5.1911,5.1116,5.0422,4.9712,4.9001,4.9001,0.0,0.0,0.0,0.0,0.0,4.621,4.5602,4.5399,4.391,4.3335,4.3166,4.1728,4.1204,4.1085,0.0,0.0,0.0,0.0,0.0,0.0,0.0,0.0,0.0,0.0,2.7502,2.8656,3.0088,2.9181,2.9116,0.0,0.0,0.0,0.0,0.0,0.0,0.0,0.0,0.0,2.8958,2.854,2.8914,3.0058,3.0058,3.0657,3.1824,3.1618,3.1292,3.073,2.9935,2.8946,2.8057,2.8943,3.0076,3.1308,3.204,3.2478,0.0,0.0,0.0,0.0,2.9468,2.9997,0.0,0.0,0.0,0.0,0.0,0.0,0.0,0.0,3.784,3.887,3.9756,0.0,4.2518,4.3265,4.3539,4.3451,0.0,4.2345,4.1863,4.0375,4.007,4.007,4.007,4.007,4.007,4.007,4.007,4.1136,4.4147,4.8528,5.208,5.3923,5.575,5.5835,5.3213,5.4634,0.0,0.0,0.0,5.3501,5.3501,5.3501,5.323,5.2604,5.2587,5.2587,5.2587,5.2401,5.1657,5.0355,5.0168,4.9712,4.9001,4.9001,0.0,0.0,0.0,0.0,4.616,4.5229,4.4502,4.3859,4.2912,4.2557,4.2439,4.1542,4.1204,4.1085,0.0,0.0,0.0,0.0,0.0,0.0,0.0,0.0,0.0,0.0,2.7099,2.8152,2.9691,2.9231,2.934,0.0,0.0,0.0,0.0,0.0,0.0,0.0,0.0,2.7612,2.9083,2.8785,2.922,3.0507,3.0507,3.1046,3.2063,3.2063,3.1884,3.1437,3.0507,2.9667,2.9022,3.0066,3.1278,3.2464,3.3226,0.0,0.0,0.0,0.0,0.0,2.8701,2.9152,0.0,3.1515,3.3289,3.5251,0.0,0.0,0.0,0.0,3.8841,3.9437,3.9437,4.027,4.1204,4.161,4.2252,4.2608,4.1863,4.1745,4.1457,4.0307,4.007,4.007,4.007,4.0358,4.0476,4.0138,4.1238,4.3081,4.5737,4.9187,5.2249,5.4448,5.5395,5.5513,0.0,0.0,0.0,0.0,0.0,5.3348,5.2976,5.2959,5.2604,5.1826,5.1809,5.1809,5.1809,5.1454,5.0879,5.0084,4.9746,4.939,4.8984,4.8663,4.8291,0.0,0.0,0.0,4.5128,4.4367,4.3589,4.2828,4.2083,4.1796,4.1711,4.0967,4.0696,4.0629,0.0,0.0,0.0,0.0,0.0,0.0,0.0,0.0,0.0,0.0,0.0,0.0,0.0,0.0,0.0,0.0,0.0,0.0,0.0,0.0,0.0,0.0,2.787,2.7804,2.8712,2.8742,2.943,3.0806,3.0911,3.1255,3.1839,3.1974,3.1855,3.1422,3.0372,2.9728,2.958,3.1118,3.2432,3.3587,3.4391,0.0,0.0,0.0,0.0,0.0,0.0,0.0,0.0,3.1709,3.4236,3.6874,3.8345,0.0,0.0,0.0,0.0,0.0,4.0223,4.1508,4.2709,4.2236,4.2692,4.3047,4.2286,4.1644,4.0984,4.024,4.007,4.0104,4.0223,4.0679,4.0865,4.0341,4.298,4.5906,4.8257,4.9424,5.098,5.3534,5.3839,0.0,0.0,0.0,0.0,0.0,0.0,5.2976,5.2181,5.2131,5.1792,5.1065,5.1048,5.0997,5.0879,5.0355,5.0033,4.9915,4.9187,4.8832,4.8815,4.8088,4.7631,0.0,0.0,0.0,4.4164,4.3403,4.2709,4.2049,4.1322,4.1035,4.095,4.0307,4.007,4.007,0.0,0.0,0.0,0.0,0.0,0.0,0.0,0.0,0.0,0.0,0.0,0.0,0.0,0.0,0.0,0.0,0.0,0.0,0.0,0.0,0.0,3.0898,2.8249,2.757,2.9385,2.943,3.0342,3.2198,3.2766,3.308,3.3215,3.4352,3.3694,3.1467,3.133,3.0591,2.9611,3.1593,3.2838,3.3587,3.4923,0.0,0.0,0.0,0.0,0.0,0.0,0.0,0.0,3.113,3.3339,3.6062,3.7601,0.0,0.0,0.0,0.0,0.0,4.0849,4.3064,4.457,4.2016,4.1914,4.2269,4.1542,4.1288,4.0984,4.024,4.007,4.0273,4.0916,4.0595,4.0426,4.095,4.4621,4.8392,0.0,0.0,5.4854,5.5327,0.0,5.4972,0.0,0.0,0.0,0.0,0.0,5.2164,5.142,5.1386,5.1031,5.0287,5.027,4.9965,4.934,4.983,4.9779,4.9171,4.8426,4.8088,4.8054,4.731,4.6278,0.0,0.0,4.3944,4.2591,4.1847,4.1474,4.1305,4.0544,4.0257,4.024,4.0121,4.007,4.007,0.0,0.0,0.0,0.0,0.0,0.0,0.0,0.0,0.0,0.0,0.0,0.0,0.0,0.0,0.0,0.0,0.0,0.0,0.0,0.0,3.1269,3.2039,3.0273,2.9735,3.0693,3.0292,3.0881,3.2512,3.2826,3.3155,3.3499,3.3769,3.3051,3.1452,3.115,3.0629,3.016,3.1493,3.2615,3.3632,0.0,0.0,0.0,0.0,0.0,0.0,0.0,0.0,0.0,0.0,3.3778,3.6434,3.755,0.0,0.0,0.0,0.0,0.0,4.0493,4.1914,4.3234,4.3064,4.479,4.621,4.5094,4.484,4.4265,4.2286,4.188,4.1745,4.1288,4.2252,4.4164,4.7344,4.7885,4.8815,5.1352,5.1589,5.1944,0.0,0.0,0.0,0.0,0.0,0.0,0.0,0.0,0.0,5.0676,5.0608,5.027,4.9526,4.9509,4.9154,4.8426,4.8748,4.8748,4.8409,4.7665,4.731,4.7293,4.6532,4.5618,4.4553,0.0,4.3098,4.1677,4.1339,4.0967,4.0561,4.0206,4.007,4.007,4.007,4.007,4.007,0.0,0.0,0.0,0.0,0.0,0.0,0.0,0.0,0.0,0.0,0.0,0.0,0.0,0.0,0.0,0.0,0.0,0.0,0.0,3.2285,3.2386,3.304,3.2716,3.2478,3.2332,3.1457,3.1736,3.3245,3.2871,3.287,3.3223,3.2805,3.2063,3.0881,3.0761,3.0493,3.0268,3.1359,3.2515,3.3633,0.0,0.0,0.0,0.0,0.0,0.0,0.0,0.0,0.0,0.0,0.0,0.0,0.0,0.0,0.0,3.9969,3.9952,3.9868,4.002,4.1018,4.232,4.3707,4.5906,4.7868,4.8325,4.7767,4.6735,4.528,4.4976,4.4418,4.2591,4.4147,4.7124,5.1488,5.0371,4.9746,5.1961,5.0659,5.0168,5.2046,5.1961,0.0,0.0,0.0,0.0,0.0,0.0,0.0,4.9898,4.983,4.9576,4.9018,4.9001,4.8663,4.7919,4.775,4.7648,4.7648,4.6887,4.6532,4.6515,4.5788,4.4925,4.4012,4.342,4.232,4.0933,4.0933,4.0595,4.007,4.007,4.007,4.007,4.007,4.007,4.007,0.0,0.0,0.0,0.0,0.0,0.0,0.0,0.0,0.0,0.0,0.0,0.0,0.0,0.0,0.0,0.0,0.0,0.0,0.0,3.3905,3.431,3.4361,3.5027,3.515,3.4583,3.3199,3.3429,3.5393,3.4046,3.304,3.2298,3.2898,3.1725,2.9205,3.054,3.0519,2.9537,3.1612,3.2939,3.3633,3.4333,0.0,0.0,0.0,0.0,0.0,0.0,0.0,0.0,0.0,0.0,0.0,0.0,0.0,3.8328,3.9681,3.9597,3.9225,3.9884,4.2168,4.4028,4.276,4.1644,4.2439,4.8545,4.7276,4.5737,4.8951,4.961,4.8748,4.5906,4.5568,4.6278,4.8037,5.0422,5.2841,5.5074,0.0,5.4431,5.5294,0.0,0.0,0.0,0.0,0.0,0.0,0.0,0.0,4.912,4.9086,4.9052,4.9001,4.9001,4.8663,4.7919,4.7225,4.687,4.687,4.6126,4.5788,4.5754,4.501,4.3859,4.2455,4.2388,4.1525,4.0155,4.0155,4.0121,4.007,4.007,4.007,4.007,4.007,4.007,4.007,0.0,0.0,0.0,0.0,0.0,0.0,0.0,0.0,0.0,0.0,0.0,0.0,0.0,0.0,0.0,0.0,0.0,0.0,0.0,3.3472,3.4229,3.5205,3.598,3.6272,3.6051,3.5075,3.5173,3.6321,3.5285,3.3922,3.2205,3.1719,3.0834,2.9605,2.9442,2.9223,2.9167,3.0602,3.1562,3.2228,3.3045,3.4186,0.0,0.0,0.0,0.0,0.0,0.0,0.0,0.0,3.5622,3.711,3.7483,3.8362,3.9276,3.9377,3.9208,3.9056,3.9326,4.1238,4.3223,4.3511,4.2791,4.3544,4.9419,5.0703,5.0786,5.143,5.1894,5.1302,4.8308,4.8883,4.9999,5.0557,5.2401,5.4059,5.4905,5.438,5.4025,0.0,0.0,0.0,0.0,0.0,0.0,0.0,0.0,0.0,4.9035,4.9001,4.9001,4.9001,4.8578,4.797,4.7225,4.6481,4.5889,4.5415,4.5145,4.501,4.4976,4.4215,4.3284,4.2269,4.1813,4.1035,4.007,4.007,4.007,4.007,4.007,4.007,4.007,4.007,4.007,4.007,0.0,0.0,0.0,0.0,0.0,0.0,0.0,0.0,0.0,0.0,0.0,0.0,0.0,0.0,0.0,0.0,0.0,0.0,3.1769,3.247,3.3408,3.4677,3.5446,3.6009,3.646,3.6212,3.6458,3.7122,3.6106,3.3985,3.0919,3.0463,2.9785,2.8864,2.8311,2.8334,2.8879,2.9588,3.0303,3.0982,3.183,3.3108,0.0,0.0,0.0,0.0,0.0,0.0,0.0,0.0,3.6096,3.7178,3.7144,3.7838,3.8667,3.865,3.865,3.865,3.865,4.0051,4.1801,4.2997,4.335,4.4836,5.0306,5.2426,5.3536,5.4601,5.411,5.2875,5.0811,5.1268,5.1961,0.0,5.3433,5.4583,5.4583,5.3957,0.0,0.0,0.0,0.0,0.0,0.0,0.0,0.0,0.0,0.0,0.0,4.8781,4.8663,4.8663,4.7953,4.7208,4.6447,4.5957,4.5331,4.4587,4.4587,4.4451,4.4198,4.3656,4.2878,4.1914,4.1424,4.0781,4.007,4.007,4.007,4.007,4.007,4.007,4.007,4.007,4.007,4.007,0.0,0.0,0.0,0.0,0.0,0.0,0.0,0.0,0.0,0.0,0.0,0.0,0.0,0.0,0.0,0.0,0.0,0.0,3.0478,3.1181,3.1903,3.256,3.3299,3.4342,3.5662,3.6421,3.7106,3.7785,3.6305,3.3066,2.8255,2.9398,2.8732,2.6521,2.7351,2.796,2.8501,2.8852,2.9344,3.0069,3.0924,3.1652,3.2299,0.0,0.0,0.0,0.0,0.0,0.0,0.0,3.6265,3.5893,3.7415,3.6857,3.5943,3.7466,3.7905,3.7905,3.7905,3.8807,3.9979,4.0968,4.259,4.5428,5.106,5.1623,5.2774,5.8841,5.6596,5.3534,5.3518,5.2266,5.1251,5.1217,5.3112,5.4583,5.4583,5.3957,0.0,0.0,0.0,0.0,0.0,0.0,0.0,0.0,0.0,0.0,0.0,4.8308,4.7919,4.7902,4.7175,4.643,4.572,4.5703,4.5314,4.4587,4.457,4.4164,4.342,4.3403,4.2608,4.1204,4.1204,4.0781,4.007,4.007,4.007,4.007,4.007,4.007,4.007,4.007,4.007,4.007,0.0,0.0,0.0,0.0,0.0,0.0,0.0,0.0,0.0,0.0,0.0,0.0,0.0,0.0,0.0,0.0,0.0,0.0,3.0485,3.0704,3.115,3.1867,3.3487,3.4298,3.4178,3.5356,3.5903,3.564,3.4091,3.1766,2.874,2.8536,2.7708,2.6533,2.6782,2.6926,2.7135,2.7802,2.8206,2.8488,2.931,3.0096,3.0689,0.0,0.0,0.0,0.0,0.0,0.0,0.0,0.0,0.0,3.6332,3.7077,3.7872,3.7297,3.7483,3.7865,3.7682,3.9525,4.163,4.2176,4.5231,4.8955,5.218,5.2722,5.3827,5.84,5.7459,5.5497,5.4465,5.389,0.0,5.1471,5.2689,5.3822,5.3822,0.0,0.0,0.0,0.0,0.0,0.0,0.0,0.0,0.0,0.0,0.0,0.0,4.8037,4.7682,4.7141,4.6413,4.5923,4.5703,4.5179,4.4807,4.457,4.4028,4.3639,4.3403,4.2861,4.21,4.117,4.0646,4.029,4.007,4.007,4.007,4.007,4.007,4.007,4.007,4.007,4.007,4.007,0.0,0.0,0.0,0.0,0.0,0.0,0.0,0.0,0.0,0.0,2.5937,2.6127,0.0,0.0,0.0,0.0,0.0,0.0,2.9812,2.9785,3.0049,3.0777,3.2004,3.2936,3.3505,3.4384,3.474,3.4635,3.3138,3.1035,2.8505,2.8399,2.789,2.713,2.7582,2.7532,2.7175,2.7639,2.7631,2.731,2.8357,2.8885,2.9212,0.0,0.0,0.0,0.0,0.0,0.0,0.0,0.0,0.0,3.5673,3.6552,3.7533,3.6958,3.7313,3.8038,3.8772,4.0774,4.3031,4.4802,4.7585,5.0531,5.3151,5.4678,5.6252,5.8886,5.8271,5.6884,5.5683,5.4989,0.0,5.2384,5.2909,5.3501,5.3501,0.0,0.0,0.0,0.0,0.0,0.0,0.0,0.0,0.0,0.0,0.0,0.0,4.7631,4.7141,4.6397,4.5348,4.4807,4.4807,4.435,4.3978,4.3656,4.3504,4.3115,4.2523,4.2066,4.1457,4.073,4.0273,4.007,4.007,4.007,4.007,4.007,4.007,4.007,4.007,4.007,4.007,4.007,0.0,0.0,0.0,0.0,0.0,0.0,0.0,0.0,0.0,0.0,2.6496,2.6508,0.0,0.0,0.0,0.0,0.0,0.0,0.0,2.8637,2.8891,2.9549,2.9804,3.1061,3.344,3.3559,3.3784,3.414,3.2781,3.0668,2.7974,2.8947,2.8918,2.8222,2.9264,2.9114,2.8097,2.7996,2.7369,2.6627,2.7816,2.805,2.7855,2.9939,0.0,0.0,0.0,0.0,0.0,0.0,0.0,0.0,3.5256,3.552,3.5639,3.6282,3.7161,3.8362,4.0477,4.2108,4.4182,4.8082,4.9649,5.1055,5.4025,5.6836,5.9061,5.9858,5.8953,5.7836,5.7216,5.5805,5.4448,5.3838,5.3551,5.3399,5.3399,0.0,0.0,0.0,0.0,0.0,0.0,0.0,0.0,0.0,0.0,0.0,0.0,4.7158,4.6397,4.5534,4.4147,4.3386,4.3318,4.3318,4.2963,0.0,4.2929,4.2506,4.1204,4.1204,4.0798,4.007,4.007,4.007,4.007,4.007,4.007,4.007,4.007,4.007,4.007,4.007,4.007,4.007,0.0,0.0,0.0,0.0,0.0,0.0,0.0,0.0,0.0,0.0,0.0,0.0,0.0,0.0,0.0,0.0,0.0,0.0,0.0,2.8891,2.8891,2.9549,3.1554,3.2916,3.3484,3.4008,3.3235,3.1195,3.0235,2.9903,3.0091,2.932,2.8886,2.8762,2.9001,2.8737,2.8047,2.718,2.6747,2.6546,2.684,2.6883,2.6812,2.7561,2.8208,0.0,0.0,0.0,0.0,0.0,0.0,0.0,3.4543,3.4742,3.4658,3.4252,3.5926,3.8204,3.962,4.2125,4.5137,4.8716,5.1612,5.3872,5.5158,5.6423,5.7669,5.9013,5.9016,5.8927,5.9439,5.7327,5.5399,5.5214,5.3744,5.2553,5.2553,0.0,0.0,0.0,0.0,0.0,0.0,0.0,0.0,0.0,0.0,0.0,4.7107,4.6887,4.5906,4.3978,4.3589,4.3132,4.254,4.254,4.2455,0.0,4.188,4.1508,4.1204,4.1204,4.0798,4.007,4.007,4.007,4.007,4.007,4.007,4.007,4.007,4.007,4.007,4.007,4.007,4.007,0.0,0.0,0.0,0.0,0.0,0.0,0.0,0.0,0.0,0.0,0.0,0.0,0.0,0.0,0.0,0.0,0.0,0.0,0.0,0.0,2.9505,3.0477,3.2422,3.3499,3.3499,3.3829,3.33,3.1821,3.0373,2.9817,3.0146,2.9699,2.9427,2.9365,2.988,2.9365,2.8084,2.777,2.718,2.6546,2.6753,2.6703,2.6564,2.7091,2.736,2.7618,2.9001,0.0,0.0,0.0,0.0,0.0,0.0,0.0,3.3583,3.3845,3.5301,3.7394,4.0163,4.2974,4.6133,5.0475,5.3348,5.5208,5.5602,5.6569,5.7683,5.8905,5.8788,5.855,5.8633,5.7069,5.5564,5.5254,5.3567,5.23,0.0,0.0,0.0,0.0,0.0,0.0,0.0,0.0,0.0,0.0,0.0,4.7986,4.6853,4.6109,4.5026,4.347,4.2726,4.2168,4.1779,4.2057,4.2005,4.1612,4.1612,4.129,4.0663,4.0663,4.0443,4.007,4.007,4.007,4.007,4.007,4.007,4.007,4.007,4.007,4.007,4.007,4.007,4.007,0.0,0.0,0.0,0.0,0.0,0.0,0.0,0.0,0.0,0.0,0.0,0.0,0.0,0.0,0.0,0.0,0.0,0.0,0.0,0.0,0.0,3.1644,3.2751,3.332,3.332,3.344,3.338,3.3155,3.1467,3.0496,3.003,3.017,3.0203,3.0175,3.0725,2.9955,2.8247,2.8323,2.7557,2.6352,2.6716,2.659,2.6299,2.6815,2.6868,2.6684,2.7722,0.0,0.0,0.0,0.0,0.0,0.0,0.0,3.2337,3.3556,3.4641,3.6299,4.0257,4.3673,4.7225,5.1944,5.4333,5.5479,5.5479,5.6693,5.7978,5.8664,5.8363,5.7865,5.7356,5.6575,5.5723,5.5122,5.3615,5.2452,0.0,0.0,0.0,0.0,0.0,0.0,0.0,0.0,0.0,0.0,0.0,4.753,4.665,4.5314,4.4164,4.325,4.1914,4.1136,4.1018,4.1604,4.1579,4.0903,4.1596,4.1278,4.007,4.007,4.007,4.007,4.007,4.007,4.007,4.007,4.007,4.007,4.007,4.007,4.007,4.007,4.007,4.007,0.0,0.0,0.0,0.0,0.0,0.0,0.0,0.0,0.0,0.0,2.415,2.4774,0.0,0.0,0.0,0.0,0.0,0.0,0.0,0.0,0.0,3.2317,3.2557,3.2647,3.2647,3.32,3.2931,3.1794,3.2065,3.2332,3.2592,3.0983,3.0755,3.1601,2.9974,2.9089,2.8699,2.6829,2.5912,2.5686,2.5297,2.5109,2.4983,2.4633,2.4867,2.5495,2.6332,2.7102,2.7954,2.9919,3.0176,0.0,0.0,0.0,3.0733,3.1419,3.3068,3.5064,3.6992,4.2455,4.8257,5.0862,5.3134,5.4745,5.4745,5.5932,5.7063,5.7167,5.7632,5.8196,5.8796,5.7711,5.6719,5.6635,5.4685,5.3063,0.0,0.0,0.0,0.0,0.0,0.0,0.0,0.0,0.0,0.0,4.797,4.731,4.5923,4.5043,4.3927,4.2489,4.1644,4.0882,4.024,4.0779,4.1007,4.0903,4.1007,4.071,4.007,4.007,4.007,4.007,4.007,4.007,4.007,4.007,4.007,4.007,4.007,4.007,4.007,4.007,4.007,4.007,0.0,0.0,0.0,0.0,0.0,0.0,0.0,0.0,0.0,0.0,0.0,2.4129,0.0,0.0,0.0,2.6863,0.0,0.0,0.0,0.0,0.0,3.1898,3.1958,3.1958,3.1958,3.2243,3.1928,3.0956,3.0896,3.1916,3.3868,3.2122,3.1887,3.2786,3.0703,2.9538,2.9112,2.7018,2.5887,2.5573,2.5347,2.5448,2.5674,2.5109,2.5279,2.5923,2.6199,2.6467,2.6961,2.8449,2.8712,2.8568,2.9485,0.0,0.0,0.0,3.1933,3.4134,3.8159,4.2591,4.6887,5.0355,5.2597,5.4208,5.501,5.6421,5.7516,5.7516,5.7778,5.8109,5.8472,5.7641,5.6761,5.6302,5.4651,0.0,0.0,0.0,0.0,0.0,0.0,0.0,0.0,0.0,0.0,0.0,4.753,4.6633,4.5145,4.3944,4.2794,4.1711,4.0967,4.0409,4.007,4.0607,4.0903,4.0903,4.1251,4.0938,4.007,4.007,4.007,4.007,4.007,4.007,4.007,4.007,4.007,4.007,4.007,4.007,4.007,4.007,4.007,4.007,0.0,0.0,0.0,0.0,0.0,0.0,0.0,0.0,0.0,0.0,0.0,0.0,0.0,0.0,0.0,0.0,2.6264,0.0,0.0,0.0,0.0,3.0671,3.0878,3.1008,3.1046,3.1195,3.0941,3.0268,2.9968,3.133,3.4218,3.304,3.3163,3.4271,3.2014,3.0437,2.9372,2.7498,2.6257,2.5586,2.5448,2.5661,2.608,2.5965,2.6095,2.637,2.6644,2.6552,2.6428,2.7491,2.7724,2.771,2.8319,2.8826,0.0,0.0,0.0,3.2917,3.7915,4.1032,4.3893,4.8173,5.0922,5.3087,5.4788,5.6476,5.7758,5.796,5.7997,5.7941,5.7721,5.7273,5.6695,5.6079,5.4517,0.0,0.0,0.0,0.0,0.0,0.0,0.0,0.0,0.0,0.0,0.0,4.7107,4.6058,4.4367,4.3014,4.1965,4.1221,4.046,4.007,4.007,4.0625,4.092,4.0903,4.1358,4.1059,4.007,4.007,4.007,4.007,4.007,4.007,4.007,4.007,4.007,4.007,4.007,4.007,4.007,4.007,4.007,4.007,0.0,0.0,0.0,0.0,0.0,0.0,0.0,0.0,0.0,0.0,0.0,0.0,2.3266,2.4406,2.4912,2.4447,2.5638,2.6662,2.7304,2.7374,0.0,2.8553,2.9189,0.0,2.9699,3.0253,3.0253,2.9624,3.0178,3.1509,3.3544,3.3453,3.4483,3.6231,3.3747,3.1452,2.9276,2.7696,2.6518,2.5548,2.5059,2.4883,2.501,2.631,2.6472,2.6171,2.7738,2.7492,2.6707,2.8062,2.8113,2.771,2.8319,2.8511,2.8654,0.0,0.0,0.0,3.3346,3.6095,3.9157,4.2895,4.7055,5.0835,5.3105,5.5315,5.7079,5.7831,5.7997,5.7776,5.7005,5.6813,5.6795,5.6758,5.4807,0.0,0.0,0.0,0.0,0.0,0.0,0.0,0.0,0.0,0.0,0.0,4.6802,4.5821,4.3589,4.2726,4.1965,4.1221,4.046,4.007,4.007,4.0707,4.0955,4.0903,4.0949,4.0655,4.007,4.007,4.007,4.007,4.007,4.007,4.007,4.007,4.007,4.007,4.007,4.007,4.007,4.007,4.007,4.007,0.0,0.0,0.0,0.0,0.0,0.0,0.0,0.0,0.0,0.0,0.0,0.0,0.0,2.374,2.4352,2.4287,2.5211,2.5868,2.6076,2.6076,0.0,2.7563,2.8326,2.8943,2.9418,2.9778,2.9804,2.9579,2.8936,3.0088,3.2856,3.2437,3.329,3.516,3.3252,3.1966,3.1086,2.8738,2.7082,2.5985,2.6466,2.637,2.6059,2.7417,2.7897,2.7888,2.8474,2.8088,2.7435,2.808,2.7954,2.7625,2.786,2.8189,2.8606,2.9225,2.954,3.0275,3.2866,3.4333,3.6148,4.0256,4.3923,4.7287,5.0019,5.269,5.4966,5.6226,5.6455,5.6363,5.6069,5.6455,5.6473,5.5427,5.4145,0.0,0.0,0.0,0.0,0.0,0.0,0.0,0.0,0.0,0.0,0.0,0.0,4.5094,4.2811,4.2439,4.1745,4.051,4.0223,4.007,4.007,4.0689,4.0767,4.0368,4.075,4.0607,4.007,4.007,4.007,4.007,4.007,4.007,4.007,4.007,4.007,4.007,4.007,4.007,4.007,4.007,4.007,4.007,0.0,0.0,0.0,0.0,0.0,0.0,0.0,0.0,2.2765,2.2708,0.0,0.0,0.0,0.0,2.4229,2.4175,2.4443,2.4784,2.5186,2.5025,2.5464,2.672,2.7788,2.8526,2.8943,2.9374,2.9475,2.925,2.8353,2.9039,3.1116,3.117,3.1812,3.2957,3.2032,3.1801,3.2054,3.0125,2.8229,2.6757,2.7855,2.7902,2.746,2.8934,2.9434,2.9398,2.9748,2.8969,2.7996,2.8671,2.8482,2.7952,2.7797,2.7823,2.7963,2.8622,2.8779,2.9186,3.1322,3.2354,3.374,3.7367,4.0292,4.3343,4.7275,4.9887,5.22,5.4679,5.5188,5.5188,5.5188,5.5629,5.5647,5.4564,5.336,0.0,0.0,0.0,0.0,0.0,0.0,0.0,0.0,0.0,0.0,0.0,0.0,0.0,4.2405,4.2286,4.161,4.0121,4.007,4.007,4.007,4.0449,4.0449,4.0121,4.0449,4.0449,4.007,4.007,4.007,4.007,4.007,4.007,4.007,4.007,4.007,4.007,4.007,4.007,4.007,4.007,4.007,4.007,0.0,0.0,0.0,0.0,0.0,0.0,0.0,0.0,2.4321,2.422,0.0,0.0,0.0,0.0,0.0,2.4092,2.3527,2.3665,2.4745,2.4381,2.4668,2.5906,0.0,0.0,2.834,2.9197,2.928,2.8622,2.8607,2.8557,2.8438,2.9785,3.0353,3.0113,3.0397,3.1073,3.2025,3.1546,2.9961,2.7868,2.9016,2.9274,2.92,3.0922,3.1144,3.0501,3.1627,3.0368,2.8464,2.9986,2.9748,2.8628,2.8236,2.7379,2.6698,2.7386,2.7515,2.7555,0.0,0.0,0.0,3.3997,3.6123,3.9196,4.4944,4.6891,4.8738,5.325,5.4136,5.4154,5.4271,5.4308,5.4326,5.4326,5.2522,0.0,0.0,0.0,0.0,0.0,0.0,0.0,0.0,0.0,0.0,0.0,4.6092,4.4688,4.2405,4.2252,4.1559,4.0121,4.007,4.007,4.007,4.007,4.007,4.007,4.007,4.007,4.007,4.007,4.007,4.007,4.007,4.007,4.007,4.007,4.007,4.007,4.007,4.007,4.007,4.007,4.007,4.007,0.0,0.0,0.0,0.0,0.0,2.7005,2.6841,2.5909,2.5239,0.0,0.0,0.0,2.3875,2.4377,2.4908,2.5134,2.5563,2.5814,2.5722,2.6142,2.6714,2.751,2.8538,2.9301,2.9736,3.0068,2.9939,2.931,2.8831,2.8576,2.8566,2.8919,2.9584,3.0411,3.0488,3.0678,3.0939,3.0819,3.0017,2.9163,3.1692,3.182,3.0759,3.3635,3.3706,3.2434,3.3705,3.2402,3.0341,3.1566,3.0585,2.8873,2.8569,2.8275,2.7927,2.7632,2.7496,2.7524,2.7675,0.0,0.0,0.0,0.0,0.0,0.0,0.0,4.3365,4.7783,4.8283,4.8746,5.1321,5.1882,5.2098,5.2595,5.1802,0.0,0.0,0.0,0.0,0.0,0.0,0.0,0.0,0.0,0.0,0.0,4.5602,4.413,4.2388,4.1271,4.0493,4.0087,4.007,4.007,4.007,4.007,4.007,4.007,4.007,4.007,4.007,4.007,4.007,4.007,4.007,4.007,4.007,4.007,4.007,4.007,4.007,4.007,4.007,4.007,4.007,4.007,0.0,0.0,0.0,0.0,2.8607,2.8094,2.7691,2.6879,2.6377,0.0,0.0,0.0,2.5059,2.531,2.5624,2.5937,2.657,2.672,2.6377,2.7189,2.7654,2.7704,2.9035,2.981,2.9865,3.029,3.0193,2.9579,2.8921,2.8286,2.7741,2.8055,2.8379,2.8739,2.9114,2.9416,2.9628,2.9993,2.9847,2.9636,3.2745,3.3059,3.1983,3.4405,3.4657,3.389,3.4482,3.3796,3.2641,3.2922,3.1364,0.0,2.9231,2.8542,2.7733,2.7891,2.7544,2.719,2.7728,2.7881,2.811,2.9203,0.0,0.0,3.5542,3.7473,3.9973,0.0,4.5499,4.6204,4.8616,4.9575,5.0162,5.0563,5.0857,0.0,0.0,0.0,0.0,0.0,0.0,0.0,0.0,4.7479,4.6667,4.6363,4.5246,4.391,4.2371,4.0882,4.007,4.007,4.007,4.007,4.007,4.007,4.007,4.007,4.007,4.007,4.007,4.007,4.007,4.007,4.007,4.007,4.007,4.007,4.007,4.007,4.007,4.007,4.007,4.007,4.007,4.007,0.0,0.0,3.0658,3.0658,3.0153,2.9416,2.8477,2.7864,2.7687,0.0,2.7205,2.6603,2.6716,2.6678,2.671,2.671,2.7077,2.7218,2.6995,2.7872,2.8144,2.7395,2.9297,2.9985,2.9363,3.0184,3.0238,2.9475,2.8966,2.7994,2.6616,2.7306,2.7156,2.6399,2.7231,2.7838,2.8293,2.9218,2.9581,2.9826,3.2941,3.3729,3.3258,3.4568,3.5239,3.5379,3.5107,3.5057,3.5067,3.4076,3.2051,0.0,0.0,0.0,0.0,0.0,2.7768,2.706,2.8106,2.8314,2.8458,0.0,2.9297,0.0,3.4775,3.5911,3.7445,0.0,4.3886,4.4678,4.5861,4.7143,4.7991,4.7944,4.9433,0.0,0.0,0.0,0.0,0.0,0.0,0.0,4.8105,4.7276,4.6532,4.5872,4.4891,4.3741,4.2354,4.0882,4.007,4.007,4.007,4.007,4.007,4.007,4.007,4.007,4.007,4.007,4.007,4.007,4.007,4.007,4.007,4.007,4.007,4.007,4.007,4.007,4.007,4.007,4.007,4.007,4.007,4.007,0.0,3.2368,3.2157,3.2157,3.1721,3.1045,3.0118,2.9476,2.8866,2.8157,2.7532,2.7457,2.8348,2.8047,2.7783,2.7783,2.9085,2.9465,2.8625,2.9518,2.9967,2.9835,3.0256,3.0164,2.954,3.0678,3.0492,2.8801,2.919,2.8704,2.7408,2.7509,2.7518,2.7314,2.7518,2.7658,2.7802,2.9062,3.0142,3.1382,3.4664,3.5931,3.6073,3.89,3.9547,3.891,3.9086,3.8145,3.642,3.4169,3.3221,3.2762,0.0,0.0,0.0,2.8995,0.0,0.0,0.0,0.0,0.0,0.0,0.0,0.0,2.915,3.0428,3.2653,0.0,3.7477,3.8605,4.2218,4.3235,4.3525,4.3411,4.6177,0.0,0.0,0.0,0.0,0.0,0.0,0.0,4.886,4.7581,4.6735,4.6599,4.4198,4.2608,4.2303,4.0882,4.007,4.007,4.007,4.007,4.007,4.007,4.007,4.007,4.007,4.007,4.007,4.007,4.007,4.007,4.007,4.007,4.007,4.007,4.007,4.007,4.007,4.007,4.007,4.007,4.007,4.007,3.3765,3.3602,3.331,3.331,3.3057,3.2569,3.1612,3.1026,3.0602,3.0342,3.013,2.9862,2.968,2.9632,2.9254,2.822,2.9254,2.9564,2.8581,2.9358,2.9817,2.9579,2.9864,2.9909,2.9594,3.0223,3.0073,2.9086,2.9086,2.8577,2.7625,2.7625,2.7625,2.7625,2.7625,2.7625,2.7715,2.9011,3.0522,3.2258,3.4921,3.6215,3.6846,3.8855,3.9459,3.9246,3.9174,3.838,3.7395,3.6613,3.4794,0.0,3.2742,3.1914,3.0854,0.0,2.9484,2.9219,0.0,0.0,0.0,2.7034,0.0,0.0,0.0,2.9227,3.0784,3.36,3.5032,3.643,3.8534,4.0158,4.1213,4.149,4.4076,4.6504,0.0,0.0,0.0,0.0,0.0,0.0,4.803,4.7225,4.6481,4.5737,4.3572,4.2286,4.2286,4.0882,4.007,4.007,4.007,4.007,4.007,4.007,4.007,4.007,4.007,4.007,4.007,4.007,4.007,4.007,4.007,4.007,4.007,4.007,4.007,4.007,4.007,4.007,4.007,4.007,4.007,4.007,3.5213,3.4839,3.4312,3.4312,3.4312,3.3959,3.3031,3.2472,3.2319,3.2538,3.2593,3.2072,3.0705,3.1114,3.0781,2.8887,2.9499,2.9704,2.8881,2.9322,2.9377,2.8793,2.9295,2.946,2.9205,2.9445,2.9445,2.919,2.8801,2.8248,2.7625,2.7625,2.7625,2.7625,2.7895,2.7889,2.791,2.934,3.1091,3.3051,0.0,3.6247,3.7473,3.8199,3.8913,3.9286,3.8594,3.826,3.819,3.8575,3.6079,3.2912,3.3613,3.2318,0.0,0.0,0.0,0.0,0.0,0.0,0.0,0.0,0.0,2.6891,0.0,0.0,0.0,0.0,0.0,0.0,0.0,0.0,0.0,0.0,0.0,0.0,0.0,0.0,0.0,0.0,0.0,0.0,0.0,4.6363,4.5805,4.4451,4.2946,4.2083,4.2083,4.0798,4.007,4.007,4.007,4.007,4.007,4.007,4.007,4.007,4.007,4.007,4.007,4.007,4.007,4.007,4.007,4.007,4.007,4.007,4.007,4.007,4.007,4.007,4.007,4.007,4.007,4.007,3.5439,3.5439,3.5359,3.5359,3.5359,3.4986,3.3959,3.3819,3.3448,3.2735,3.2593,3.2222,3.1235,3.1974,3.2202,3.1103,3.1782,3.2163,3.1812,3.112,3.0377,2.9495,2.9549,2.9026,2.7829,2.8966,2.8996,2.785,2.8338,2.8248,2.7625,2.7625,2.7625,2.767,2.8816,2.9026,2.8607,3.0507,3.2452,0.0,3.5175,3.7306,0.0,4.074,4.1396,4.1814,4.0576,3.9757,3.8926,0.0,3.6172,3.5451,0.0,3.2537,3.3245,2.9819,0.0,0.0,0.0,0.0,0.0,0.0,2.6563,0.0,0.0,0.0,2.7296,2.944,0.0,0.0,0.0,0.0,0.0,0.0,0.0,0.0,0.0,0.0,0.0,0.0,0.0,0.0,0.0,4.4823,4.4468,4.3606,4.2168,4.1322,4.1322,4.0544,4.007,4.007,4.007,4.007,4.007,4.007,4.007,4.007,4.007,4.007,4.007,4.007,4.007,4.007,4.007,4.007,4.007,4.007,4.007,4.007,4.007,4.007,4.007,4.007,4.007,4.007,3.528,3.5504,3.5504,3.5504,3.5175,3.4897,3.4861,3.4839,3.4706,3.4341,3.4274,3.4048,3.3449,3.3473,3.3199,3.2423,3.2319,3.1919,0.0,3.0842,3.0326,2.9448,2.9183,2.8921,2.8742,2.8532,2.8338,2.8173,2.8053,2.7859,2.7625,2.7625,2.7625,2.7685,2.8981,2.9624,2.9789,3.1016,3.2901,0.0,0.0,0.0,0.0,4.0142,4.0412,4.0591,4.0023,3.9649,3.9262,0.0,3.6763,0.0,0.0,0.0,0.0,0.0,0.0,0.0,0.0,0.0,0.0,0.0,0.0,0.0,2.6278,0.0,2.6278,0.0,0.0,0.0,0.0,0.0,0.0,0.0,3.6505,0.0,0.0,0.0,0.0,0.0,0.0,0.0,0.0,0.0,0.0,0.0,4.1796,4.1204,4.1204,4.0493,4.007,4.007,4.007,4.007,4.007,4.007,4.007,4.007,4.007,4.007,4.007,4.007,4.007,4.007,4.007,4.007,4.007,4.007,4.007,4.007,4.007,4.007,4.007,4.007,4.007,4.007,3.522,3.5205,3.507,3.5444,3.4936,3.4711,3.54,3.534,3.5295,3.5489,3.5504,3.5311,3.4799,3.5064,3.4801,3.3741,3.3687,3.2948,0.0,0.0,3.0321,2.9004,2.8878,2.8926,2.9193,2.8323,2.8008,2.8323,2.7814,2.7625,2.7625,2.7625,2.7625,2.7685,2.8981,3.0028,3.0836,3.1704,3.3604,3.6073,3.6552,3.7599,3.8931,3.9469,3.9574,3.9424,3.9424,3.929,3.908,3.8736,3.6896,0.0,3.5789,0.0,0.0,0.0,0.0,0.0,2.8592,0.0,0.0,0.0,0.0,0.0,0.0,0.0,0.0,0.0,0.0,0.0,0.0,0.0,0.0,0.0,0.0,3.5547,0.0,0.0,0.0,0.0,0.0,0.0,0.0,0.0,0.0,4.2354,4.1424,4.0899,4.0899,4.0375,4.007,4.007,4.007,4.007,4.007,4.007,4.007,4.007,4.007,4.007,4.007,4.007,4.007,4.007,4.007,4.007,4.007,4.007,4.007,4.007,4.007,4.007,4.007,4.007,4.007,4.007,3.5489,3.4457,3.3963,3.528,3.4936,3.4711,3.54,3.4936,3.4756,3.5415,3.5504,3.5148,3.4124,3.6675,3.7545,3.5442,0.0,3.6558,3.2856,0.0,3.0743,0.0,0.0,2.8915,0.0,2.8434,2.8248,2.7655,2.7625,2.7625,2.7625,2.7625,2.7625,2.7685,2.8981,3.0298,3.1526,3.2886,3.4951,3.7345,3.7375,3.7419,3.7689,0.0,3.9978,3.9424,3.9424,0.0,0.0,3.7,3.6088,0.0,0.0,0.0,0.0,0.0,0.0,0.0,0.0,0.0,0.0,2.7955,0.0,0.0,0.0,0.0,2.5953,0.0,0.0,0.0,0.0,0.0,0.0,0.0,0.0,0.0,0.0,0.0,0.0,0.0,0.0,0.0,0.0,0.0,0.0,4.2236,4.095,4.0121,4.0121,4.0087,4.007,4.007,4.007,4.007,4.007,4.007,4.007,4.007,4.007,4.007,4.007,4.007,4.007,4.007,4.007,4.007,4.007,4.007,4.007,4.007,4.007,4.007,4.007,4.007,4.007,4.007,3.4651,3.4113,3.3769,3.4666,3.3918,3.3395,3.4068,3.4741,3.5699,3.721,3.7419,0.0,0.0,4.0127,4.0392,0.0,0.0,3.8477,3.5326,3.5079,0.0,0.0,0.0,3.0967,0.0,0.0,2.9325,2.8248,2.8248,2.8248,2.8248,2.7784,2.7814,2.8293,2.919,3.0791,3.2856,0.0,0.0,0.0,0.0,3.6656,3.7479,0.0,0.0,3.8197,3.9095,3.8975,0.0,3.7883,3.6746,3.5459,3.522,3.4233,3.3125,3.2901,3.2527,0.0,0.0,0.0,3.2183,2.9564,0.0,0.0,0.0,0.0,0.0,0.0,0.0,0.0,0.0,0.0,0.0,0.0,0.0,0.0,0.0,0.0,0.0,0.0,0.0,0.0,0.0,0.0,0.0,4.0849,3.9895,3.9558,4.007,4.007,4.007,4.007,4.007,4.007,4.007,4.007,4.007,4.007,4.007,4.007,4.007,4.007,4.007,4.007,4.007,4.007,4.007,4.007,4.007,4.007,4.007,4.007,4.007,4.007,4.007,4.007,3.4726,3.4307,3.3978,3.4397,3.3589,3.308,3.3739,3.4786,3.6118,0.0,3.8452,0.0,4.1773,0.0,4.2056,0.0,4.1529,3.9715,3.6017,3.6473,0.0,3.1643,3.2369,0.0,0.0,0.0,0.0,0.0,2.928,2.916,2.8936,2.8248,2.8173,2.8607,2.8786,3.0597,3.3499,3.3499,3.528,0.0,0.0,3.5998,0.0,0.0,3.7015,3.7554,0.0,3.8616,3.8003,3.7793,3.6731,3.5579,3.6013,3.4966,3.3664,3.4083,3.3619,3.2841,3.2362,3.3335,0.0,3.127,3.1749,0.0,2.9002,0.0,0.0,0.0,0.0,0.0,0.0,0.0,0.0,0.0,0.0,0.0,0.0,3.3235,0.0,0.0,0.0,0.0,0.0,0.0,3.9687,3.9679,3.9204,3.9174,0.0,0.0,4.007,4.007,4.007,4.007,4.007,4.007,4.007,4.007,4.007,4.007,4.007,4.007,4.007,4.007,4.007,4.007,4.007,4.007,4.007,4.007,4.007,4.007,4.007,4.007,4.007,4.007,3.5644,3.5048,3.4583,3.4535,3.3995,0.0,0.0,0.0,3.5998,0.0,3.8736,4.0083,4.1474,4.2731,4.2782,4.1016,4.1944,4.0464,3.532,3.666,0.0,0.0,3.306,3.3425,3.253,0.0,0.0,0.0,0.0,3.0193,2.9564,2.8906,2.8607,2.8562,2.7874,2.9729,3.335,3.335,3.5609,3.896,3.6492,3.5504,3.5519,3.5579,3.6357,3.7494,3.8197,3.8003,3.7315,3.6731,3.6073,3.5504,3.5504,3.5504,3.5504,3.5504,3.5504,3.522,3.3948,3.4083,3.4262,3.2946,0.0,0.0,0.0,0.0,3.0492,0.0,0.0,0.0,0.0,0.0,0.0,0.0,0.0,0.0,0.0,0.0,0.0,0.0,0.0,0.0,0.0,3.8773,3.8858,3.8863,3.8857,3.8871,0.0,0.0,4.007,4.007,4.0121,4.0121,4.007,4.007,4.007,4.007,4.007,4.007,4.007,4.007,4.007,4.007,4.007,4.007,4.007,4.007,4.007,4.007,4.007,4.007,4.007,4.007,4.007,4.007,3.5615,3.5895,3.6048,0.0,3.4319,3.3559,0.0,0.0,0.0,0.0,4.0786,4.2491,4.4811,4.5349,4.5108,4.4161,4.3953,0.0,0.0,0.0,0.0,3.6977,3.749,3.7172,3.5679,3.4952,0.0,3.2003,0.0,3.0193,2.9564,2.8906,2.8607,2.8562,2.7874,2.8951,3.127,3.127,3.3006,3.5729,3.5564,3.5504,0.0,0.0,3.712,3.7554,3.8736,3.8407,3.7389,3.7225,3.6432,3.5504,3.5504,3.5504,3.5504,3.5504,3.5504,3.5429,3.5085,3.5474,3.5639,3.4307,3.4487,3.4637,0.0,0.0,0.0,0.0,0.0,0.0,0.0,0.0,0.0,0.0,0.0,0.0,0.0,0.0,0.0,3.2788,0.0,0.0,0.0,3.6472,3.6936,3.7982,3.7083,3.7185,0.0,0.0,0.0,4.007,4.0629,4.0646,4.0087,4.007,4.007,4.007,4.007,4.007,4.007,4.007,4.007,4.007,4.007,4.007,4.007,4.007,4.007,4.007,4.007,4.007,4.007,4.007,4.007,4.007,3.6566,3.6911,3.6988,3.6227,0.0,0.0,3.491,3.4936,0.0,3.9544,4.0876,0.0,4.4362,4.5095,4.5289,4.49,4.4272,0.0,4.2013,0.0,0.0,3.9225,3.9682,3.9276,3.7609,3.656,0.0,3.3365,0.0,3.118,2.9968,2.9325,2.9026,2.8981,2.8008,2.8996,3.148,3.2916,3.4068,3.5011,3.5953,0.0,0.0,3.6836,3.7539,3.8347,3.8811,3.8482,3.7749,3.7195,3.6522,3.5893,3.5594,3.5504,3.5504,3.5504,3.5504,3.5504,3.5504,3.6178,3.6701,3.5953,3.6492,3.6866,3.5504,3.4771,3.4322,0.0,0.0,0.0,0.0,0.0,0.0,0.0,0.0,0.0,0.0,0.0,0.0,0.0,3.3385,0.0,0.0,3.563,3.6307,3.6798,3.6688,0.0,0.0,0.0,0.0,4.0087,4.0493,4.0663,4.0578,4.024,4.007,4.007,4.007,4.007,4.007,4.007,4.007,4.007,4.007,4.007,4.007,4.007,4.007,4.007,4.007,4.007,4.007,4.007,4.007,4.007,3.8033,3.8092,0.0,0.0,0.0,0.0,0.0,3.6139,0.0,3.9529,0.0,4.1474,4.2626,4.3763,4.4377,4.4197,0.0,4.2851,4.1713,4.2626,4.2228,4.0177,4.0575,4.0257,3.8957,3.769,3.6248,0.0,0.0,3.2467,3.0492,2.9864,2.9535,2.94,2.8233,0.0,0.0,3.5519,3.6222,3.5489,3.6866,3.7404,3.736,3.6911,3.7853,3.932,3.8542,3.8257,3.8093,3.6985,3.6552,3.6372,3.5714,3.5564,3.5609,3.5534,3.5504,3.5504,3.5504,3.6312,3.7195,3.736,3.8287,3.8901,3.7898,3.6746,3.5549,3.4382,3.3619,3.2931,0.0,0.0,0.0,0.0,0.0,0.0,0.0,0.0,0.0,0.0,0.0,0.0,0.0,0.0,3.6273,3.5761,3.6831,0.0,0.0,0.0,0.0,4.0257,4.0324,0.0,4.1204,0.0,4.0172,4.007,4.007,4.007,4.007,4.007,4.007,4.007,4.007,4.007,4.007,4.007,4.007,4.007,4.007,4.007,4.007,4.007,4.007,4.007,3.9575,3.9679,0.0,0.0,0.0,3.9834,4.0578,4.044,4.0771,4.2432,4.3688,4.4526,4.4751,4.499,4.4691,4.3599,4.3404,0.0,0.0,0.0,0.0,4.2639,4.1811,4.1186,4.0948,3.9118,3.7222,0.0,0.0,0.0,3.0492,2.9864,2.928,2.8757,2.8532,0.0,3.1779,3.2901,0.0,3.4816,3.6671,3.7404,3.7464,3.7898,3.8616,3.926,3.8018,3.7584,3.7539,3.733,3.6911,3.6372,3.5714,3.5878,3.6207,3.5669,3.5504,3.5504,3.5504,3.5669,3.6088,3.715,3.7584,3.7988,3.8871,3.8452,3.7823,3.7584,3.7015,3.6193,3.5026,0.0,0.0,0.0,0.0,0.0,0.0,0.0,0.0,0.0,0.0,3.5502,0.0,0.0,0.0,0.0,0.0,0.0,0.0,0.0,0.0,0.0,4.1593,0.0,0.0,0.0,4.0696,4.007,4.007,4.007,4.007,4.007,4.007,4.007,4.007,4.007,4.007,4.007,4.007,4.007,4.007,4.007,4.007,4.007,4.007,4.007,4.002,0.0,0.0,0.0,0.0,0.0,0.0,4.3349,4.3673,4.2925,4.2791,4.2761,4.2761,4.3673,4.4018,4.3389,4.3329,4.3195,4.2851,4.2536,4.2342,4.2327,4.1713,4.122,4.0876,3.9589,3.7808,3.5504,0.0,0.0,3.0028,0.0,0.0,2.9639,0.0,3.148,0.0,0.0,0.0,3.6148,3.7793,3.8452,3.8407,3.8018,3.8512,3.9301,3.8402,3.8035,3.7937,3.7166,3.6731,3.6432,3.6118,3.5998,3.5983,3.6013,3.5774,3.5504,3.5504,3.5744,3.6163,3.6776,3.7419,3.8003,3.8302,3.8123,3.7793,3.7464,3.7404,3.7225,3.6611,3.4906,0.0,0.0,0.0,0.0,0.0,0.0,0.0,0.0,0.0,0.0,0.0,0.0,0.0,0.0,0.0,0.0,0.0,0.0,0.0,0.0,0.0,0.0,0.0,0.0,0.0,4.007,4.007,4.007,4.007,4.007,4.007,4.007,4.007,4.007,4.007,4.007,4.007,4.007,4.007,4.007,4.0121,4.0417,4.0319,4.007,4.0404,3.9834,0.0,0.0,4.2094,0.0,4.3538,4.4906,4.52,4.324,4.2087,4.1384,4.125,4.2611,4.3479,4.3344,4.321,4.291,4.2387,4.2102,4.1773,4.1399,4.1115,4.0786,4.0412,3.9753,3.8272,0.0,0.0,0.0,0.0,0.0,0.0,0.0,0.0,0.0,0.0,0.0,3.7494,3.8485,3.9495,3.9935,3.9798,3.8652,3.8941,3.9893,3.9206,3.8996,3.8914,3.7698,3.7107,3.6938,3.6753,3.6432,3.6193,3.6567,3.6222,3.5714,3.5714,3.5983,3.6379,3.6682,3.7466,3.8182,3.7925,3.7795,3.7485,3.6884,3.7091,3.733,3.706,3.6297,0.0,0.0,0.0,0.0,0.0,0.0,0.0,0.0,0.0,0.0,3.4689,0.0,0.0,0.0,0.0,0.0,0.0,0.0,0.0,0.0,0.0,4.0967,4.0984,0.0,4.0832,0.0,4.007,4.007,4.007,4.007,4.007,4.007,4.007,4.007,4.007,4.007,4.007,4.007,4.007,4.007,4.0154,4.0703,4.0607,4.0303,0.0,0.0,0.0,0.0,0.0,0.0,4.4214,4.447,4.4631,4.4975,4.4915,4.4616,4.4003,4.4107,4.3988,4.3389,4.2791,4.2432,4.2357,4.125,4.0816,4.1354,4.0247,3.9843,4.0382,3.9753,3.8691,0.0,0.0,0.0,0.0,0.0,0.0,0.0,0.0,0.0,0.0,3.8394,3.9687,4.1548,4.1692,4.1739,4.166,4.0944,4.1135,4.1613,4.0304,4.0286,4.0671,3.9952,3.911,3.8273,3.7586,3.7689,3.8018,3.7479,3.6881,3.6402,3.6402,3.6013,3.5909,3.7198,3.7604,3.8027,3.9281,3.9118,3.846,3.7653,3.7446,3.706,3.5893,3.6073,3.6622,0.0,0.0,0.0,0.0,0.0,0.0,3.6522,0.0,0.0,0.0,3.5858,0.0,0.0,0.0,0.0,0.0,0.0,0.0,4.0037,0.0,4.0189,4.0223,4.0882,4.0832,4.007,4.007,4.007,4.007,4.007,4.007,4.007,4.007,4.007,4.007,4.007,4.007,4.007,4.007,4.007,4.0154,4.0685,4.0856,4.0931,0.0,0.0,0.0,0.0,0.0,0.0,0.0,4.4731,4.4709,4.5723,4.4843,4.4018,4.3748,4.3718,4.3614,4.3359,4.2746,4.2192,4.1803,4.0905,4.0337,4.0217,3.9709,3.9544,3.9798,3.9559,3.8751,0.0,0.0,0.0,0.0,0.0,0.0,0.0,0.0,3.7899,3.9532,3.9898,4.0833,4.1997,4.1997,4.1997,4.1917,4.1276,4.1453,4.1933,4.1536,4.151,4.1727,4.1934,4.0836,3.9455,3.9515,3.9482,3.9388,3.9544,3.9091,3.8529,3.806,3.7747,3.7574,3.766,3.7989,3.8394,3.8567,3.869,3.8615,3.7888,3.7901,3.8193,3.8534,3.8099,3.7886,0.0,0.0,0.0,0.0,0.0,0.0,0.0,0.0,3.6495,0.0,0.0,0.0,0.0,0.0,0.0,0.0,0.0,0.0,3.8751,0.0,4.0341,3.9445,4.0612,4.0832,4.007,4.007,4.007,4.007,4.007,4.007,4.007,4.007,4.0286,4.0528,4.0254,4.0286,4.0528,4.0204,4.007,4.0272,4.1655,4.1967,4.1806,4.2993,0.0,4.2446,0.0,4.3991,4.3905,4.5825,4.5388,4.5156,4.6095,4.4958,4.396,4.3484,4.3469,4.3393,4.3134,4.2591,4.2002,4.1533,4.0867,4.0164,3.9439,3.9424,0.0,3.9809,3.9793,3.9449,3.8748,3.7949,0.0,0.0,0.0,0.0,0.0,3.9758,4.0337,4.1015,4.1488,4.2129,4.2769,4.2769,4.2769,4.2704,4.2276,4.2329,4.2766,4.2949,4.2957,4.2983,4.3514,4.2657,4.132,4.1289,4.0956,4.0713,4.1164,4.0812,4.02,3.9642,3.9354,3.9092,3.8576,3.8843,3.9079,3.8593,3.882,3.9056,3.8577,3.8928,3.9575,4.0595,4.0029,3.9612,4.0177,0.0,0.0,0.0,0.0,0.0,0.0,3.6904,3.6276,3.5179,3.4655,0.0,0.0,0.0,0.0,0.0,0.0,0.0,0.0,0.0,0.0,0.0,4.024,4.0612,4.007,4.007,4.007,4.007,4.007,4.007,4.007,4.007,4.0336,4.0655,4.0417,4.0714,4.122,4.0857,4.0813,4.1201,4.2562,4.2835,4.2623,4.6106,4.5374,4.53,4.763,4.6556,4.5767,4.7013,4.6582,4.6189,4.6189,4.6173,4.5564,4.3982,4.3758,4.3495,4.2772,4.2092,4.1705,4.1689,4.1093,4.0309,0.0,0.0,3.9793,4.069,4.0675,4.1064,4.1965,0.0,0.0,3.891,0.0,3.8902,4.2078,4.0658,4.1205,4.3273,4.329,4.3739,4.457,4.457,4.457,4.457,4.457,4.457,4.457,4.457,4.4553,4.457,4.457,4.457,4.4236,4.2504,4.1981,4.1965,4.1981,4.1485,4.1004,4.0988,4.0521,3.9978,4.0081,4.0084,4.0067,4.007,4.0087,4.0069,4.0045,4.0567,4.1004,4.102,4.1517,4.2011,4.214,0.0,0.0,0.0,0.0,0.0,0.0,3.8014,3.7239,3.6741,0.0,0.0,0.0,0.0,0.0,0.0,0.0,0.0,3.8954,3.9005,0.0,3.8988,3.9715,4.0087,4.007,4.007,4.007,4.007,4.007,4.007,4.007,4.007,4.0121,4.0171,4.0655,4.1388,4.2163,4.2116,4.2566,4.3273,4.3224,4.3175,4.3279,4.6209,4.594,4.5958,4.6676,4.632,4.6131,4.6629,4.5975,4.5721,4.6524,4.6059,4.531,4.4318,4.4489,4.4376,0.0,4.2984,4.2588,0.0,4.1923,4.1478,4.1162,4.1162,4.128,4.1609,4.1609,4.1723,4.1997,0.0,0.0,0.0,4.0804,4.1765,4.3826,4.333,4.3538,4.4196,4.4196,4.4327,4.4587,4.4587,4.4587,4.4587,4.4587,4.4587,4.4587,4.4587,4.4587,4.4587,4.4587,4.4587,4.4514,4.3931,4.3798,4.3798,4.3798,4.3631,4.3331,4.2758,4.2499,4.2088,4.1104,4.0855,4.0841,4.0848,4.1238,4.1743,4.2253,4.2063,4.1978,4.2484,4.2233,4.1981,4.2088,4.2044,0.0,0.0,0.0,0.0,0.0,3.6145,3.5318,0.0,3.4738,0.0,0.0,0.0,0.0,0.0,0.0,0.0,0.0,3.9715,0.0,3.9005,3.9715,4.007,4.007,4.007,4.0341,4.0849,4.0849,4.0849,4.0849,4.0849,4.1069,4.1415,4.0688,4.1349,4.2794,4.1867,4.1938,4.274,4.3663,4.4004,4.4039,4.7239,4.7239,4.7239,4.7239,4.701,4.6898,4.7018,4.6304,4.5958,4.6718,4.6317,4.5635,4.498,4.5184,0.0,4.3832,4.3363,4.3105,4.3105,4.27,4.2332,4.1997,4.1997,4.2125,4.2458,0.0,0.0,4.297,4.2559,4.2657,4.3149,4.3149,4.3656,4.4587,4.4587,4.4587,4.4587,4.4587,4.4587,4.4587,4.4587,4.4587,4.4587,4.4587,4.4587,4.4587,4.4587,4.4587,4.4587,4.4587,4.4587,4.4587,4.4587,4.4587,4.4587,4.4587,4.4587,4.4468,4.3995,4.3859,4.3572,4.2337,4.2033,4.1965,4.1677,4.2185,4.2844,4.3318,4.3233,4.3265,4.3714,4.335,4.297,4.297,4.297,4.2774,4.2201,0.0,0.0,0.0,0.0,0.0,0.0,3.6354,0.0,0.0,0.0,0.0,0.0,0.0,0.0,3.8751,4.0341,0.0,3.9411,3.9851,4.007,4.007,4.0358,4.0899,4.161,4.161,4.161,4.161,4.161,4.1852,4.2139,4.1526,4.2223,4.3573,4.2689,4.2808,4.356,4.4233,4.4474,4.4474,4.8934,4.8934,0.0,0.0,4.8291,0.0,4.7784,4.7158,4.6701,4.6633,4.6633,4.638,4.5703,4.5618,4.5026,4.3492,0.0,0.0,0.0,4.3317,4.2982,4.2189,4.2141,4.2534,4.3366,4.3366,4.3814,4.4587,4.4587,4.4587,4.4587,4.4587,4.4587,4.4587,4.4587,4.4587,4.4587,4.4587,4.4587,4.4587,4.4587,4.4587,4.4587,4.4587,4.4587,4.4587,4.4587,4.4587,4.4587,4.4587,4.4587,4.4587,4.4587,4.4587,4.4587,4.4587,4.4587,4.4587,4.4587,4.4587,4.4401,4.3606,4.342,4.3234,4.2523,4.2963,4.3504,4.3504,4.4079,4.4587,4.4587,4.4587,4.4587,4.4587,4.4451,4.3842,4.2422,0.0,0.0,0.0,0.0,0.0,0.0,4.0493,4.0375,0.0,0.0,0.0,0.0,0.0,4.0257,4.0155,4.0933,4.1001,4.024,4.0223,4.0223,4.024,4.095,4.166,4.2371,4.2371,4.2371,4.2371,4.2371,4.2371,4.2424,4.2927,4.3627,4.4386,4.425,4.4751,4.5407,4.4814,4.4626,4.4682,0.0,0.0,4.7986,4.7411,4.7175,4.687,4.6312,4.6075,4.5754,4.5179,4.5111,4.5026,4.4874,4.484,4.4716,4.4344,4.431,4.431,4.431,4.3715,4.3574,4.3972,4.338,4.3461,4.4253,4.431,4.4384,4.4587,4.4587,4.4587,4.4587,4.4587,4.4587,4.4587,4.4587,4.4587,4.4587,4.4587,4.4587,4.4587,4.4587,4.4587,4.4587,4.4587,4.4587,4.4587,4.4587,4.4587,4.4587,4.4587,4.4587,4.4587,4.4587,4.4587,4.4587,4.4587,4.4587,4.4587,4.4587,4.4587,4.4401,4.3606,4.342,4.3369,4.32,4.3758,4.4316,4.4316,4.4451,4.4587,4.4587,4.4587,4.4587,4.4587,4.3132,4.188,4.1508,4.0306,0.0,0.0,3.8739,3.9312,4.0273,4.0206,4.0172,0.0,0.0,0.0,0.0,4.1407,4.21,4.0984,4.2219,4.254,4.1779,4.1762,4.1762,4.1762,4.1948,4.2439,4.3149,4.3149,4.3149,4.3149,4.3149,4.3149,4.3098,4.2683,4.3333,4.449,4.3841,4.4403,4.5407,4.4814,4.4906,4.5232,4.7919,4.7648,4.7394,4.731,4.6752,4.6278,4.621,4.5635,4.5043,4.4621,4.4587,4.4587,4.4587,4.4587,4.4434,4.4079,4.4367,4.4418,4.4079,4.3656,4.3606,4.4028,4.3639,4.3792,4.4553,4.4587,4.4587,4.4587,4.4587,4.4587,4.4587,4.4587,4.4587,4.4587,4.4587,4.4587,4.4587,4.4587,4.4587,4.4587,4.4587,4.4587,4.4587,4.4587,4.4587,4.4587,4.4587,4.4587,4.4587,4.4587,4.4587,4.4587,4.4587,4.4587,4.4587,4.4587,4.4587,4.4587,4.4587,4.4587,4.4485,4.4062,4.3944,4.3944,4.3944,4.4282,4.4587,4.4587,4.4587,4.4587,4.4587,4.4587,4.4468,4.4113,4.2455,4.1085,4.073,3.9715,0.0,3.9394,4.0054,4.0933,4.2033,4.183,4.1627,4.161,0.0,0.0,4.0578,4.2692,4.3098,4.1271,4.2642,4.3064,4.2303,4.2286,4.2472,4.2811,4.2811,4.3217,4.3944,4.3944,4.3944,4.3944,4.3944,4.3944,4.391,4.3504,4.3826,4.4536,4.4113,4.4568,4.5459,4.5142,4.5232,4.5459,4.7479,4.7056,4.6836,4.7479,4.6447,4.5788,4.6515,4.5466,4.4587,4.4587,4.4587,4.4587,4.4587,4.4587,4.4316,4.3656,4.4198,4.4198,4.3301,4.3149,4.3183,4.3403,4.3301,4.3673,4.4553,4.4587,4.4587,4.4587,4.4587,4.4587,4.4587,4.4587,4.4587,4.4587,4.4587,4.4587,4.4587,4.4587,4.4587,4.4587,4.4587,4.4587,4.4587,4.4587,4.4587,4.4587,4.4587,4.4587,4.4587,4.4587,4.4587,4.4587,4.4587,4.4587,4.4587,4.4587,4.4587,4.4587,4.4587,4.4587,4.4587,4.4587,4.4587,4.4587,4.4587,4.4587,4.4587,4.4587,4.4587,4.4587,4.4587,4.4587,4.4282,4.3386,4.1813,4.0476,3.9834,0.0,3.9377,4.0865,4.1982,4.3149,4.4451,4.3978,4.3589,4.3589,4.3589,4.325,0.0,4.3809,4.3656,4.161,4.2878,4.3284,4.2642,4.2642,4.2963,4.3589,4.3589,4.3944,4.4587,4.4587,4.4587,4.4587,4.4587,4.4587,4.4587,4.4587,4.4587,4.4626,4.472,4.5089,4.5648,4.5648,4.5768,4.5957,4.6143,4.5957,4.5923,4.6024,4.5331,4.501,4.5754,4.5145,4.4587,4.4587,4.4587,4.4587,4.4587,4.4587,4.4536,4.4401,4.4502,4.3978,4.2557,4.1897,4.2117,4.3369,4.2811,4.3132,4.4553,4.4587,4.4587,4.4587,4.4587,4.4587,4.4587,4.4587,4.4587,4.4587,4.4587,4.4587,4.4587,4.4587,4.4587,4.4587,4.4587,4.4587,4.4587,4.4587,4.4587,4.4587,4.4587,4.4587,4.4587,4.4587,4.4587,4.4587,4.4587,4.4587,4.4587,4.4587,4.4587,4.4587,4.4587,4.4587,4.4587,4.4587,4.4587,4.4587,4.4587,4.4587,4.4587,4.4587,4.4587,4.4587,4.4587,4.4587,4.4113,4.2692,4.0189,3.8379,3.8261,0.0,3.8633,4.0121,4.2625,4.4316,4.4553,4.4468,4.4401,4.4401,4.4401,4.4062,4.3284,4.4096,4.4113,4.3115,4.3944,4.435,4.4215,4.4215,4.4282,4.4401,4.4401,4.4468,4.4587,4.4587,4.4587,4.4587,4.4587,4.4587,4.4587,4.4587,4.4587,4.4626,4.5178,4.5732,4.624,4.624,4.7044,4.7913,4.5703,4.5382,4.5348,4.6143,4.5348,4.4959,4.6109,4.5314,4.4587,4.4587,4.4587,4.4587,4.4587,4.4587,4.4418,4.3995,4.3589,4.2878,4.1779,4.2134,4.2523,4.2811,4.2861,4.3436,4.4553,4.4587,4.4587,4.4587,4.4587,4.4587,4.4587,4.4587,4.4587,4.4587,4.4587,4.4587,4.4587,4.4587,4.4587,4.4587,4.4587,4.4587,4.4587,4.4587,4.4587,4.4587,4.4587,4.4587,4.4587,4.4587,4.4587,4.4587,4.4587,4.4587,4.4587,4.4587,4.4587,4.4587,4.4587,4.4587,4.4587,4.4587,4.4587,4.4587,4.4587,4.4587,4.4587,4.4587,4.4587,4.4587,4.4587,4.4587,4.3944,4.2016,4.024,0.0,0.0,3.9089,3.9783,4.166,4.3487,4.4587,4.4587,4.4587,4.4587,4.4587,4.4587,4.4418,4.4062,4.4384,4.4418,4.4062,4.4401,4.4587,4.4587,4.4587,4.4587,4.4587,4.4587,4.4587,4.4587,4.4587,4.4587,4.4587,4.4587,4.4759,4.5035,4.472,4.4814,4.5089,4.5407,4.5865,4.643,4.6819,4.7383,4.7901,4.5331,4.4976,4.4993,4.6312,4.5449,4.5026,4.6346,4.5432,4.4587,4.4587,4.4587,4.4587,4.4587,4.4587,4.4333,4.3741,4.3149,4.2506,4.1762,4.2963,4.3267,4.2337,4.32,4.3961,4.457,4.4587,4.4587,4.4587,4.4587,4.4587,4.4587,4.4587,4.4587,4.4587,4.4587,4.4587,4.4587,4.4587,4.4587,4.4587,4.4587,4.4587,4.4587,4.4587,4.4587,4.4587,4.4587,4.4587,4.4587,4.4587,4.4587,4.4587,4.4587,4.4587,4.4587,4.4587,4.4587,4.4587,4.4587,4.4587,4.4587,4.4587,4.4587,4.4587,4.4587,4.4587,4.4587,4.4587,4.4587,4.4587,4.4587,4.4587,4.3893,4.1796,0.0,0.0,0.0,4.0358,4.1102,4.3166,4.4113,4.4587,4.4587,4.4587,4.4587,4.4587,4.472,4.4814,4.4814,4.4814,4.4788,4.4823,4.4671,4.4587,4.4587,4.4587,4.4671,4.484,4.4654,4.4756,4.5077,4.4739,4.4671,4.484,4.4654,4.4852,4.5284,4.4961,4.5089,4.5511,4.5833,4.6209,4.671,4.7385,4.7741,4.7995,4.4654,4.4621,4.484,4.5652,4.5111,4.4857,4.5669,4.5094,4.4587,4.4587,4.4587,4.4587,4.4587,4.4587,4.4553,4.4502,4.4434,4.4079,4.3301,4.4028,4.3826,4.2354,4.3707,4.4519,4.4587,4.4587,4.4587,4.4587,4.4587,4.4587,4.4587,4.4587,4.4587,4.4587,4.4587,4.4587,4.4587,4.4587,4.4587,4.4587,4.4587,4.4587,4.4587,4.4587,4.4587,4.4587,4.4587,4.4587,4.4587,4.4587,4.4587,4.4587,4.4587,4.4587,4.4587,4.4587,4.4587,4.4587,4.4587,4.4587,4.4587,4.4587,4.4587,4.4587,4.4587,4.4587,4.4587,4.4587,4.4587,4.4587,4.4587,4.4587,4.4062,4.2472,0.0,0.0,4.1136,4.1119,4.1694,4.3234,4.4113,4.4587,4.4587,4.4587,4.4587,4.4587,4.5142,4.5407,4.5407,4.5407,4.5505,4.5602,4.4942,4.4587,4.4587,4.4587,4.4925,4.5618,4.4925,4.5297,4.6583,4.5196,4.4959,4.5585,4.4891,4.4626,4.472,4.5232,4.5459,4.5597,4.6774,4.7299,4.7385,4.8035,4.8744,4.9441,4.4587,4.4587,4.4823,4.5568,4.5077,4.484,4.5602,4.506,4.4587,4.4587,4.4587,4.4587,4.4587,4.4587,4.4587,4.4587,4.413,4.3741,4.3436,4.369,4.3809,4.3707,4.4265,4.4587,4.4587,4.4587,4.4587,4.4587,4.4587,4.4587,4.4587,4.4587,4.4587,4.4587,4.4587,4.4587,4.4587,4.4587,4.4587,4.4587,4.4587,4.4587,4.4587,4.4587,4.4587,4.4587,4.4587,4.4587,4.4587,4.4587,4.4587,4.4587,4.4587,4.4587,4.4587,4.4587,4.4587,4.4587,4.4587,4.4587,4.4587,4.4587,4.4587,4.4587,4.4587,4.4587,4.4587,4.4587,4.4587,4.4587,4.4587,4.4587,4.4079,4.254,0.0,4.2405,4.1948,4.2286,4.2963,4.4012,4.4401,4.4776,4.5142,4.5142,4.5527,4.6446,4.6718,4.7061,4.7586,4.7163,4.6891,4.6968,4.6689,4.6322,4.594,4.55,4.5652,4.6363,4.5635,4.5821,4.6769,4.621,4.5872,4.5686,4.5399,4.5443,4.5681,4.5545,4.5982,4.6728,4.7194,4.7692,4.8229,4.8861,4.9627,5.0343,4.4587,4.4587,4.4739,4.5263,4.4925,4.4756,4.528,4.4925,4.4587,4.4587,4.4587,4.4587,4.4587,4.4587,4.4587,4.4587,4.4096,4.3792,4.3792,4.3792,4.4012,4.4553,4.4587,4.4587,4.4587,4.4587,4.4587,4.4587,4.4587,4.4587,4.4587,4.4587,4.4587,4.4587,4.4587,4.4587,4.4587,4.4587,4.4587,4.4587,4.4587,4.4587,4.4587,4.4587,4.4587,4.4587,4.4587,4.4587,4.4587,4.4587,4.4587,4.4587,4.4587,4.4587,4.4587,4.4587,4.4587,4.4587,4.4587,4.4587,4.4587,4.4587,4.4587,4.4587,4.4587,4.4587,4.4587,4.4587,4.4587,4.4587,4.4587,4.4587,4.4231,4.3183,4.3453,4.3606,4.3081,4.3453,4.3978,4.4519,4.4776,4.5052,4.5459,4.5699,4.6192,4.7227,4.7731,4.82,4.8782,4.8253,4.798,4.8037,4.8285,4.8222,4.7791,4.6862,4.6493,4.6786,4.6295,4.6549,4.7479,4.7005,4.675,4.6715,4.6493,4.6532,4.6802,4.6579,4.6866,4.7428,4.7614,4.8,4.8551,4.9032,4.9536,5.005,4.4587,4.4587,4.4587,4.4587,4.4587,4.4587,4.4587,4.4587,4.4587,4.4587,4.4587,4.4587,4.4587,4.4587,4.4587,4.4587,4.4587,4.4587,4.4587,4.4587,4.4587,4.4587,4.4587,4.4587,4.4587,4.4587,4.4587,4.4587,4.4587,4.4587,4.4587,4.4587,4.4587,4.4587,4.4587,4.4587,4.4587,4.4587,4.4587,4.4587,4.4587,4.4587,4.4587,4.4587,4.4587,4.4587,4.4587,4.4587,4.4587,4.4587,4.4587,4.4587,4.4587,4.4587,4.4587,4.4587,4.4587,4.4587,4.4587,4.4587,4.4587,4.4587,4.4587,4.4587,4.4587,4.4587,4.4587,4.4587,4.4587,4.4587,4.4587,4.4587,4.4604,4.4587,4.4587,4.4587,4.4587,4.4587,4.4587,4.4643,4.5142,4.5511,4.5511,4.6063,4.6448,4.6448,4.7815,4.8612,4.8612,4.8612,4.8667,4.8817,4.9596,4.9953,4.9902,4.8522,4.7485,4.6786,4.6786,4.7564,4.8951,4.7479,4.7592,4.8893,4.8147,4.7753,4.7731,4.8353,4.8125,4.7488,4.8075,4.8324,4.8324,4.8324,4.8324,4.8453,4.4587,4.4587,4.4587,4.4587,4.4587,4.4587,4.4587,4.4587,4.4587,4.4587,4.4587,4.4587,4.4587,4.4587,4.4587,4.4587,4.4587,4.4587,4.4587,4.4587,4.4587,4.4587,4.4587,4.4587,4.4587,4.4587,4.4587,4.4587,4.4587,4.4587,4.4587,4.4587,4.4587,4.4587,4.4587,4.4587,4.4587,4.4587,4.4587,4.4587,4.4587,4.4587,4.4587,4.4587,4.4587,4.4587,4.4587,4.4587,4.4587,4.4587,4.4587,4.4587,4.4587,4.4587,4.4587,4.4587,4.4587,4.4587,4.4587,4.4587,4.4587,4.4587,4.4587,4.4587,4.4587,4.4587,4.4587,4.4587,4.4993,4.5365,4.5365,4.5788,4.5957,4.5449,4.5365,4.5179,4.4654,4.4587,4.4776,4.5178,4.5874,4.6669,4.7611,4.8343,4.9217,5.0246,5.1256,5.1578,5.0994,5.0976,5.1025,5.1053,5.1308,5.1158,5.067,4.9806,4.9205,4.8994,4.8994,4.9572,5.0445,5.0045,4.9767,4.9678,4.9449,4.8954,4.8353,4.855,4.8744,4.8897,4.8449,4.9022,5.005,5.005,5.005,5.0178,4.4587,4.4587,4.4587,4.4587,4.4587,4.4587,4.4587,4.4587,4.4587,4.4587,4.4587,4.4587,4.4587,4.4587,4.4587,4.4587,4.4587,4.4587,4.4587,4.4587,4.4587,4.4587,4.4587,4.4587,4.4587,4.4587,4.4587,4.4587,4.4587,4.4587,4.4587,4.4587,4.4587,4.4587,4.4587,4.4587,4.4587,4.4587,4.4587,4.4587,4.4587,4.4587,4.4587,4.4587,4.4587,4.4587,4.4587,4.4587,4.4587,4.4587,4.4587,4.4587,4.4587,4.4587,4.4587,4.4587,4.4587,4.4587,4.4587,4.4587,4.4587,4.4587,4.4807,4.4942,4.4654,4.5026,4.5382,4.5094,4.5618,4.6143,4.6143,4.6498,4.665,4.621,4.6143,4.5974,4.5517,4.5699,4.6035,4.6359,4.7278,4.8253,4.9,4.9735,5.0709,5.1922,5.216,5.2179,5.1995,5.1995,5.1995,5.1995,5.2307,5.2145,5.1399,5.1329,5.082,4.9953,5.0254,5.0695,5.1086,5.1086,5.0992,5.0816,5.0816,5.0502,4.9919,4.9919,4.9802,4.9572,4.937,4.9719,5.0325,5.0325,5.0527,5.082,4.4587,4.4587,4.4587,4.4587,4.4587,4.4587,4.4587,4.4587,4.4587,4.4587,4.4587,4.4587,4.4587,4.4587,4.4587,4.4587,4.4587,4.4587,4.4587,4.4587,4.4587,4.4587,4.4587,4.4587,4.4587,4.4587,4.4587,4.4587,4.4587,4.4587,4.4587,4.4587,4.4587,4.4587,4.4587,4.4587,4.4587,4.4587,4.4587,4.4587,4.4587,4.4587,4.4587,4.4587,4.4587,4.4587,4.4587,4.4587,4.4587,4.4587,4.4587,4.4587,4.4587,4.4587,4.4587,4.4587,4.4587,4.4587,4.4587,4.4621,4.4671,4.4671,4.5297,4.5686,4.4874,4.572,4.6532,4.5923,4.638,4.6887,4.6887,4.6938,4.6972,4.6904,4.6887,4.687,4.6802,4.7374,4.7817,4.7871,4.9066,4.9947,5.0009,5.0605,5.1316,5.205,5.1426,5.1334,5.2068,5.2105,5.2105,5.2105,5.2821,5.2858,5.2105,5.2839,5.2172,5.0172,5.0936,5.131,5.131,5.131,5.1611,5.2224,5.2224,5.2144,5.1995,5.1995,5.1132,4.9866,5.0545,5.0398,4.9793,4.9793,5.0178,5.0582,4.4587,4.4587,4.4587,4.4587,4.4587,4.4587,4.4587,4.4587,4.4587,4.4587,4.4587,4.4587,4.4587,4.4587,4.4587,4.4587,4.4587,4.4587,4.4587,4.4587,4.4587,4.4587,4.4587,4.4587,4.4587,4.4587,4.4587,4.4587,4.4587,4.4587,4.4587,4.4587,4.4587,4.4587,4.4587,4.4587,4.4587,4.4587,4.4587,4.4587,4.4587,4.4587,4.4587,4.4587,4.4587,4.4587,4.4587,4.4587,4.4587,4.4587,4.4587,4.4587,4.4587,4.4587,4.4587,4.4587,4.4587,4.4587,4.4587,4.501,4.5466,4.5466,4.6464,4.709,4.5771,4.5703,4.6058,4.6481,4.7158,4.7682,4.7682,4.8139,4.8342,4.7767,4.7682,4.7462,4.687,4.7374,4.7961,4.8534,4.9853,5.0931,5.1456,5.2205,5.2766,5.2931,5.2784,5.2766,5.2931,5.2949,5.2949,5.2949,5.3115,5.3133,5.2949,5.3115,5.2657,5.1602,5.236,5.2725,5.2725,5.2725,5.2831,5.2937,5.2937,5.2584,5.1995,5.1995,5.1775,5.1426,5.0986,5.1077,5.1463,5.1463,5.0784,4.9829,4.4587,4.4587,4.4587,4.4587,4.4587,4.4587,4.4587,4.4587,4.4587,4.4587,4.4587,4.4587,4.4587,4.4587,4.4587,4.4587,4.4587,4.4587,4.4587,4.4587,4.4587,4.4587,4.4587,4.4587,4.4587,4.4587,4.4587,4.4587,4.4587,4.4587,4.4587,4.4587,4.4587,4.4587,4.4587,4.4587,4.4587,4.4587,4.4587,4.4587,4.4587,4.4587,4.4587,4.4587,4.4587,4.4587,4.4587,4.4587,4.4587,4.4587,4.4587,4.4587,4.4587,4.4587,4.4587,4.4587,4.4587,4.4654,4.501,4.5399,4.5788,4.6143,4.6802,4.7175,4.6397,4.6769,4.7293,4.7327,4.7919,4.8443,4.8443,4.9001,4.924,4.8555,4.8694,4.866,4.7962,4.8455,4.9094,4.9831,5.0832,5.181,5.2504,5.2968,5.3206,5.3206,5.3206,5.3206,5.3206,5.3206,5.3206,5.3206,5.3206,5.3206,5.3206,5.3206,5.3004,5.2582,5.3004,5.3206,5.3206,5.3206,5.3206,5.3206,5.3206,5.2968,5.2564,5.2564,5.2344,5.1995,5.1958,5.1738,5.1426,5.1426,5.0894,5.016,4.4587,4.4587,4.4587,4.4587,4.4587,4.4587,4.4587,4.4587,4.4587,4.4587,4.4587,4.4587,4.4587,4.4587,4.4587,4.4587,4.4587,4.4587,4.4587,4.4587,4.4587,4.4587,4.4587,4.4587,4.4587,4.4587,4.4587,4.4587,4.4587,4.4587,4.4587,4.4587,4.4587,4.4587,4.4587,4.4587,4.4587,4.4587,4.4587,4.4587,4.4587,4.4587,4.4587,4.4587,4.4587,4.4587,4.4587,4.4587,4.4587,4.4587,4.4587,4.4587,4.4587,4.4587,4.4587,4.4587,4.4671,4.4908,4.5534,4.5889,4.6227,4.6836,4.7073,4.7175,4.7175,4.802,4.868,4.8206,4.8578,4.9001,4.9001,4.9563,4.9821,4.9256,4.9622,4.9821,4.9256,4.9664,5.0241,5.0823,5.1593,5.2381,5.3103,5.3206,5.3206,5.3206,5.3206,5.3206,5.3206,5.3206,5.3206,5.3206,5.3206,5.3206,5.3206,5.3206,5.3206,5.3206,5.3206,5.3206,5.3206,5.3206,5.3206,5.3206,5.3206,5.3206,5.3206,5.3206,5.2821,5.227,5.2949,5.238,5.1187,5.1059,5.093,5.0802,4.4587,4.4587,4.4587,4.4587,4.4587,4.4587,4.4587,4.4587,4.4587,4.4587,4.4587,4.4587,4.4587,4.4587,4.4587,4.4587,4.4587,4.4587,4.4587,4.4587,4.4587,4.4587,4.4587,4.4587,4.4587,4.4587,4.4587,4.4587,4.4587,4.4587,4.4587,4.4587,4.4587,4.4587,4.4587,4.4587,4.4587,4.4587,4.4587,4.4587,4.4587,4.4587,4.4587,4.4587,4.4587,4.4587,4.4587,4.4587,4.4587,4.4587,4.4587,4.4587,4.4587,4.4587,4.4587,4.4587,4.5043,4.5568,4.5669,4.665,4.7648,4.775,4.824,4.8697,4.8697,4.8376,4.8206,4.8748,4.8934,4.9001,4.9001,4.9563,4.9976,4.9879,4.9919,4.9976,4.9879,4.9919,5.0033,5.0129,5.1325,5.2381,5.3103,5.3206,5.3206,5.3206,5.3206,5.3206,5.3206,5.3206,5.3206,5.3206,5.3206,5.3206,5.3206,5.3206,5.3206,5.3206,5.3206,5.3206,5.3206,5.3206,5.3206,5.3206,5.3206,5.3206,5.3206,5.3206,5.3151,5.3059,5.317,5.3078,5.2803,5.2087,5.1389,5.0802,4.4587,4.4587,4.4587,4.4587,4.4587,4.4587,4.4587,4.4587,4.4587,4.4587,4.4587,4.4587,4.4587,4.4587,4.4587,4.4587,4.4587,4.4587,4.4587,4.4587,4.4587,4.4587,4.4587,4.4587,4.4587,4.4587,4.4587,4.4587,4.4587,4.4587,4.4587,4.4587,4.4587,4.4587,4.4587,4.4587,4.4587,4.4587,4.4587,4.4587,4.4587,4.4587,4.4587,4.4587,4.4587,4.4587,4.4587,4.484,4.5213,4.5213,4.5483,4.5754,4.5331,4.5213,4.5213,4.5213,4.5449,4.5889,4.6718,4.7411,4.802,4.8426,4.8765,4.9001,4.9001,4.8748,4.8612,4.8934,4.9001,4.9001,4.9001,4.9563,4.9976,4.9976,5.0352,5.0608,5.0608,5.0608,5.077,5.112,5.2083,5.2831,5.3164,5.3206,5.3206,5.3206,5.3206,5.3206,5.3206,5.3206,5.3427,5.3867,5.3867,5.3867,5.3867,5.3867,5.3647,5.3206,5.3206,5.3206,5.3206,5.3206,5.3206,5.3206,5.3206,5.3206,5.3206,5.3206,5.3206,5.3206,5.3206,5.2931,5.2435,5.1628,5.1389,5.1463]}]]